Date StartTime U_cm/s V_cm/s W_cm/s Ustd_cm/s Vstd_cm/s Wstd_cm/s Uvar_(cm/s)^2 Vvar_(cm/s)^2 Wvar_(cm/s)^2 KE_(m/s)^2 TurbulentKE_(m/s)^2 HorizWindSpeed_cm/s FrictionSpeec_cm/s DragCoef SpeedOfSound_m/s SonicTemperature_C Pressure_mb 
08/10/2013  00:00:00     -281.791      -97.518       -8.875      159.620      141.319       75.078    25478.538    19971.180     5636.712        7.003        2.554      298.188       84.031        0.079      343.160       19.072      860.847
08/10/2013  00:01:00     -279.116     -171.796      -12.986      252.417      125.394       85.659    63714.494    15723.660     7337.459        9.717        4.339      327.749      109.740        0.112      343.151       19.056      860.838
08/10/2013  00:02:00     -222.250     -118.059       18.001      213.850      167.465      105.578    45731.909    28044.621    11146.712        7.428        4.246      251.661      123.999        0.243      343.103       18.978      860.844
08/10/2013  00:03:00     -277.075      -81.190        0.160      178.874      122.286       60.975    31995.886    14953.773     3717.980        6.701        2.533      288.725       69.310        0.058      343.097       18.965      860.848
08/10/2013  00:04:00     -221.625        6.602       -9.073      153.375       97.508       62.665    23523.756     9507.786     3926.881        4.309        1.848      221.723       68.324        0.095      343.070       18.919      860.868
08/10/2013  00:05:00     -165.681      -69.603      -13.696      114.143       68.668       41.068    13028.541     4715.292     1686.550        2.595        0.972      179.708       42.509        0.056      343.111       18.990      860.873
08/10/2013  00:06:00     -273.987      -50.796      -11.666      116.940      109.789       57.819    13675.068    12053.526     3342.997        5.342        1.454      278.656       50.973        0.033      343.074       18.926      860.890
08/10/2013  00:07:00     -186.761     -109.114       -0.550      135.247       83.609       52.222    18291.862     6990.430     2727.134        3.739        1.400      216.300       56.474        0.068      343.089       18.952      860.913
08/10/2013  00:08:00     -143.224      -35.268        6.309       97.711       98.896       45.367     9547.386     9780.415     2058.169        2.159        1.069      147.502       46.614        0.100      343.056       18.896      860.937
08/10/2013  00:09:00     -186.194      -30.142       -1.057       93.517       63.474       42.282     8745.388     4028.934     1787.750        2.507        0.728      188.618       38.483        0.042      343.083       18.942      860.952
08/10/2013  00:10:00     -129.746      -15.440        2.721      137.757       84.336       49.125    18977.121     7112.513     2413.237        2.279        1.425      130.661       43.163        0.109      343.001       18.803      860.961
08/10/2013  00:11:00     -223.371      -37.043      -21.474       96.427       90.286       52.780     9298.262     8151.481     2785.694        3.598        1.012      226.421       46.722        0.043      343.100       18.971      860.991
08/10/2013  00:12:00       45.623      -45.536       14.463       48.038       63.791       49.752     2307.672     4069.230     2475.240        0.661        0.443       64.459       49.038        0.579      342.493       17.942      861.017
08/10/2013  00:13:00       39.383       43.463       40.903       33.529       36.598       38.810     1124.224     1339.396     1506.217        0.454        0.198       58.652       29.939        0.261      342.611       18.141      861.059
08/10/2013  00:14:00     -123.010      -12.171       -7.777      110.202       75.436       54.932    12144.582     5690.566     3017.570        1.809        1.043      123.611       47.948        0.150      342.983       18.773      861.116
08/10/2013  00:15:00      -82.070       32.028       13.074       73.519       56.275       36.148     5405.002     3166.858     1306.682        0.890        0.494       88.098       28.814        0.107      343.065       18.915      861.120
08/10/2013  00:16:00       25.726      -43.449        9.304       51.101       66.899       45.829     2611.324     4475.460     2100.288        0.591        0.459       50.494       42.496        0.708      342.964       18.744      861.165
08/10/2013  00:17:00      123.941       81.052       44.951       88.422       52.761       52.780     7818.461     2783.730     2785.753        1.867        0.669      148.091       43.651        0.087      342.590       18.104      861.139
08/10/2013  00:18:00       -5.604      -19.851       13.888       31.914       56.213       44.003     1018.505     3159.898     1936.248        0.337        0.306       20.627       45.967        4.966      342.493       17.940      861.179
08/10/2013  00:19:00       -0.265       -8.530       -3.874       29.087       32.461       22.606      846.038     1053.733      511.010        0.125        0.121        8.534       20.089        5.541      342.771       18.413      861.236
08/10/2013  00:20:00       26.036       22.600       37.082       35.956       46.248       30.701     1292.823     2138.913      942.566        0.347        0.219       34.477       27.028        0.615      342.298       17.611      861.232
08/10/2013  00:21:00       56.454      -70.176      -10.147       40.594       38.187       25.584     1647.910     1458.217      654.529        0.599        0.188       90.065       26.449        0.086      342.126       17.317      861.238
08/10/2013  00:22:00       38.370      -79.693       -0.952       21.554       19.380       20.148      464.560      375.580      405.944        0.453        0.062       88.449       14.404        0.027      342.248       17.526      861.236
08/10/2013  00:23:00       -6.205       -1.816       -3.718       21.554       34.292       13.231      464.561     1175.916      175.048        0.094        0.091        6.465        9.710        2.256      342.234       17.501      861.246
08/10/2013  00:24:00       29.561      -12.854        8.884       29.340       23.663       16.399      860.855      559.936      268.932        0.140        0.084       32.235       14.821        0.211      342.317       17.642      861.274
08/10/2013  00:25:00       14.909       20.237       31.286       43.073       57.413       25.850     1855.243     3296.298      668.217        0.371        0.291       25.136       13.493        0.288      342.336       17.676      861.262
08/10/2013  00:26:00      -39.983       12.585      -15.272       25.370       34.202       20.797      643.628     1169.757      432.525        0.212        0.112       41.917       11.012        0.069      342.638       18.187      861.293
08/10/2013  00:27:00      -63.263       35.093      -18.221       30.096       38.900       20.329      905.743     1513.175      413.266        0.420        0.142       72.344       14.756        0.042      342.870       18.583      861.328
08/10/2013  00:28:00       18.148       82.115      -23.705       41.976       32.191       36.977     1761.977     1036.249     1367.312        0.590        0.208       84.097       26.688        0.101      343.148       19.055      861.334
08/10/2013  00:29:00      132.274      109.799       59.934       53.516       36.928       46.106     2863.966     1363.644     2125.755        1.975        0.318      171.908       32.386        0.035      343.056       18.898      861.307
08/10/2013  00:30:00      149.161      126.664       58.149       46.129       56.304       46.387     2127.846     3170.119     2151.723        2.456        0.372      195.685       24.258        0.015      343.016       18.829      861.309
08/10/2013  00:31:00      137.862      135.470       88.157       80.403       37.449       43.944     6464.597     1402.402     1931.100        2.746        0.490      193.282       45.602        0.056      342.944       18.706      861.303
08/10/2013  00:32:00       97.707       57.840       40.358       53.852       42.486       43.920     2900.052     1805.036     1928.973        1.058        0.332      113.544       27.554        0.059      342.906       18.643      861.314
08/10/2013  00:33:00      152.973       79.989       44.087       45.792       34.604       33.255     2096.921     1197.442     1105.891        1.807        0.220      172.624       20.004        0.013      342.803       18.468      861.302
08/10/2013  00:34:00       11.506       23.852       39.736       29.629       37.057       26.822      877.894     1373.193      719.423        0.262        0.149       26.482       26.283        0.985      342.645       18.198      861.337
08/10/2013  00:35:00        2.998      -33.787       -2.556       15.150       12.187       13.911      229.519      148.528      193.529        0.086        0.029       33.919        7.700        0.052      342.573       18.077      861.366
08/10/2013  00:36:00        1.584      -59.750       -0.223       21.162       22.214       17.512      447.849      493.479      306.672        0.241        0.062       59.771        9.429        0.025      342.973       18.757      861.384
08/10/2013  00:37:00       26.859       20.724       12.871       26.346       38.174       23.561      694.125     1457.283      555.117        0.201        0.135       33.925       27.044        0.635      342.956       18.728      861.382
08/10/2013  00:38:00       84.532       76.890       48.774       32.872       38.776       31.364     1080.565     1503.569      983.720        0.950        0.178      114.270       17.761        0.024      342.542       18.024      861.338
08/10/2013  00:39:00      138.290      107.737       68.594       68.903       48.528       43.852     4747.586     2354.987     1923.029        2.223        0.451      175.304       25.696        0.021      342.721       18.326      861.276
08/10/2013  00:40:00      103.467       95.135       81.029       76.170       44.789       38.874     5801.825     2006.033     1511.225        1.782        0.466      140.556       21.090        0.023      342.671       18.244      861.287
08/10/2013  00:41:00       -6.441       14.763       21.284       27.823       19.508       24.009      774.105      380.581      576.450        0.122        0.087       16.107       19.386        1.448      342.530       18.005      861.350
08/10/2013  00:42:00      -81.734       22.869      -12.326       45.376       30.564       15.880     2058.957      934.185      252.167        0.530        0.162       84.873       11.207        0.017      342.717       18.321      861.402
08/10/2013  00:43:00     -124.639       30.194      -13.749       35.648       27.764       15.336     1270.780      770.831      235.196        0.946        0.114      128.244       11.900        0.009      342.626       18.167      861.452
08/10/2013  00:44:00      -58.646       35.670        4.073       37.576       27.829       22.156     1411.940      774.437      490.868        0.370        0.134       68.641       18.558        0.073      342.606       18.134      861.461
08/10/2013  00:45:00      -56.693       -9.125        0.104       85.345       31.221       24.871     7283.715      974.777      618.582        0.609        0.444       57.422       29.562        0.265      342.588       18.103      861.433
08/10/2013  00:46:00      -65.841       81.232       -4.020       34.885       73.945       28.043     1216.969     5467.910      786.431        0.921        0.374      104.564       23.555        0.051      342.891       18.618      861.423
08/10/2013  00:47:00        1.349       99.691      -17.749       58.355       47.737       28.241     3405.297     2278.848      797.553        0.837        0.324       99.700       13.522        0.018      343.080       18.940      861.414
08/10/2013  00:48:00       43.530       73.192       10.557       32.731       56.417       33.433     1071.301     3182.906     1117.739        0.637        0.269       85.158       33.148        0.152      342.998       18.799      861.409
08/10/2013  00:49:00       91.813       61.352       24.860       51.241       34.422       31.349     2625.595     1184.855      982.736        0.880        0.240      110.425       21.477        0.038      342.846       18.542      861.423
08/10/2013  00:50:00       30.711       42.125        2.612       55.576       36.019       24.840     3088.682     1297.402      617.050        0.386        0.250       52.132       18.539        0.126      342.693       18.280      861.420
08/10/2013  00:51:00       33.906       64.033       -1.043       47.114       39.281       23.107     2219.715     1543.021      533.929        0.477        0.215       72.455       20.775        0.082      342.796       18.455      861.429
08/10/2013  00:52:00        8.450      114.960      -11.787       38.196       33.019       20.152     1458.930     1090.238      406.090        0.819        0.148      115.270       15.877        0.019      342.785       18.437      861.445
08/10/2013  00:53:00       67.118      144.011        1.943       69.183       85.827       61.995     4786.273     7366.257     3843.321        2.062        0.800      158.884       58.753        0.137      342.837       18.525      861.442
08/10/2013  00:54:00      160.299       73.796        8.594       62.872       59.320       47.320     3952.936     3518.889     2239.139        2.046        0.486      176.470       28.028        0.025      342.828       18.508      861.439
08/10/2013  00:55:00       92.379       64.316       23.670       61.067       40.256       34.496     3729.218     1620.543     1189.952        0.988        0.327      112.563       17.508        0.024      342.809       18.478      861.463
08/10/2013  00:56:00      114.384       79.699       29.478       40.439       30.739       25.602     1635.348      944.914      655.479        1.177        0.162      139.412       14.151        0.010      342.842       18.535      861.476
08/10/2013  00:57:00       84.148       52.311       17.890       29.278       18.608       21.745      857.198      346.274      472.839        0.591        0.084       99.082       12.308        0.015      342.718       18.323      861.498
08/10/2013  00:58:00      118.967       48.666       20.649       32.005       25.995       22.058     1024.296      675.727      486.553        0.957        0.109      128.536       16.762        0.017      342.663       18.228      861.485
08/10/2013  00:59:00      113.137      104.301       46.607       53.831       34.203       42.477     2897.754     1169.818     1804.328        1.586        0.294      153.878       25.716        0.028      342.639       18.189      861.474
08/10/2013  01:00:00       81.977       90.300       62.251       56.748       36.287       40.612     3220.310     1316.779     1649.371        1.247        0.309      121.960       31.767        0.068      342.579       18.089      861.452
08/10/2013  01:01:00       35.982       33.636       36.548       38.991       37.891       36.694     1520.324     1435.760     1346.466        0.403        0.215       49.255       24.986        0.257      342.472       17.906      861.462
08/10/2013  01:02:00      -14.654       31.580        3.711       70.583       51.601       31.795     4982.026     2662.656     1010.944        0.494        0.433       34.815       34.052        0.957      342.440       17.851      861.494
08/10/2013  01:03:00       -6.942       29.840       -3.347       48.607       26.674       23.264     2362.631      711.503      541.205        0.228        0.181       30.637       20.590        0.452      342.469       17.901      861.523
08/10/2013  01:04:00       37.138      -23.138       26.138       36.515       28.784       22.197     1333.377      828.539      492.704        0.263        0.133       43.757       18.884        0.186      342.063       17.211      861.553
08/10/2013  01:05:00       10.681      -28.565       14.722       19.845       24.391       13.145      393.836      594.939      172.788        0.115        0.058       30.496        7.524        0.061      342.483       17.924      861.561
08/10/2013  01:06:00       61.483       18.017       19.653       20.906       36.948       21.106      437.075     1365.153      445.479        0.337        0.112       64.069        8.743        0.019      342.052       17.192      861.550
08/10/2013  01:07:00       95.722       53.308       14.668       37.074       35.177       23.674     1374.499     1237.391      560.474        0.770        0.159      109.565       15.673        0.020      342.315       17.639      861.527
08/10/2013  01:08:00        1.565       18.922        1.237       38.345       12.788       10.852     1470.321      163.525      117.768        0.106        0.088       18.987        9.240        0.237      342.374       17.739      861.546
08/10/2013  01:09:00      -69.663      -20.374       -8.395       17.624       29.646       13.826      310.613      878.869      191.158        0.336        0.069       72.582       13.250        0.033      342.268       17.558      861.585
08/10/2013  01:10:00      -29.026        8.470        0.922       21.500       10.957        9.932      462.268      120.061       98.652        0.080        0.034       30.237        7.768        0.066      342.254       17.537      861.578
08/10/2013  01:11:00      -31.173      -39.321        2.309       23.204       23.804       12.047      538.433      566.640      145.126        0.189        0.063       50.179       11.933        0.057      342.324       17.654      861.572
08/10/2013  01:12:00     -100.849      -82.738      -11.372       36.976       29.758       18.151     1367.229      885.567      329.471        0.986        0.129      130.445       17.692        0.018      342.553       18.042      861.604
08/10/2013  01:13:00     -118.769      -44.304        3.487       46.060       51.909       30.915     2121.536     2694.592      955.728        1.093        0.289      126.763       20.958        0.027      342.690       18.274      861.609
08/10/2013  01:14:00       12.139       10.682       11.739       37.554       31.449       22.564     1410.339      989.039      509.134        0.165        0.145       16.170       15.791        0.954      342.597       18.119      861.570
08/10/2013  01:15:00      -42.241      -20.195       -5.327       52.978       31.478       19.963     2806.618      990.868      398.540        0.321        0.210       46.820       21.743        0.216      342.506       17.963      861.568
08/10/2013  01:16:00     -269.717       34.862      -19.506       99.203       81.817       42.675     9841.272     6694.017     1821.142        4.635        0.918      271.961       32.906        0.015      342.726       18.334      861.567
08/10/2013  01:17:00      -55.520      -67.984        1.711      111.112       48.706       31.227    12345.839     2372.228      975.124        1.170        0.785       87.774       23.864        0.074      342.671       18.242      861.537
08/10/2013  01:18:00      -63.409     -110.281        1.945       72.550       73.676       37.414     5263.482     5428.218     1399.812        1.414        0.605      127.211       38.219        0.090      342.785       18.437      861.540
08/10/2013  01:19:00      -22.961      -66.599       21.339       42.031       57.430       24.570     1766.599     3298.177      603.662        0.554        0.283       70.446       19.770        0.079      342.747       18.374      861.524
08/10/2013  01:20:00      -69.311      -31.396        6.614       79.831       43.573       30.266     6372.919     1898.599      916.058        0.751        0.459       76.090       38.443        0.255      342.579       18.088      861.546
08/10/2013  01:21:00       29.625      -65.187        1.856       50.506       40.515       30.716     2550.848     1641.487      943.448        0.513        0.257       71.603       28.946        0.163      342.297       17.608      861.543
08/10/2013  01:22:00       55.719      -36.573       23.637       41.074       43.539       35.987     1687.094     1895.657     1295.053        0.494        0.244       66.650       30.025        0.203      342.025       17.146      861.529
08/10/2013  01:23:00       29.229      -63.882      -11.585       26.878       34.634       21.895      722.441     1199.511      479.397        0.374        0.120       70.251       21.363        0.092      342.421       17.820      861.533
08/10/2013  01:24:00       14.604        5.957       22.261       35.585       37.138       21.825     1266.306     1379.262      476.319        0.193        0.156       15.772       16.222        1.058      342.014       17.126      861.525
08/10/2013  01:25:00       30.811       18.776       -7.434       33.049       29.222       25.237     1092.220      853.918      636.883        0.197        0.129       36.081        7.758        0.046      342.186       17.420      861.538
08/10/2013  01:26:00      110.404       85.772       44.830       51.928       30.039       44.289     2696.497      902.350     1961.524        1.356        0.278      139.807       25.398        0.033      342.120       17.307      861.521
08/10/2013  01:27:00       20.671       67.285       62.768       28.099       32.978       26.321      789.572     1087.534      692.774        0.573        0.128       70.388       17.789        0.064      342.239       17.509      861.513
08/10/2013  01:28:00        4.369        9.590       29.684       29.961       29.426       23.823      897.655      865.872      567.548        0.166        0.117       10.538       22.051        4.378      341.946       17.012      861.548
08/10/2013  01:29:00       38.660        9.503       33.488       48.850       28.635       25.697     2386.334      819.941      660.359        0.329        0.193       39.811       25.366        0.406      341.702       16.598      861.567
08/10/2013  01:30:00       56.849       -1.396       13.386       23.455       20.219       22.029      550.145      408.816      485.292        0.243        0.072       56.867       15.321        0.073      341.846       16.843      861.559
08/10/2013  01:31:00      100.022       40.952       10.388       39.829       33.174       28.434     1586.358     1100.525      808.487        0.764        0.175      108.081        6.066        0.003      342.028       17.151      861.537
08/10/2013  01:32:00       14.443      -19.536       -8.797       29.317       27.542       18.083      859.492      758.588      327.007        0.131        0.097       24.295        8.243        0.115      342.083       17.244      861.559
08/10/2013  01:33:00       24.329      -30.710       -2.161       22.282       11.555       23.253      496.506      133.518      540.715        0.136        0.059       39.179       20.403        0.271      341.948       17.014      861.600
08/10/2013  01:34:00       47.530      -20.811        7.482       25.418       28.212       25.822      646.082      795.898      666.787        0.243        0.105       51.887       11.623        0.050      341.780       16.731      861.607
08/10/2013  01:35:00       36.355       17.496       11.728       15.390       29.279       24.936      236.849      857.266      621.812        0.174        0.086       40.346       17.055        0.179      341.758       16.692      861.618
08/10/2013  01:36:00        7.588       -0.056       -3.813       31.527       31.382       19.492      993.942      984.852      379.956        0.122        0.118        7.588       22.704        8.953      341.838       16.830      861.618
08/10/2013  01:37:00      -32.176      -33.021        2.113       34.994       46.428       20.423     1224.567     2155.595      417.090        0.296        0.190       46.105       14.091        0.093      342.376       17.741      861.636
08/10/2013  01:38:00        4.835      -51.929        1.923       34.808       47.195       21.274     1211.613     2227.334      452.582        0.331        0.195       52.153       17.832        0.117      342.421       17.819      861.642
08/10/2013  01:39:00       43.253      -57.030        7.975       32.343       35.228       24.117     1046.089     1241.045      581.606        0.403        0.143       71.577       22.934        0.103      341.705       16.604      861.644
08/10/2013  01:40:00       34.700      -81.085       11.129       38.270       40.057       23.373     1464.560     1604.531      546.300        0.576        0.181       88.198       17.248        0.038      342.150       17.360      861.669
08/10/2013  01:41:00      -14.906       -7.184        8.183       36.230       28.669       15.134     1312.643      821.895      229.027        0.135        0.118       16.547       16.477        0.992      342.491       17.937      861.694
08/10/2013  01:42:00       52.884       34.466       10.375       32.289       30.341       24.818     1042.560      920.592      615.943        0.334        0.129       63.124       15.526        0.060      342.179       17.408      861.689
08/10/2013  01:43:00       40.991       64.817       16.859       33.051       24.451       19.884     1092.394      597.870      395.380        0.413        0.104       76.691        9.651        0.016      342.173       17.396      861.686
08/10/2013  01:44:00       18.459       55.950        7.705       45.863       13.291       21.176     2103.410      176.640      448.403        0.313        0.136       58.916       27.339        0.215      342.612       18.145      861.701
08/10/2013  01:45:00       30.361      -36.988      -15.058       28.649       40.067       18.962      820.767     1605.358      359.540        0.265        0.139       47.853       18.824        0.155      341.996       17.097      861.693
08/10/2013  01:46:00       32.275       -5.902      -18.060       21.575       23.098       15.740      465.465      533.516      247.734        0.132        0.062       32.810        7.688        0.055      341.852       16.853      861.721
08/10/2013  01:47:00       71.824       -6.739       -9.539       54.671       33.709       34.583     2988.926     1136.290     1195.999        0.531        0.266       72.140       10.239        0.020      341.698       16.591      861.729
08/10/2013  01:48:00       23.873       27.711       13.476       35.281       21.592       21.917     1244.746      466.218      480.353        0.186        0.110       36.576       18.219        0.248      341.858       16.863      861.727
08/10/2013  01:49:00       65.151      -13.923       -3.594       22.924       32.872       17.260      525.497     1080.537      297.921        0.318        0.095       66.622       13.378        0.040      341.906       16.944      861.733
08/10/2013  01:50:00       80.679       56.156       18.839       70.147       41.532       31.527     4920.557     1724.906      993.932        0.883        0.382       98.298       38.555        0.154      341.987       17.082      861.740
08/10/2013  01:51:00       65.503        1.356       23.892       86.323       73.276       31.134     7451.704     5369.373      969.356        0.932        0.690       65.517       47.209        0.519      342.581       18.090      861.715
08/10/2013  01:52:00        3.174      -35.129        4.906       20.032       22.648       15.955      401.289      512.946      254.564        0.122        0.058       35.272       14.967        0.180      342.305       17.620      861.756
08/10/2013  01:53:00       21.446        0.786       23.969       24.209       28.857       19.984      586.088      832.713      399.348        0.143        0.091       21.461       14.346        0.447      341.972       17.057      861.744
08/10/2013  01:54:00       11.003       56.208       -8.785       18.686       23.355       13.935      349.155      545.456      194.183        0.222        0.054       57.275       10.907        0.036      341.808       16.778      861.743
08/10/2013  01:55:00       73.175       60.613        8.331       41.958       25.992       32.185     1760.514      675.577     1035.864        0.628        0.174       95.018       26.812        0.080      341.892       16.921      861.757
08/10/2013  01:56:00      142.547       70.570       11.968       30.531       29.246       24.286      932.162      855.330      589.818        1.391        0.119      159.059        8.358        0.003      342.254       17.535      861.751
08/10/2013  01:57:00       59.795      -61.673      -12.041       67.017       84.268       30.920     4491.242     7101.032      956.057        1.003        0.627       85.901       34.106        0.158      342.600       18.122      861.782
08/10/2013  01:58:00       78.347      -59.745       17.061       49.394       50.492       41.268     2439.802     2549.395     1703.047        0.834        0.335       98.528       42.727        0.188      342.055       17.197      861.760
08/10/2013  01:59:00       38.181       48.989       62.934       49.300       46.260       38.533     2430.480     2139.952     1484.823        0.694        0.303       62.110       37.118        0.357      341.663       16.533      861.722
08/10/2013  02:00:00      -19.202      -31.834       21.972       37.272       42.023       33.253     1389.215     1765.917     1105.792        0.306        0.213       37.177       26.520        0.509      341.800       16.765      861.729
08/10/2013  02:01:00     -110.587      -15.878      -23.233       53.276       30.900       16.274     2838.329      954.817      264.837        0.854        0.203      111.721       11.227        0.010      342.261       17.547      861.774
08/10/2013  02:02:00        6.143        6.552        8.010       21.223       20.735       20.988      450.415      429.958      440.513        0.073        0.066        8.981       12.432        1.916      342.025       17.147      861.744
08/10/2013  02:03:00       52.205       52.986        7.199       26.022       30.834       23.184      677.137      950.737      537.475        0.387        0.108       74.383       21.013        0.080      341.936       16.994      861.717
08/10/2013  02:04:00       43.274       19.797       -2.523       31.483       17.658       16.545      991.171      311.814      273.727        0.192        0.079       47.587       13.272        0.078      341.852       16.853      861.694
08/10/2013  02:05:00       -3.349        5.425       -6.357       22.333       19.656        8.746      498.772      386.374       76.500        0.052        0.048        6.376        3.608        0.320      341.859       16.864      861.733
08/10/2013  02:06:00       73.735       52.501       -0.919       33.870       34.325       20.805     1147.182     1178.226      432.863        0.548        0.138       90.516       15.758        0.030      341.746       16.672      861.728
08/10/2013  02:07:00       80.119       57.255       49.889       39.224       31.051       29.919     1538.484      964.182      895.160        0.779        0.170       98.474       22.469        0.052      341.756       16.690      861.723
08/10/2013  02:08:00       44.671       76.183       49.804       44.536       46.899       37.373     1983.465     2199.517     1396.742        0.793        0.279       88.314       18.769        0.045      342.200       17.443      861.744
08/10/2013  02:09:00      111.581       41.145       33.369       43.871       28.513       34.978     1924.664      813.019     1223.441        0.961        0.198      118.925       13.713        0.013      342.079       17.237      861.732
08/10/2013  02:10:00       49.492       79.496       -4.795       34.451       28.840       24.141     1186.902      831.739      582.800        0.570        0.130       93.643       20.258        0.047      342.030       17.154      861.711
08/10/2013  02:11:00        8.228       66.394      -11.014       18.689       11.627        8.266      349.266      135.194       68.328        0.257        0.028       66.902        6.564        0.010      342.254       17.535      861.718
08/10/2013  02:12:00       -2.263       64.588       -5.087       16.630       13.630        9.668      276.544      185.767       93.474        0.238        0.028       64.628        4.492        0.005      342.252       17.530      861.748
08/10/2013  02:13:00       43.676       40.421        8.256       20.702       24.643       19.451      428.567      607.286      378.344        0.251        0.071       59.510       17.409        0.086      342.154       17.366      861.754
08/10/2013  02:14:00       13.765      -21.962       11.337       33.985       29.887       16.917     1155.011      893.258      286.187        0.157        0.117       25.919       14.973        0.334      341.835       16.822      861.747
08/10/2013  02:15:00      -23.672       35.186       -8.739       39.197       85.792       37.445     1536.384     7360.273     1402.165        0.609        0.515       42.408       34.319        0.655      342.117       17.302      861.749
08/10/2013  02:16:00     -214.805      -31.201      -12.122       88.789       70.664       41.732     7883.533     4993.377     1741.525        3.094        0.731      217.059       42.152        0.038      342.367       17.724      861.766
08/10/2013  02:17:00     -108.532      139.754       -0.404      109.271      110.691       62.356    11940.151    12252.461     3888.310        2.969        1.404      176.948       65.694        0.138      342.449       17.863      861.774
08/10/2013  02:18:00     -155.168       76.471      -20.663       64.024       58.502       46.592     4099.129     3422.466     2170.822        2.002        0.485      172.989       38.677        0.050      342.441       17.852      861.750
08/10/2013  02:19:00      -56.778       58.030       -7.606       50.723       58.635       29.467     2572.791     3438.052      868.288        0.676        0.344       81.187       29.237        0.130      342.485       17.927      861.759
08/10/2013  02:20:00        8.795      103.541      -12.924       35.188       41.338       24.400     1238.173     1708.805      595.352        0.725        0.177      103.914       24.566        0.056      342.442       17.855      861.747
08/10/2013  02:21:00       48.746       64.741        1.937       59.925       41.048       31.167     3591.034     1684.939      971.379        0.641        0.312       81.040       28.626        0.125      342.364       17.721      861.758
08/10/2013  02:22:00      -33.338       67.828       -9.115       37.504       71.061       24.019     1406.535     5049.709      576.909        0.641        0.352       75.579       26.110        0.119      342.378       17.745      861.780
08/10/2013  02:23:00      -94.138       17.301      -13.652       23.343       18.439       14.208      544.883      339.991      201.870        0.522        0.054       95.714        7.636        0.006      342.284       17.586      861.789
08/10/2013  02:24:00      -42.605       61.252       -8.354       41.423       34.683       20.269     1715.898     1202.930      410.829        0.448        0.166       74.612       22.207        0.089      342.336       17.673      861.797
08/10/2013  02:25:00       30.428       64.134        1.162       29.013       47.095       20.102      841.780     2217.907      404.072        0.425        0.173       70.986       22.713        0.102      342.325       17.656      861.773
08/10/2013  02:26:00       50.692       55.720       -4.676       44.323       47.152       21.903     1964.485     2223.340      479.739        0.518        0.233       75.329       17.585        0.054      342.209       17.458      861.753
08/10/2013  02:27:00       15.707       36.387       -9.206       30.695       71.587       21.031      942.212     5124.651      442.313        0.408        0.325       39.633       24.279        0.375      342.159       17.374      861.755
08/10/2013  02:28:00      -10.091       33.699       -4.151       44.347       38.783       13.351     1966.674     1504.111      178.257        0.245        0.182       35.177       16.869        0.230      342.352       17.700      861.777
08/10/2013  02:29:00      -71.137      -26.683       -2.319       30.320       26.122       14.839      919.306      682.382      220.183        0.380        0.091       75.977        6.495        0.007      342.179       17.406      861.798
08/10/2013  02:30:00      -37.431        1.813       -3.080       23.856       22.866       12.241      569.132      522.836      149.837        0.133        0.062       37.475        9.967        0.071      342.071       17.224      861.805
08/10/2013  02:31:00      -45.973       18.451       -6.248       31.485       23.303       15.594      991.298      543.007      243.187        0.213        0.089       49.537       15.093        0.093      342.260       17.545      861.796
08/10/2013  02:32:00      -54.600      -37.108       -1.151       68.887       23.714       18.279     4745.466      562.356      334.123        0.500        0.282       66.017       20.417        0.096      342.227       17.489      861.775
08/10/2013  02:33:00        9.429       44.809       24.162       22.310       30.636       29.956      497.733      938.566      897.340        0.251        0.117       45.790       24.504        0.286      342.063       17.210      861.741
08/10/2013  02:34:00        8.393       -6.029      -10.855       12.459       16.168        9.678      155.223      261.420       93.661        0.037        0.026       10.334       11.283        1.192      342.131       17.327      861.771
08/10/2013  02:35:00        9.209       52.778       -2.454       16.893       16.222        9.646      285.380      263.159       93.054        0.176        0.032       53.575        8.807        0.027      342.298       17.608      861.789
08/10/2013  02:36:00       50.638       49.164        8.088       50.386       27.728       31.366     2538.787      768.833      983.826        0.467        0.215       70.578       27.376        0.150      342.295       17.604      861.787
08/10/2013  02:37:00        7.691       33.331       -0.963       17.456       24.456        9.470      304.712      598.083       89.690        0.108        0.050       34.207       12.510        0.134      342.206       17.453      861.789
08/10/2013  02:38:00       14.445       29.571        6.297       19.063       15.222       15.567      363.395      231.694      242.322        0.098        0.042       32.911       12.623        0.147      342.138       17.339      861.774
08/10/2013  02:39:00       33.307       20.542       -3.827       18.908        7.863        8.329      357.513       61.833       69.365        0.102        0.024       39.132        4.417        0.013      342.208       17.458      861.769
08/10/2013  02:40:00       18.691       11.877       -0.236       14.289        9.413        5.299      204.165       88.596       28.081        0.041        0.016       22.145        4.796        0.047      342.222       17.478      861.773
08/10/2013  02:41:00       24.959       11.385        2.737        7.830        8.647        8.873       61.307       74.764       78.732        0.049        0.011       27.433        5.079        0.034      342.105       17.283      861.770
08/10/2013  02:42:00       -5.278      -14.780       -6.228        6.951        6.446        4.975       48.321       41.549       24.752        0.020        0.006       15.694        4.693        0.089      342.065       17.215      861.781
08/10/2013  02:43:00      -19.677       -9.319       -2.747        9.833        9.766        5.004       96.692       95.367       25.044        0.035        0.011       21.773        2.041        0.009      342.085       17.249      861.789
08/10/2013  02:44:00      -48.001       11.907       -8.207       13.083       11.187        8.022      171.173      125.143       64.353        0.144        0.018       49.455        4.537        0.008      342.168       17.388      861.787
08/10/2013  02:45:00      -32.940       -3.025       -5.665        7.376        7.667        5.844       54.400       58.787       34.151        0.064        0.007       33.079        4.665        0.020      342.143       17.346      861.793
08/10/2013  02:46:00      -16.475        3.857       -3.585        6.244        6.913        4.834       38.990       47.788       23.370        0.020        0.006       16.920        2.793        0.027      342.072       17.229      861.787
08/10/2013  02:47:00      -18.574       12.397       -5.379        9.875       11.085        6.238       97.518      122.868       38.911        0.039        0.013       22.332        5.013        0.050      342.205       17.453      861.802
08/10/2013  02:48:00      -24.772       63.467       -8.101        9.452       37.398        9.840       89.347     1398.617       96.832        0.315        0.079       68.130       17.158        0.063      342.156       17.370      861.832
08/10/2013  02:49:00      -35.375       98.755      -11.379       45.139       34.364       23.244     2037.563     1180.889      540.292        0.745        0.188      104.900       23.984        0.052      342.066       17.218      861.822
08/10/2013  02:50:00       83.743       85.760       -5.100       66.911       46.945       34.064     4477.021     2203.832     1160.387        1.112        0.392      119.866       16.729        0.019      341.804       16.772      861.804
08/10/2013  02:51:00        1.228       75.172      -14.425       56.841       55.471       34.462     3230.901     3077.067     1187.606        0.668        0.375       75.182       29.566        0.155      341.885       16.908      861.801
08/10/2013  02:52:00      -77.536       23.486      -13.186       37.042       48.695       22.627     1372.101     2371.198      511.964        0.550        0.213       81.015       20.789        0.066      341.920       16.968      861.842
08/10/2013  02:53:00      -40.269       42.767        0.733       40.435       39.756       23.203     1634.996     1580.558      538.365        0.360        0.188       58.742       18.298        0.097      341.825       16.806      861.860
08/10/2013  02:54:00      122.988       98.598       11.924       71.137       41.536       52.739     5060.496     1725.277     2781.395        1.728        0.478      157.631       26.480        0.028      341.921       16.968      861.816
08/10/2013  02:55:00       84.346       70.087       22.881      104.824       64.890       60.457    10988.114     4210.743     3655.071        1.570        0.943      109.665       36.896        0.113      341.978       17.065      861.776
08/10/2013  02:56:00      -94.753       80.154      -24.954       32.581       45.146       19.654     1061.523     2038.172      386.288        0.976        0.174      124.108       13.245        0.011      341.876       16.894      861.847
08/10/2013  02:57:00      -74.135       71.505      -17.452       42.983       28.486       22.657     1847.501      811.431      513.337        0.704        0.159      102.999       19.902        0.037      341.813       16.787      861.864
08/10/2013  02:58:00      -96.459       33.497      -22.391       34.033       41.650       27.037     1158.263     1734.687      731.011        0.728        0.181      102.110       13.199        0.017      342.065       17.214      861.845
08/10/2013  02:59:00       39.333       29.958        3.709       65.806       46.775       39.005     4330.389     2187.941     1521.355        0.525        0.402       49.443       38.493        0.606      342.206       17.451      861.797
08/10/2013  03:00:00       50.485       23.617       14.989       38.030       24.065       16.991     1446.257      579.105      288.686        0.282        0.116       55.736        9.530        0.029      341.974       17.058      861.756
08/10/2013  03:01:00      -10.364       86.307      -12.494       22.906       41.463       21.413      524.706     1719.218      458.506        0.521        0.135       86.927       22.333        0.066      341.964       17.042      861.766
08/10/2013  03:02:00      -55.376       62.232      -16.484       31.238       59.210       14.279      975.784     3505.797      203.885        0.595        0.234       83.303       14.577        0.031      342.084       17.245      861.766
08/10/2013  03:03:00     -166.617        6.711      -14.885       40.616       43.082       24.724     1649.691     1856.023      611.266        1.607        0.206      166.752       20.170        0.015      341.763       16.703      861.805
08/10/2013  03:04:00      -83.808      -43.612        4.784       73.550       42.862       28.884     5409.570     1837.180      834.276        0.851        0.404       94.476       36.339        0.148      341.799       16.761      861.825
08/10/2013  03:05:00      -39.324       45.777       -0.137       36.553       33.163       19.393     1336.099     1099.783      376.081        0.323        0.141       60.348       18.831        0.097      341.814       16.788      861.795
08/10/2013  03:06:00      -54.562       76.252      -13.471       34.438       78.078       29.338     1185.950     6096.129      860.735        0.856        0.407       93.762       32.775        0.122      341.951       17.021      861.749
08/10/2013  03:07:00      -87.139      153.101      -17.070       59.806       80.594       44.841     3576.756     6495.392     2010.685        2.170        0.604      176.162       43.224        0.060      341.895       16.924      861.739
08/10/2013  03:08:00     -158.642       22.525      -10.793       64.012       78.059       32.965     4097.583     6093.220     1086.679        1.853        0.564      160.233       34.688        0.047      341.976       17.062      861.740
08/10/2013  03:09:00      -66.545      -48.064        2.142       86.426       61.522       36.247     7469.425     3784.950     1313.860        0.965        0.628       82.087       25.631        0.097      341.819       16.796      861.766
08/10/2013  03:10:00     -102.698      -57.024        2.411       59.895       57.871       36.260     3587.408     3349.101     1314.814        1.103        0.413      117.468       33.701        0.082      341.770       16.714      861.770
08/10/2013  03:11:00      -92.811      -21.262       -4.091       53.972       37.363       20.292     2912.982     1395.969      411.773        0.690        0.236       95.216       10.745        0.013      341.828       16.812      861.783
08/10/2013  03:12:00      -56.910      -58.026       -1.936      111.752       36.069       39.750    12488.412     1300.991     1580.086        1.099        0.768       81.276       53.670        0.436      341.848       16.845      861.804
08/10/2013  03:13:00      -75.456      -61.758       -0.047       63.905       50.855       38.592     4083.807     2586.195     1489.312        0.883        0.408       97.508       33.905        0.121      341.782       16.734      861.817
08/10/2013  03:14:00      -50.801      -21.083        5.949       52.699       29.219       23.034     2777.140      853.727      530.577        0.361        0.208       55.003       20.631        0.141      341.669       16.542      861.828
08/10/2013  03:15:00      -93.224      -72.637        2.389       43.545       51.773       21.498     1896.201     2680.460      462.176        0.950        0.252      118.182       21.814        0.034      341.815       16.790      861.850
08/10/2013  03:16:00      -52.442      -50.419        4.859       60.821       41.108       24.249     3699.207     1689.905      588.035        0.565        0.299       72.748       26.652        0.134      341.792       16.750      861.865
08/10/2013  03:17:00      -54.350      -36.106        1.372       48.008       38.054       26.192     2304.724     1448.092      686.032        0.435        0.222       65.250       26.884        0.170      341.765       16.704      861.873
08/10/2013  03:18:00      -54.046       -1.258        3.743       42.921       35.805       26.948     1842.247     1281.989      726.169        0.339        0.193       54.060       26.801        0.246      341.686       16.572      861.862
08/10/2013  03:19:00      -70.857      -17.078       -1.057       33.145       22.349       15.996     1098.589      499.481      255.873        0.358        0.093       72.886       14.499        0.040      341.767       16.707      861.847
08/10/2013  03:20:00      -42.521      -40.228        1.209       24.548       33.670       17.548      602.602     1133.642      307.926        0.274        0.102       58.535       14.493        0.061      341.768       16.711      861.844
08/10/2013  03:21:00      -81.851      -26.450        0.986       41.969       30.366       17.884     1761.422      922.103      319.845        0.520        0.150       86.018       12.930        0.023      341.738       16.657      861.856
08/10/2013  03:22:00      -57.262      -45.574       -5.514       46.978       38.530       28.047     2206.918     1484.545      786.627        0.493        0.224       73.184       30.631        0.175      341.700       16.595      861.855
08/10/2013  03:23:00      -14.973       -6.472        9.598       32.894       23.376       18.409     1082.012      546.439      338.907        0.116        0.098       16.312       18.887        1.341      341.601       16.427      861.835
08/10/2013  03:24:00       -3.425      -21.395        6.265       23.128       26.207       17.479      534.909      686.783      305.529        0.102        0.076       21.668       12.402        0.328      341.748       16.677      861.835
08/10/2013  03:25:00      -71.607      -21.162        3.500       68.392       36.442       21.067     4677.465     1328.019      443.817        0.602        0.322       74.668       25.791        0.119      341.756       16.690      861.841
08/10/2013  03:26:00      -34.667      -57.412       -5.251       30.919       32.012       19.847      955.974     1024.741      393.908        0.345        0.119       67.067       16.208        0.058      341.836       16.825      861.860
08/10/2013  03:27:00      -31.231      -74.220        7.766       27.797       27.066       16.872      772.701      732.593      284.680        0.417        0.089       80.523       13.867        0.030      341.788       16.745      861.858
08/10/2013  03:28:00      -16.290      -26.755        5.042       29.934       27.249       13.843      896.040      742.527      191.628        0.142        0.092       31.324       13.990        0.199      341.673       16.548      861.858
08/10/2013  03:29:00       34.812      -29.633       17.926       41.426       45.295       37.478     1716.133     2051.678     1404.568        0.379        0.259       45.716       34.054        0.555      341.303       15.923      861.828
08/10/2013  03:30:00       32.067      -53.955        7.074       39.458       33.846       24.450     1556.964     1145.542      597.800        0.364        0.165       62.765       23.299        0.138      341.677       16.556      861.818
08/10/2013  03:31:00       25.270      -50.811       30.779       51.974       70.091       35.541     2701.306     4912.780     1263.194        0.652        0.444       56.748       34.116        0.361      341.554       16.347      861.834
08/10/2013  03:32:00       39.664      -43.616        5.968       44.120       51.068       47.475     1946.561     2607.940     2253.885        0.516        0.340       58.954       40.766        0.478      341.478       16.217      861.849
08/10/2013  03:33:00       64.111      -86.047      -13.157       45.726       44.481       35.821     2090.833     1978.526     1283.141        0.852        0.268      107.305       25.245        0.055      341.593       16.414      861.852
08/10/2013  03:34:00       40.785      -39.294       22.551       46.224       61.200       38.461     2136.624     3745.487     1479.268        0.554        0.368       56.634       38.580        0.464      341.425       16.129      861.850
08/10/2013  03:35:00       48.520      -22.009       16.626       33.577       36.589       25.533     1127.384     1338.772      651.954        0.312        0.156       53.278       22.648        0.181      341.210       15.765      861.840
08/10/2013  03:36:00       72.821      -37.360       13.614       37.586       42.877       30.364     1412.732     1838.425      921.971        0.553        0.209       81.845       18.972        0.054      341.034       15.466      861.838
08/10/2013  03:37:00       35.227      -17.079        9.239       37.718       42.425       26.110     1422.635     1799.905      681.706        0.276        0.195       39.149       29.073        0.551      340.963       15.345      861.850
08/10/2013  03:38:00       22.351        8.562        4.489       43.017       23.986       26.140     1850.503      575.321      683.298        0.185        0.155       23.935       12.452        0.271      340.924       15.280      861.852
08/10/2013  03:39:00       -4.189       24.348       -7.219       30.603       20.702       12.550      936.519      428.579      157.499        0.109        0.076       24.705       10.730        0.189      341.135       15.639      861.862
08/10/2013  03:40:00      -15.738       12.505        3.189       39.588       23.139       13.062     1567.246      535.418      170.624        0.134        0.114       20.101       18.088        0.810      341.229       15.797      861.865
08/10/2013  03:41:00      -78.290       -4.610       -8.810       51.328       57.231       18.769     2634.542     3275.389      352.282        0.624        0.313       78.426       20.055        0.065      341.373       16.040      861.866
08/10/2013  03:42:00     -123.577      -13.645        3.586       53.658       36.426       25.105     2879.220     1326.865      630.237        1.015        0.242      124.328       26.289        0.045      341.397       16.082      861.868
08/10/2013  03:43:00      -77.723      -16.523        2.558       44.696       27.859       19.821     1997.728      776.144      392.888        0.474        0.158       79.460       21.333        0.072      341.526       16.299      861.891
08/10/2013  03:44:00       13.486      -37.835       -5.108       23.096       25.820       18.915      533.440      666.656      357.772        0.160        0.078       40.167       17.001        0.179      341.198       15.743      861.893
08/10/2013  03:45:00       15.479      -16.116        6.357        7.509       12.431       10.036       56.382      154.536      100.731        0.043        0.016       22.346        7.631        0.117      341.204       15.755      861.890
08/10/2013  03:46:00      -19.172      -11.343       -2.680       31.714       11.340       13.082     1005.809      128.595      171.144        0.090        0.065       22.276       15.101        0.460      341.253       15.835      861.894
08/10/2013  03:47:00      -35.070      -25.162        2.496       30.669       24.256       19.700      940.570      588.336      388.078        0.189        0.096       43.163       19.094        0.196      341.334       15.973      861.889
08/10/2013  03:48:00      -62.034      -55.687       -0.788       31.320       25.360       13.915      980.931      643.136      193.627        0.438        0.091       83.362       11.899        0.020      341.504       16.262      861.878
08/10/2013  03:49:00      -55.288      -17.976        3.922       52.263       26.652       19.110     2731.432      710.317      365.203        0.360        0.190       58.137       24.188        0.173      341.419       16.118      861.864
08/10/2013  03:50:00      -32.276      -38.936        3.741       35.514       40.285       17.387     1261.271     1622.861      302.303        0.288        0.159       50.574       13.083        0.067      341.461       16.188      861.863
08/10/2013  03:51:00      -52.260      -73.014       -5.138       40.565       26.841       22.826     1645.514      720.459      521.023        0.549        0.144       89.790       26.135        0.085      341.623       16.462      861.873
08/10/2013  03:52:00      -83.778      -36.349       -7.690       54.511       28.363       27.031     2971.442      804.434      730.677        0.645        0.225       91.323       30.994        0.115      341.505       16.263      861.894
08/10/2013  03:53:00      -35.552      -43.404        9.805       54.978       32.478       22.926     3022.602     1054.806      525.618        0.392        0.230       56.105       27.171        0.235      341.333       15.973      861.911
08/10/2013  03:54:00       -8.450      -36.096        8.510       22.950       29.966       18.751      526.706      897.974      351.607        0.161        0.089       37.071       13.870        0.140      341.294       15.908      861.916
08/10/2013  03:55:00      -52.154      -45.607       -3.313       23.553       26.792       16.583      554.733      717.787      275.004        0.318        0.077       69.283       14.295        0.043      341.340       15.985      861.923
08/10/2013  03:56:00      -38.611      -46.003        2.528       30.025       29.169       23.078      901.494      850.807      532.612        0.295        0.114       60.059       19.041        0.101      341.344       15.990      861.940
08/10/2013  03:57:00     -105.296      -50.206       -9.353       48.086       31.446       18.459     2312.286      988.840      340.719        0.867        0.182      116.653       21.553        0.034      341.307       15.930      861.949
08/10/2013  03:58:00      -30.384      -34.378       -0.004       24.933       22.857       17.031      621.635      522.464      290.066        0.177        0.072       45.881       15.551        0.115      341.232       15.800      861.976
08/10/2013  03:59:00      -30.881      -86.059        5.645       38.112       52.313       23.248     1452.542     2736.646      540.489        0.656        0.236       91.432       13.388        0.021      341.271       15.869      861.988
08/10/2013  04:00:00      -45.618      -78.258        3.280       42.307       38.710       26.599     1789.859     1498.450      707.532        0.611        0.200       90.584       22.432        0.061      341.154       15.673      861.986
08/10/2013  04:01:00      -51.963     -102.575       10.103       34.011       51.881       22.728     1156.724     2691.685      516.550        0.884        0.218      114.986       15.636        0.018      341.170       15.697      861.976
08/10/2013  04:02:00      -46.438      -91.694        4.171       49.017       46.613       22.988     2402.695     2172.808      528.466        0.784        0.255      102.782       23.380        0.052      341.216       15.774      861.963
08/10/2013  04:03:00      -39.615      -94.049       -7.416       41.271       69.961       26.375     1703.305     4894.477      695.630        0.888        0.365      102.052       32.973        0.104      341.123       15.618      861.960
08/10/2013  04:04:00      -53.631      -75.023       -4.813       49.448       45.405       25.502     2445.139     2061.635      650.351        0.684        0.258       92.221       21.834        0.056      341.141       15.648      861.953
08/10/2013  04:05:00      -42.213     -113.341        9.024       32.720       36.614       21.079     1070.621     1340.565      444.328        0.878        0.143      120.946       20.280        0.028      341.138       15.642      861.943
08/10/2013  04:06:00      -31.722      -36.421        8.630       50.228       21.170       19.652     2522.893      448.163      386.207        0.288        0.168       48.299       11.720        0.059      341.049       15.492      861.924
08/10/2013  04:07:00      -41.643      -32.454        2.488       23.665       19.790       20.579      560.055      391.637      423.494        0.208        0.069       52.796       12.443        0.056      341.086       15.555      861.909
08/10/2013  04:08:00      -22.977      -35.524       -5.467       26.707       20.632       13.352      713.289      425.674      178.274        0.157        0.066       42.307       10.523        0.062      341.092       15.566      861.915
08/10/2013  04:09:00      -25.444      -39.836       -2.612       25.913       21.676       14.920      671.492      469.855      222.615        0.180        0.068       47.269       10.319        0.048      341.106       15.589      861.915
08/10/2013  04:10:00      -30.205      -26.953       10.790       43.000       39.859       31.629     1849.037     1588.774     1000.417        0.310        0.222       40.482       21.392        0.279      341.052       15.498      861.934
08/10/2013  04:11:00      -15.278      -56.034       -8.944       26.008       32.764       22.121      676.423     1073.456      489.324        0.285        0.112       58.080       16.804        0.084      341.041       15.477      861.936
08/10/2013  04:12:00      -27.038      -33.617        2.356       39.208       25.945       17.815     1537.249      673.138      317.387        0.220        0.126       43.141        9.889        0.053      341.022       15.446      861.941
08/10/2013  04:13:00      -36.209      -90.150       -5.661       25.605       50.556       15.929      655.604     2555.937      253.746        0.647        0.173       97.150       14.625        0.023      340.969       15.357      861.939
08/10/2013  04:14:00      -56.446      -24.646        6.553       40.656       27.832       19.403     1652.884      774.595      376.491        0.332        0.140       61.592       18.974        0.095      340.889       15.222      861.938
08/10/2013  04:15:00      -34.681      -38.089        8.234       26.435       50.671       26.030      698.806     2567.592      677.546        0.333        0.197       51.513       29.839        0.336      340.871       15.192      861.941
08/10/2013  04:16:00      -44.853      -97.412       -9.132       40.298       43.894       23.981     1623.909     1926.719      575.105        0.785        0.206      107.242       21.528        0.040      340.955       15.332      861.948
08/10/2013  04:17:00      -33.490      -54.410       14.573       37.369       30.945       22.098     1396.424      957.611      488.305        0.357        0.142       63.891       13.581        0.045      340.934       15.297      861.954
08/10/2013  04:18:00       -9.286      -57.180       -8.413       24.471       25.900       16.959      598.846      670.808      287.595        0.249        0.078       57.929        9.330        0.026      340.885       15.213      861.955
08/10/2013  04:19:00      -25.936      -23.901        4.614       17.762       28.207       19.776      315.486      795.621      391.097        0.138        0.075       35.269       15.224        0.186      340.838       15.134      861.954
08/10/2013  04:20:00      -53.161      -55.969        5.695       61.615       37.298       24.475     3796.433     1391.107      599.019        0.589        0.289       77.192       22.830        0.087      340.837       15.133      861.947
08/10/2013  04:21:00      -57.772     -114.796        0.546       58.589       31.587       26.170     3432.671      997.729      684.882        1.081        0.256      128.513       16.345        0.016      340.889       15.221      861.951
08/10/2013  04:22:00      -30.298     -100.228      -15.746       52.519       25.135       23.393     2758.268      631.763      547.246        0.757        0.197      104.707       24.593        0.055      340.889       15.221      861.946
08/10/2013  04:23:00      -47.140      -49.332       13.985       42.850       48.187       39.192     1836.088     2321.950     1536.018        0.527        0.285       68.234       31.267        0.210      340.855       15.162      861.953
08/10/2013  04:24:00      -41.080      -78.421       -7.806       32.044       35.416       28.056     1026.846     1254.259      787.147        0.548        0.153       88.529       13.321        0.023      340.908       15.255      861.947
08/10/2013  04:25:00      -42.609      -86.423       -8.070       42.854       48.868       23.345     1836.475     2388.100      544.993        0.706        0.238       96.355       21.573        0.050      340.928       15.288      861.940
08/10/2013  04:26:00      -52.877      -52.074        6.640       35.845       41.737       21.349     1284.838     1742.006      455.780        0.452        0.174       74.213       18.892        0.065      340.877       15.201      861.931
08/10/2013  04:27:00      -39.764      -32.707       11.956       47.008       31.367       23.090     2209.723      983.915      533.154        0.326        0.186       51.487       13.853        0.072      340.814       15.095      861.941
08/10/2013  04:28:00      -20.740      -54.335        5.831       37.494       29.144       25.196     1405.815      849.394      634.854        0.315        0.145       58.159       25.290        0.189      340.865       15.181      861.963
08/10/2013  04:29:00      -54.792      -98.230       -7.311       56.280       47.328       21.970     3167.483     2239.959      482.672        0.930        0.295      112.478       24.542        0.048      340.937       15.302      861.981
08/10/2013  04:30:00      -28.295      -50.678        5.364       29.383       34.467       22.291      863.355     1187.945      496.869        0.297        0.127       58.042       17.845        0.095      340.881       15.207      861.994
08/10/2013  04:31:00      -66.494      -77.581       -8.012       31.755       24.153       17.243     1008.407      583.371      297.333        0.620        0.094      102.177       11.437        0.013      340.885       15.214      862.005
08/10/2013  04:32:00      -60.262      -79.068       -2.769       27.030       38.197       20.164      730.635     1458.983      406.590        0.624        0.130       99.414       11.507        0.013      340.897       15.235      862.014
08/10/2013  04:33:00      -23.773      -66.892        0.369       22.694       25.772       16.967      515.030      664.207      287.890        0.325        0.073       70.990       16.022        0.051      340.929       15.288      862.023
08/10/2013  04:34:00      -10.733      -19.039        1.371       11.191       19.788       14.969      125.249      391.563      224.063        0.061        0.037       21.856        8.928        0.167      340.837       15.132      862.021
08/10/2013  04:35:00        4.436      -33.016        1.628       22.401       18.475       13.864      501.809      341.309      192.212        0.107        0.052       33.312        6.403        0.037      340.932       15.295      862.018
08/10/2013  04:36:00      -35.153       10.080       13.464       26.828       17.060       17.585      719.758      291.052      309.218        0.142        0.066       36.570       13.249        0.131      340.831       15.123      862.023
08/10/2013  04:37:00      -11.730      -25.139        0.922       11.890       21.277       11.700      141.362      452.725      136.893        0.075        0.037       27.741       12.479        0.202      340.817       15.099      862.030
08/10/2013  04:38:00      -27.739      -42.102        5.782       24.140       23.490       18.483      582.738      551.758      341.627        0.203        0.074       50.419       19.685        0.152      340.822       15.106      862.046
08/10/2013  04:39:00      -52.043      -73.245       -2.172       24.458       24.048       17.720      598.183      578.285      314.000        0.478        0.075       89.852        8.653        0.009      340.810       15.087      862.042
08/10/2013  04:40:00       -8.593      -44.446       -7.903       30.067       19.501       16.029      904.006      380.271      256.937        0.183        0.077       45.269       14.131        0.097      340.839       15.137      862.040
08/10/2013  04:41:00        4.330      -64.687        2.439       23.920       17.212       15.286      572.159      296.249      233.677        0.266        0.055       64.832       13.950        0.046      340.881       15.207      862.049
08/10/2013  04:42:00        0.147      -21.137       11.996       16.695       24.996       12.842      278.712      624.812      164.911        0.083        0.053       21.137       14.044        0.441      340.760       15.003      862.056
08/10/2013  04:43:00       -2.773       -2.982        3.717       11.545       13.414       10.357      133.280      179.928      107.258        0.023        0.021        4.072        4.305        1.117      340.771       15.022      862.057
08/10/2013  04:44:00       15.527      -30.617       -4.596       32.773       39.200       27.529     1074.064     1536.659      757.829        0.228        0.168       34.329       18.543        0.292      340.793       15.059      862.058
08/10/2013  04:45:00       12.048      -42.291        6.547       37.410       54.958       33.420     1399.535     3020.389     1116.894        0.376        0.277       43.974       31.305        0.507      340.859       15.171      862.053
08/10/2013  04:46:00       -9.682      -19.428       33.021       35.581       37.647       33.269     1266.016     1417.292     1106.857        0.268        0.190       21.707       17.084        0.619      340.776       15.030      862.047
08/10/2013  04:47:00       -4.682       -0.870       18.295       20.468       17.440       15.038      418.954      304.147      226.129        0.065        0.047        4.763       13.240        7.728      340.650       14.817      862.043
08/10/2013  04:48:00       -6.913      -15.895       -2.426       11.678       16.665       12.379      136.374      277.717      153.242        0.044        0.028       17.333        9.523        0.302      340.683       14.873      862.046
08/10/2013  04:49:00       -6.558      -25.377       -5.126       16.302       18.261       11.204      265.767      333.468      125.528        0.072        0.036       26.211        3.709        0.020      340.720       14.936      862.033
08/10/2013  04:50:00      -43.093      -16.796        4.184       14.814       14.230        8.128      219.451      202.504       66.070        0.132        0.024       46.251        4.092        0.008      340.776       15.029      862.026
08/10/2013  04:51:00      -39.817      -80.431       -6.241       32.204       31.489       21.047     1037.088      991.540      442.980        0.528        0.124       89.747       11.670        0.017      340.840       15.137      862.006
08/10/2013  04:52:00      -17.982      -18.608        3.653       23.686       26.624       18.222      561.008      708.822      332.055        0.114        0.080       25.877       14.857        0.330      340.680       14.867      862.000
08/10/2013  04:53:00      -33.084      -26.848        2.889       30.306       19.827       18.257      918.469      393.091      333.327        0.173        0.082       42.607       10.657        0.063      340.777       15.030      862.002
08/10/2013  04:54:00      -24.469        5.381        2.805       40.711       17.960       15.152     1657.402      322.567      229.589        0.142        0.110       25.054       12.746        0.259      340.671       14.852      862.001
08/10/2013  04:55:00        4.701        7.170        2.421       13.940        8.379       10.253      194.326       70.211      105.131        0.022        0.018        8.574        5.110        0.355      340.586       14.710      861.994
08/10/2013  04:56:00      -25.192       -3.570        3.300       16.970       14.741        9.630      287.969      217.302       92.742        0.063        0.030       25.444        7.510        0.087      340.602       14.736      861.983
08/10/2013  04:57:00      -73.328       -2.864       -1.899       25.980       12.206       10.423      674.975      148.991      108.648        0.316        0.047       73.384       10.185        0.019      340.611       14.751      861.984
08/10/2013  04:58:00      -54.103      -15.439        0.131       28.512       15.909       11.054      812.939      253.082      122.197        0.218        0.059       56.262       12.129        0.046      340.509       14.580      861.997
08/10/2013  04:59:00      -14.520      -16.165        1.552       20.793       12.767        8.598      432.329      163.000       73.925        0.057        0.033       21.729        7.150        0.108      340.587       14.711      861.995
08/10/2013  05:00:00      -28.324      -15.390       -0.934       17.810       18.751       13.506      317.186      351.610      182.424        0.095        0.043       32.235       10.670        0.110      340.582       14.701      862.000
08/10/2013  05:01:00      -18.572      -17.057        4.870       23.511       17.680       12.384      552.781      312.599      153.356        0.084        0.051       25.216       14.183        0.316      340.491       14.550      862.003
08/10/2013  05:02:00        6.376      -11.477        6.925       10.599       12.673        7.572      112.332      160.600       57.337        0.028        0.017       13.129        5.598        0.182      340.540       14.631      862.016
08/10/2013  05:03:00      -28.024       -7.734        0.614       14.643       18.647        8.698      214.403      347.720       75.655        0.074        0.032       29.071        6.439        0.049      340.567       14.678      862.039
08/10/2013  05:04:00      -49.428      -23.361        1.669       17.189       16.286        9.469      295.471      265.246       89.660        0.182        0.033       54.670        4.416        0.007      340.447       14.473      862.054
08/10/2013  05:05:00      -37.494      -28.346        5.288       30.327       15.444       12.199      919.735      238.529      148.807        0.177        0.065       47.003        9.170        0.038      340.450       14.478      862.063
08/10/2013  05:06:00      -10.469      -29.657        7.206       27.865       16.570       13.590      776.448      274.566      184.695        0.114        0.062       31.451       11.509        0.134      340.482       14.533      862.070
08/10/2013  05:07:00        5.958       -4.816        9.688       14.699       18.472        8.181      216.055      341.205       66.924        0.039        0.031        7.661        6.166        0.648      340.423       14.434      862.068
08/10/2013  05:08:00       24.464       -5.111       -3.228       16.741       10.373       10.437      280.253      107.599      108.928        0.057        0.025       24.992        5.158        0.043      340.509       14.577      862.072
08/10/2013  05:09:00        4.596       -6.537        1.488       14.339       13.415        9.094      205.603      179.951       82.709        0.027        0.023        7.991        9.865        1.524      340.495       14.555      862.078
08/10/2013  05:10:00      -13.794      -19.927        4.544       18.225       15.055        7.181      332.152      226.645       51.560        0.061        0.031       24.236        9.298        0.147      340.556       14.658      862.084
08/10/2013  05:11:00      -40.830      -18.272        1.460       24.684       18.252       13.755      609.312      333.146      189.205        0.157        0.057       44.732        8.225        0.034      340.472       14.517      862.094
08/10/2013  05:12:00      -51.270      -30.306        6.125       24.038       15.808       13.941      577.847      249.907      194.341        0.230        0.051       59.558       10.059        0.029      340.400       14.394      862.103
08/10/2013  05:13:00       -7.906      -14.835       -2.638       24.412       19.321       10.352      595.955      373.287      107.169        0.068        0.054       16.810        4.396        0.068      340.359       14.325      862.107
08/10/2013  05:14:00       34.829       18.637        0.717        7.725        9.064        5.393       59.669       82.148       29.087        0.087        0.009       39.502        5.047        0.016      340.392       14.383      862.116
08/10/2013  05:15:00       20.321       22.098        5.688        9.995        5.288        4.524       99.897       27.966       20.463        0.054        0.007       30.021        2.034        0.005      340.504       14.573      862.130
08/10/2013  05:16:00       28.367       30.217       14.564       15.977       14.841       11.381      255.279      220.260      129.525        0.127        0.030       41.446        7.512        0.033      340.410       14.411      862.133
08/10/2013  05:17:00        0.694        7.579       -0.600       11.628        8.400        3.905      135.217       70.559       15.251        0.014        0.011        7.611        4.236        0.310      340.279       14.188      862.150
08/10/2013  05:18:00      -24.761       10.562       -3.934        9.952        7.449        4.204       99.052       55.481       17.674        0.046        0.009       26.919        3.194        0.014      340.456       14.490      862.163
08/10/2013  05:19:00      -73.630       12.728      -10.963       20.166       11.517        9.271      406.666      132.641       85.944        0.316        0.031       74.722        8.492        0.013      340.198       14.053      862.171
08/10/2013  05:20:00     -109.408      -10.477      -12.828       16.859       19.223       13.137      284.222      369.511      172.573        0.654        0.041      109.909       11.571        0.011      340.175       14.014      862.186
08/10/2013  05:21:00      -91.711      -24.499      -11.025       19.875       12.566        9.892      395.029      157.908       97.850        0.489        0.033       94.927        7.016        0.005      340.268       14.171      862.194
08/10/2013  05:22:00      -37.003      -35.584        0.684       14.532       12.336       11.051      211.187      152.171      122.132        0.156        0.024       51.337        5.169        0.010      340.214       14.080      862.210
08/10/2013  05:23:00      -34.650      -28.219       -1.655       24.689       14.375       14.704      609.552      206.643      216.193        0.152        0.052       44.687       12.348        0.076      340.349       14.308      862.236
08/10/2013  05:24:00      -68.529      -32.056       -0.450       26.424       16.261       14.267      698.213      264.407      203.559        0.344        0.058       75.656        9.129        0.015      340.222       14.093      862.256
08/10/2013  05:25:00      -16.690       -9.903        7.588       25.735       18.109       11.948      662.307      327.929      142.756        0.078        0.057       19.407       14.257        0.540      340.200       14.057      862.273
08/10/2013  05:26:00       20.256        9.550        2.083        6.997       11.457        8.049       48.955      131.274       64.794        0.038        0.012       22.394        4.327        0.037      340.373       14.351      862.267
08/10/2013  05:27:00       33.317       26.801        8.551       11.012        8.891       11.126      121.256       79.055      123.786        0.111        0.016       42.758        6.103        0.020      340.494       14.555      862.260
08/10/2013  05:28:00       23.410       -5.213        6.948       12.112       10.279        7.776      146.692      105.662       60.470        0.047        0.016       23.983        5.233        0.048      340.515       14.588      862.262
08/10/2013  05:29:00       -8.052        3.881      -10.267       26.998       11.166        7.511      728.917      124.677       56.413        0.055        0.046        8.939       10.793        1.458      340.663       14.838      862.253
08/10/2013  05:30:00     -102.374       12.324      -10.198       45.861       29.420       22.464     2103.231      865.517      504.626        0.710        0.174      103.113       22.354        0.047      340.047       13.796      862.259
08/10/2013  05:31:00      -97.220        2.479       -7.157       58.050       40.421       25.554     3369.815     1633.858      653.019        0.758        0.283       97.251       28.828        0.088      339.674       13.169      862.263
08/10/2013  05:32:00      -90.015       -2.279       -3.567       40.588       28.672       21.895     1647.381      822.080      479.372        0.553        0.147       90.044       20.551        0.052      339.757       13.310      862.270
08/10/2013  05:33:00      -58.299      -30.025       -1.562       20.667       27.423       16.756      427.112      752.031      280.764        0.288        0.073       65.577       11.153        0.029      339.797       13.376      862.278
08/10/2013  05:34:00      -25.338      -10.501       -1.101       16.178       13.649       11.568      261.713      186.292      133.813        0.067        0.029       27.428       10.439        0.145      339.779       13.346      862.279
08/10/2013  05:35:00      -66.317      -41.753       -5.627       18.533       17.981       11.724      343.454      323.313      137.457        0.349        0.040       78.366        7.633        0.009      339.996       13.711      862.279
08/10/2013  05:36:00      -60.403      -27.869       -7.497       17.457       14.011       11.864      304.762      196.314      140.749        0.256        0.032       66.522        8.786        0.017      339.941       13.620      862.282
08/10/2013  05:37:00      -48.838      -34.901       -7.282       17.891       15.180       11.538      320.071      230.438      133.134        0.217        0.034       60.026        2.291        0.001      339.891       13.536      862.285
08/10/2013  05:38:00      -35.916      -35.585       -0.557       28.871       13.490       15.168      833.535      181.979      230.076        0.190        0.062       50.559       16.379        0.105      339.831       13.435      862.296
08/10/2013  05:39:00      -61.190      -24.005        0.592       19.104       17.564       12.159      364.953      308.502      147.850        0.257        0.041       65.730       10.067        0.023      339.787       13.362      862.307
08/10/2013  05:40:00      -52.166      -38.306       -7.672       19.624       12.963       14.034      385.119      168.048      196.967        0.250        0.038       64.720       10.792        0.028      339.785       13.355      862.320
08/10/2013  05:41:00      -31.677      -25.630        0.720       22.034       13.793        7.315      485.487      190.245       53.507        0.119        0.036       40.747        7.029        0.030      339.809       13.397      862.314
08/10/2013  05:42:00      -28.025      -15.994       -7.402       15.900        6.630        6.116      252.813       43.959       37.408        0.072        0.017       32.267        5.330        0.027      340.132       13.941      862.308
08/10/2013  05:43:00      -46.353      -17.579       -6.930        6.252        4.010        3.624       39.089       16.077       13.134        0.129        0.003       49.575        1.884        0.001      340.419       14.427      862.309
08/10/2013  05:44:00      -59.240      -21.925      -10.724       11.389        9.494        5.983      129.713       90.143       35.800        0.218        0.013       63.167        4.248        0.005      340.104       13.895      862.319
08/10/2013  05:45:00      -67.607      -27.500      -10.913        8.754       11.910        8.962       76.636      141.855       80.322        0.287        0.015       72.986        4.221        0.003      339.984       13.692      862.325
08/10/2013  05:46:00      -56.371      -27.940       -7.002       13.941       10.593       10.846      194.353      112.203      117.631        0.222        0.021       62.915        4.694        0.006      339.969       13.665      862.334
08/10/2013  05:47:00      -32.751      -35.338       -9.052       10.836        8.374        5.460      117.410       70.132       29.810        0.131        0.011       48.181        3.247        0.005      340.120       13.922      862.341
08/10/2013  05:48:00      -39.331      -31.641       -5.178       16.141       12.090        6.203      260.533      146.163       38.472        0.151        0.022       50.479        3.886        0.006      340.217       14.085      862.342
08/10/2013  05:49:00      -68.170       -7.106      -11.358       11.497       13.815       10.429      132.189      190.851      108.760        0.263        0.022       68.540        6.200        0.008      340.110       13.903      862.361
08/10/2013  05:50:00      -78.318       -6.313       -9.470       21.897       17.824       13.944      479.466      317.682      194.427        0.363        0.050       78.572        9.328        0.014      339.772       13.334      862.365
08/10/2013  05:51:00      -67.378        7.454       -9.770       28.814       19.917       15.687      830.228      396.691      246.097        0.308        0.074       67.789       14.565        0.046      339.589       13.026      862.375
08/10/2013  05:52:00      -60.670       -6.736       -7.479       20.860       16.875       11.707      435.129      284.750      137.048        0.232        0.043       61.043        7.901        0.017      339.618       13.076      862.380
08/10/2013  05:53:00      -90.598      -12.525      -11.774       21.117       17.359       12.619      445.945      301.343      159.240        0.470        0.045       91.459       11.635        0.016      339.603       13.048      862.387
08/10/2013  05:54:00     -114.642       14.035       -7.961       40.781       32.567       21.745     1663.071     1060.612      472.839        0.830        0.160      115.498       18.375        0.025      339.564       12.983      862.406
08/10/2013  05:55:00      -89.401       23.461       -9.746       45.404       29.288       21.180     2061.518      857.767      448.612        0.600        0.168       92.428       22.399        0.059      339.699       13.212      862.423
08/10/2013  05:56:00      -40.831       -1.929       -8.101       29.728       16.593       13.768      883.741      275.343      189.555        0.154        0.067       40.877        6.980        0.029      339.594       13.034      862.429
08/10/2013  05:57:00      -69.117      -19.753       -3.136       39.439       33.516       15.705     1555.432     1123.320      246.639        0.405        0.146       71.884       18.555        0.067      339.806       13.393      862.437
08/10/2013  05:58:00      -58.856      -45.349       -4.704       21.418       17.406       11.602      458.725      302.965      134.599        0.322        0.045       74.300        5.554        0.006      339.784       13.353      862.443
08/10/2013  05:59:00      -80.929      -42.436      -11.647       25.465       18.373       15.060      648.491      337.564      226.798        0.485        0.061       91.381        6.843        0.006      339.658       13.143      862.457
08/10/2013  06:00:00      -99.614      -58.346       -7.717       34.837       29.642       16.202     1213.649      878.619      262.512        0.787        0.118      115.443       14.964        0.017      339.536       12.935      862.475
08/10/2013  06:01:00      -95.864      -54.909       -0.701       27.438       19.295       16.259      752.836      372.310      264.356        0.680        0.069      110.476       15.246        0.019      339.508       12.889      862.500
08/10/2013  06:02:00     -121.509      -27.134      -10.885       14.936       20.836       14.132      223.084      434.128      199.714        0.824        0.043      124.502       10.049        0.007      339.580       13.011      862.522
08/10/2013  06:03:00      -90.502      -39.171       -1.940       20.872       23.091       14.113      435.649      533.191      199.168        0.545        0.058       98.615       13.029        0.017      339.551       12.962      862.527
08/10/2013  06:04:00      -83.091      -31.630       -3.043       18.463       20.930       15.848      340.879      438.047      251.143        0.447        0.052       88.907       11.635        0.017      339.570       12.994      862.540
08/10/2013  06:05:00     -108.342      -10.353       -8.548       26.126       19.599       12.591      682.557      384.133      158.544        0.657        0.061      108.835       13.560        0.016      339.582       13.013      862.551
08/10/2013  06:06:00     -120.740        2.267      -15.074       21.902       18.364       15.146      479.700      337.240      229.387        0.793        0.052      120.761        9.842        0.007      339.576       13.006      862.549
08/10/2013  06:07:00     -125.037        1.125       -7.558       23.067       19.768       19.422      532.087      390.765      377.209        0.850        0.065      125.042       13.200        0.011      339.505       12.884      862.558
08/10/2013  06:08:00     -123.294       -1.737      -12.995       22.512       17.461       15.661      506.810      304.885      245.268        0.821        0.053      123.306        8.419        0.005      339.504       12.882      862.569
08/10/2013  06:09:00      -80.982       -5.086       -6.416       37.249       21.818       15.905     1387.505      476.027      252.975        0.437        0.106       81.141       18.066        0.050      339.497       12.869      862.572
08/10/2013  06:10:00      -65.245        0.680       -4.532       41.428       36.625       19.481     1716.246     1341.397      379.509        0.386        0.172       65.248       17.823        0.075      339.525       12.919      862.565
08/10/2013  06:11:00      -98.588      -19.805       -4.346       25.834       27.151       19.537      667.416      737.180      381.687        0.596        0.089      100.557       12.734        0.016      339.627       13.089      862.563
08/10/2013  06:12:00     -142.182        5.271       -5.736       46.862       26.604       24.882     2196.089      707.751      619.121        1.190        0.176      142.280       25.497        0.032      339.549       12.958      862.560
08/10/2013  06:13:00     -160.836       11.143      -12.098       29.181       32.385       24.269      851.520     1048.765      588.986        1.431        0.124      161.222       20.477        0.016      339.462       12.811      862.554
08/10/2013  06:14:00     -154.472       -1.295      -11.857       38.079       36.067       23.249     1450.009     1300.819      540.520        1.365        0.165      154.477       23.085        0.022      339.475       12.835      862.548
08/10/2013  06:15:00      -97.650       -7.255       -7.842       37.676       32.510       22.041     1419.457     1056.915      485.804        0.631        0.148       97.919       21.475        0.048      339.389       12.687      862.561
08/10/2013  06:16:00      -73.476       -2.794       -8.646       20.366       29.096       18.398      414.757      846.565      338.479        0.354        0.080       73.529       11.419        0.024      339.486       12.851      862.571
08/10/2013  06:17:00      -78.214      -14.531       -9.074       25.693       22.501       16.203      660.115      506.302      262.540        0.392        0.071       79.552       10.903        0.019      339.455       12.800      862.576
08/10/2013  06:18:00      -84.518      -13.735       -5.517       32.125       30.563       15.834     1032.048      934.095      250.709        0.479        0.111       85.627       10.804        0.016      339.463       12.813      862.579
08/10/2013  06:19:00      -91.698      -31.616        0.392       36.162       28.432       16.452     1307.702      808.390      270.683        0.590        0.119       96.995       16.383        0.029      339.553       12.966      862.586
08/10/2013  06:20:00      -58.792        0.627        0.820       39.629       21.973       16.456     1570.458      482.813      270.787        0.289        0.116       58.795       17.346        0.087      339.494       12.866      862.590
08/10/2013  06:21:00      -83.777       -0.133       -8.954       43.337       29.574       17.342     1878.057      874.601      300.738        0.508        0.153       83.778       20.767        0.061      339.442       12.779      862.587
08/10/2013  06:22:00     -107.457        4.200       -4.599       37.788       25.309       19.918     1427.896      640.534      396.728        0.703        0.123      107.539       19.774        0.034      339.527       12.922      862.569
08/10/2013  06:23:00     -129.242        3.282       -6.492       39.100       42.464       23.719     1528.838     1803.156      562.602        1.032        0.195      129.284       20.524        0.025      339.547       12.955      862.576
08/10/2013  06:24:00      -70.557      -19.018        3.957       39.747       38.671       27.144     1579.808     1495.468      736.807        0.458        0.191       73.076       23.397        0.103      339.534       12.932      862.579
08/10/2013  06:25:00     -123.851        5.122       -5.815       59.934       22.629       24.037     3592.030      512.078      577.760        1.004        0.234      123.957       32.650        0.069      339.552       12.962      862.580
08/10/2013  06:26:00     -128.621      -25.559      -12.651       24.458       16.598       14.147      598.172      275.484      200.146        0.922        0.054      131.136       13.108        0.010      339.546       12.954      862.586
08/10/2013  06:27:00     -124.457      -30.130       -9.971       22.023       19.767       15.892      485.018      390.721      252.560        0.881        0.056      128.052       12.712        0.010      339.590       13.027      862.597
08/10/2013  06:28:00     -112.862      -13.232       -7.601       23.226       23.017       13.757      539.449      529.776      189.254        0.711        0.063      113.635       11.112        0.010      339.657       13.139      862.618
08/10/2013  06:29:00      -91.524       -9.644      -10.356       27.794       28.056       10.719      772.492      787.142      114.903        0.513        0.084       92.031        9.313        0.010      339.629       13.092      862.635
08/10/2013  06:30:00      -96.507        6.953      -12.425       23.234       17.841       15.374      539.809      318.305      236.371        0.531        0.055       96.757       12.109        0.016      339.595       13.037      862.650
08/10/2013  06:31:00     -105.226      -11.934      -11.383       28.039       20.476       15.774      786.174      419.275      248.834        0.640        0.073      105.900       15.032        0.020      339.551       12.962      862.651
08/10/2013  06:32:00      -95.683        8.575       -7.287       20.664       16.417       13.363      426.998      269.522      178.576        0.508        0.044       96.066       12.664        0.017      339.604       13.050      862.649
08/10/2013  06:33:00      -72.765        8.334       -2.357       25.921       20.472       14.056      671.881      419.117      197.570        0.333        0.064       73.241        7.635        0.011      339.721       13.249      862.647
08/10/2013  06:34:00      -73.625       -7.405       -4.233       15.920       17.614       13.876      253.457      310.238      192.544        0.312        0.038       73.997       10.546        0.020      339.786       13.360      862.646
08/10/2013  06:35:00      -75.037       -7.924       -4.029       22.854       16.195       11.004      522.290      262.270      121.089        0.331        0.045       75.454        9.570        0.016      339.911       13.569      862.655
08/10/2013  06:36:00      -48.727      -32.056        4.024       26.390       26.536       12.098      696.444      704.169      146.355        0.248        0.077       58.326        9.895        0.029      339.975       13.678      862.666
08/10/2013  06:37:00      -44.087      -18.358       -3.259       19.974        9.762       11.530      398.949       95.300      132.936        0.146        0.031       47.757       11.487        0.058      340.018       13.750      862.680
08/10/2013  06:38:00      -42.257      -25.443       -1.803       13.418       10.429        8.833      180.033      108.768       78.030        0.140        0.018       49.326        4.562        0.009      340.004       13.725      862.687
08/10/2013  06:39:00      -54.767      -13.958       -9.279       15.107       11.655        8.274      228.226      135.835       68.462        0.186        0.022       56.518        7.976        0.020      339.988       13.698      862.685
08/10/2013  06:40:00      -70.000      -21.756      -11.967       12.177       13.864        7.958      148.283      192.217       63.327        0.296        0.020       73.303        5.955        0.007      339.931       13.603      862.682
08/10/2013  06:41:00     -115.309      -50.211       -8.016       22.074       14.447        9.357      487.252      208.712       87.559        0.833        0.039      125.767        5.767        0.002      339.935       13.609      862.681
08/10/2013  06:42:00     -113.871      -35.482       -8.060       17.323       18.445        9.122      300.088      340.205       83.216        0.751        0.036      119.271        7.772        0.004      339.949       13.631      862.680
08/10/2013  06:43:00     -149.543      -45.911      -11.671       15.281       17.130       12.713      233.518      293.429      161.608        1.265        0.034      156.432        8.604        0.003      339.905       13.560      862.674
08/10/2013  06:44:00      -96.385      -52.760       -2.310       32.911       22.963       16.509     1083.107      527.286      272.558        0.698        0.094      109.880       11.248        0.010      339.916       13.578      862.685
08/10/2013  06:45:00      -51.604      -29.682        5.777       40.908       22.450       22.284     1673.443      504.016      496.583        0.313        0.134       59.531       21.355        0.129      339.921       13.587      862.691
08/10/2013  06:46:00      -71.667      -62.334       -3.939       36.915       27.463       20.187     1362.729      754.235      407.522        0.578        0.126       94.983       18.586        0.038      339.957       13.646      862.686
08/10/2013  06:47:00      -69.703      -47.757        6.273       45.388       28.738       18.346     2060.109      825.881      336.587        0.520        0.161       84.494       14.834        0.031      339.995       13.713      862.695
08/10/2013  06:48:00      -69.487      -49.057       -0.426       41.257       33.813       21.173     1702.154     1143.353      448.312        0.526        0.165       85.060       16.020        0.035      340.000       13.719      862.690
08/10/2013  06:49:00      -90.860      -27.792       -4.857       26.917       32.098       15.778      724.532     1030.274      248.934        0.553        0.100       95.016       13.192        0.019      340.025       13.761      862.680
08/10/2013  06:50:00      -94.182      -19.634       -2.573       37.411       21.936       15.789     1399.571      481.187      249.277        0.570        0.107       96.207       18.322        0.036      339.990       13.703      862.679
08/10/2013  06:51:00      -83.171      -32.058       -1.286       26.545       34.981       14.730      704.644     1223.648      216.974        0.505        0.107       89.135       11.847        0.018      340.036       13.781      862.662
08/10/2013  06:52:00      -60.295      -25.753       -3.067       29.365       14.019       10.315      862.292      196.541      106.390        0.274        0.058       65.564       12.494        0.036      340.096       13.882      862.648
08/10/2013  06:53:00      -38.360      -21.647       -3.388       21.339       12.287        7.652      455.345      150.977       58.556        0.131        0.033       44.046        7.534        0.029      340.133       13.944      862.646
08/10/2013  06:54:00      -12.296      -19.361       -0.111       16.721       14.922       10.581      279.577      222.668      111.948        0.057        0.031       22.935        9.355        0.166      340.220       14.090      862.643
08/10/2013  06:55:00      -16.921      -37.614        4.151       23.131       33.541       16.210      535.022     1124.983      262.757        0.182        0.096       41.245       19.214        0.217      340.262       14.161      862.657
08/10/2013  06:56:00      -56.690      -67.226       -9.856       19.185       13.615       11.959      368.046      185.368      143.027        0.426        0.035       87.938        6.367        0.005      340.027       13.765      862.669
08/10/2013  06:57:00      -44.853      -49.874        0.023       30.589       29.037       21.692      935.702      843.137      470.544        0.337        0.112       67.077       22.107        0.109      340.130       13.937      862.680
08/10/2013  06:58:00      -52.210      -62.782        7.581       40.790       32.749       24.781     1663.803     1072.526      614.095        0.504        0.168       81.655       24.514        0.090      340.098       13.884      862.676
08/10/2013  06:59:00      -50.970     -119.848        7.005       36.036       62.355       34.850     1298.564     3888.105     1214.510        1.170        0.320      130.236       27.539        0.045      339.933       13.606      862.675
08/10/2013  07:00:00      -40.165      -29.011       19.852       52.122       36.782       27.226     2716.726     1352.929      741.235        0.383        0.241       49.546       24.878        0.252      339.930       13.601      862.665
08/10/2013  07:01:00     -111.884      -76.712       -7.316       34.806       36.805       23.408     1211.484     1354.583      547.947        1.078        0.156      135.657       18.944        0.020      339.897       13.544      862.656
08/10/2013  07:02:00     -127.510      -58.736       -5.511       26.392       28.189       17.328      696.555      794.622      300.244        1.076        0.090      140.388       16.250        0.013      339.966       13.663      862.652
08/10/2013  07:03:00      -39.315      -23.037        8.410       42.916       18.292       18.109     1841.800      334.590      327.926        0.233        0.125       45.567       18.855        0.171      340.047       13.798      862.664
08/10/2013  07:04:00      -42.012      -82.934        6.952       47.044       60.823       21.385     2213.138     3699.485      457.332        0.753        0.318       92.968       27.690        0.089      340.075       13.844      862.676
08/10/2013  07:05:00      -34.430      -29.043       11.431       38.852       40.268       23.672     1509.498     1621.505      560.373        0.292        0.185       45.043       21.917        0.237      340.032       13.771      862.674
08/10/2013  07:06:00     -104.370      -68.484       -2.603       48.901       29.170       29.958     2391.272      850.880      897.497        0.986        0.207      124.832       26.836        0.046      340.024       13.759      862.669
08/10/2013  07:07:00      -78.291      -49.604        6.572       36.838       28.652       17.857     1357.019      820.964      318.879        0.556        0.125       92.683       19.638        0.045      340.060       13.821      862.656
08/10/2013  07:08:00      -52.367      -49.258        4.615       35.492       28.776       21.278     1259.670      828.065      452.751        0.386        0.127       71.893       20.378        0.080      340.029       13.769      862.666
08/10/2013  07:09:00      -74.270      -90.828       -8.364       31.423       26.010       14.086      987.407      676.541      198.427        0.785        0.093      117.328        7.491        0.004      340.036       13.781      862.666
08/10/2013  07:10:00      -54.492      -38.201       -7.940       28.572       23.343       22.384      816.333      544.908      501.023        0.318        0.093       66.548        9.104        0.019      340.061       13.822      862.680
08/10/2013  07:11:00      -70.689      -39.187       -3.624       36.715       24.892       16.546     1347.969      619.619      273.754        0.439        0.112       80.824       15.183        0.035      340.059       13.819      862.690
08/10/2013  07:12:00      -49.483      -39.037        3.424       21.348       16.877       14.347      455.744      284.845      205.841        0.247        0.047       63.027       10.795        0.029      340.123       13.926      862.699
08/10/2013  07:13:00      -29.715      -41.542        5.781       35.260       20.701       17.055     1243.261      428.532      290.861        0.230        0.098       51.075       16.923        0.110      340.142       13.957      862.716
08/10/2013  07:14:00      -50.876      -39.012        1.142       12.377       21.003       10.676      153.202      441.109      113.972        0.241        0.035       64.112        3.252        0.003      340.167       14.000      862.702
08/10/2013  07:15:00       -2.763      -49.722        2.529       44.464       20.396       15.477     1977.074      416.016      239.549        0.256        0.132       49.799        9.078        0.033      340.103       13.892      862.718
08/10/2013  07:16:00       28.677      -43.674       -2.092       19.040       24.525       20.156      362.518      601.471      406.254        0.205        0.069       52.248       12.821        0.060      340.071       13.837      862.726
08/10/2013  07:17:00        6.643      -12.938       17.094       20.993       17.437       14.186      440.720      304.062      201.256        0.072        0.047       14.543        7.813        0.289      340.122       13.924      862.730
08/10/2013  07:18:00       -1.429      -34.594        0.071       20.963       16.456       15.452      439.448      270.802      238.756        0.107        0.047       34.623        5.699        0.027      339.851       13.468      862.747
08/10/2013  07:19:00        6.608      -15.766       -0.389       11.530       11.758       16.613      132.946      138.245      275.993        0.042        0.027       17.095        5.752        0.113      340.086       13.863      862.758
08/10/2013  07:20:00      -28.138      -22.088        0.989       20.664       17.504       11.946      426.991      306.390      142.709        0.108        0.044       35.772       10.320        0.083      340.132       13.942      862.749
08/10/2013  07:21:00      -24.246      -15.145        5.642       40.281       21.913       16.737     1622.526      480.168      280.131        0.162        0.119       28.587       14.145        0.245      340.329       14.272      862.759
08/10/2013  07:22:00      -51.946      -27.422       -2.667       29.352       15.741       12.771      861.513      247.782      163.110        0.236        0.064       58.740        7.125        0.015      340.242       14.126      862.760
08/10/2013  07:23:00      -48.326      -29.024        1.621       18.463       11.143        8.185      340.894      124.167       66.997        0.186        0.027       56.372        8.062        0.020      340.228       14.103      862.758
08/10/2013  07:24:00      -71.330      -37.079       -1.156       23.608       12.334        9.192      557.333      152.139       84.495        0.363        0.040       80.391       10.425        0.017      340.248       14.137      862.774
08/10/2013  07:25:00     -102.553      -43.099       -1.429       19.012       15.451       11.236      361.451      238.733      126.237        0.655        0.036      111.241        9.972        0.008      340.239       14.120      862.774
08/10/2013  07:26:00      -59.232      -39.144       -1.149       37.147       18.873       14.284     1379.906      356.173      204.028        0.349        0.097       70.998       13.380        0.036      340.313       14.247      862.785
08/10/2013  07:27:00      -57.322      -42.186       -0.856       32.177       18.913       18.369     1035.373      357.709      337.432        0.340        0.087       71.172       19.074        0.072      340.356       14.320      862.797
08/10/2013  07:28:00      -72.192      -38.099       -3.469       28.708       22.299       13.946      824.142      497.246      194.500        0.410        0.076       81.629       15.814        0.038      340.392       14.381      862.803
08/10/2013  07:29:00      -78.572      -42.988        1.868       34.153       26.613       19.471     1166.438      708.266      379.119        0.514        0.113       89.563       19.239        0.046      340.454       14.483      862.804
08/10/2013  07:30:00      -69.024      -68.224      -10.762       42.773       23.719       22.269     1829.562      562.605      495.887        0.621        0.144       97.050       16.089        0.027      340.481       14.531      862.801
08/10/2013  07:31:00      -53.184      -61.432        0.360       36.781       25.151       20.618     1352.875      632.559      425.095        0.451        0.121       81.255       21.121        0.068      340.496       14.557      862.817
08/10/2013  07:32:00      -50.980      -42.153        4.028       27.602       30.414       20.340      761.886      925.035      413.724        0.325        0.105       66.150       15.335        0.054      340.450       14.478      862.820
08/10/2013  07:33:00      -41.649      -50.994        3.231       26.139       25.253       17.427      683.232      637.704      303.695        0.298        0.081       65.841       18.700        0.081      340.490       14.546      862.833
08/10/2013  07:34:00      -55.710      -63.943       -5.752       25.744       23.473       17.849      662.755      550.984      318.588        0.438        0.077       84.807       14.856        0.031      340.442       14.464      862.832
08/10/2013  07:35:00      -65.629      -43.938        3.953       40.003       31.014       21.708     1600.253      961.861      471.227        0.464        0.152       78.979       22.152        0.079      340.434       14.451      862.842
08/10/2013  07:36:00      -89.135      -78.455        3.735       47.427       31.148       25.105     2249.304      970.228      630.250        0.898        0.192      118.745       26.793        0.051      340.405       14.402      862.835
08/10/2013  07:37:00     -105.170      -84.069       -5.928       32.768       27.764       24.840     1073.757      770.822      617.044        1.031        0.123      134.641       22.044        0.027      340.368       14.342      862.836
08/10/2013  07:38:00      -80.652      -68.688        6.441       44.097       43.403       24.373     1944.509     1883.839      594.043        0.784        0.221      105.938       22.151        0.044      340.315       14.251      862.831
08/10/2013  07:39:00     -116.328     -107.353       -5.357       54.289       47.955       27.935     2947.287     2299.695      780.381        1.556        0.301      158.293       30.895        0.038      340.206       14.065      862.838
08/10/2013  07:40:00     -134.970     -135.565       -5.437       41.476       42.768       27.474     1720.244     1829.068      754.811        2.046        0.215      191.298       23.353        0.015      340.144       13.961      862.839
08/10/2013  07:41:00     -128.157     -125.281      -11.838       33.185       32.468       20.918     1101.264     1054.156      437.553        1.743        0.130      179.220       18.050        0.010      340.198       14.052      862.849
08/10/2013  07:42:00     -106.883     -103.259       -9.501       43.724       37.490       27.786     1911.755     1405.486      772.055        1.313        0.204      148.615       26.128        0.031      340.254       14.148      862.852
08/10/2013  07:43:00      -74.876     -101.412       -0.511       41.401       35.887       23.548     1714.043     1287.899      554.486        0.972        0.178      126.059       20.128        0.025      340.291       14.210      862.862
08/10/2013  07:44:00      -59.210      -76.351        9.455       54.811       44.813       36.939     3004.224     2008.224     1364.462        0.790        0.319       96.620       33.919        0.123      340.287       14.203      862.865
08/10/2013  07:45:00     -150.509     -119.382      -12.620       45.862       36.965       32.571     2103.292     1366.390     1060.901        2.080        0.227      192.106       26.000        0.018      340.212       14.075      862.878
08/10/2013  07:46:00     -146.653     -103.237       -4.963       33.170       57.579       26.692     1100.261     3315.327      712.443        1.866        0.256      179.346       15.586        0.008      340.213       14.077      862.886
08/10/2013  07:47:00     -132.156     -118.145       -2.460       58.763       61.495       35.725     3453.120     3781.648     1276.291        1.997        0.426      177.266       26.864        0.023      340.223       14.093      862.896
08/10/2013  07:48:00     -163.486     -137.604       -9.793       61.062       49.147       41.184     3728.527     2415.379     1696.091        2.680        0.392      213.688       27.190        0.016      340.188       14.032      862.904
08/10/2013  07:49:00     -136.774     -113.072      -13.025       70.390       52.414       31.570     4954.744     2747.181      996.678        2.018        0.435      177.461       27.386        0.024      340.199       14.052      862.895
08/10/2013  07:50:00     -148.697     -131.426       -2.309       45.429       45.427       29.410     2063.753     2063.579      864.968        2.219        0.250      198.452       23.413        0.014      340.202       14.056      862.905
08/10/2013  07:51:00     -142.989      -88.482      -10.525       39.908       37.928       25.477     1592.624     1438.524      649.101        1.603        0.184      168.152       16.355        0.009      340.277       14.186      862.913
08/10/2013  07:52:00     -153.998     -122.437       -3.174       51.841       41.866       37.611     2687.457     1752.780     1414.595        2.228        0.293      196.739       30.806        0.025      340.245       14.129      862.909
08/10/2013  07:53:00      -99.425      -75.406        7.065       73.117       55.761       43.382     5346.108     3109.268     1881.968        1.298        0.517      124.785       44.401        0.127      340.303       14.231      862.920
08/10/2013  07:54:00     -116.060      -80.272       -0.154       60.279       48.971       26.039     3633.537     2398.183      678.043        1.331        0.335      141.115       21.799        0.024      340.319       14.257      862.932
08/10/2013  07:55:00      -96.489      -78.182       -0.957       51.634       48.807       30.521     2666.074     2382.108      931.522        1.070        0.299      124.188       22.015        0.031      340.308       14.238      862.925
08/10/2013  07:56:00      -55.295      -72.142       -3.344       57.217       50.295       25.516     3273.762     2529.554      651.046        0.736        0.323       90.895       18.290        0.040      340.356       14.320      862.919
08/10/2013  07:57:00      -91.053      -73.322       -3.864       44.634       40.408       25.275     1992.172     1632.787      638.801        0.897        0.213      116.905       10.950        0.009      340.351       14.312      862.916
08/10/2013  07:58:00     -100.043      -51.516       -1.990       51.470       38.561       33.815     2649.122     1486.954     1143.437        0.897        0.264      112.528       26.009        0.053      340.375       14.354      862.915
08/10/2013  07:59:00      -84.201      -66.698       -4.158       51.153       40.868       32.751     2616.657     1670.156     1072.599        0.846        0.268      107.417       24.916        0.054      340.456       14.488      862.910
08/10/2013  08:00:00      -59.098      -72.666        7.514       41.160       37.032       24.782     1694.140     1371.393      614.131        0.625        0.184       93.664       23.241        0.062      340.491       14.547      862.920
08/10/2013  08:01:00      -69.953      -90.173       -6.133       31.791       33.148       22.129     1010.650     1098.784      489.707        0.783        0.130      114.126       18.482        0.026      340.517       14.592      862.927
08/10/2013  08:02:00      -67.252      -67.135       -4.978       30.166       24.673       14.683      910.017      608.744      215.585        0.539        0.087       95.026       12.502        0.017      340.568       14.679      862.939
08/10/2013  08:03:00      -91.013      -52.856       -4.157       35.177       35.321       23.009     1237.400     1247.561      529.435        0.705        0.151      105.247       15.393        0.021      340.606       14.742      862.945
08/10/2013  08:04:00      -78.190      -43.968        6.390       39.257       34.127       21.950     1541.096     1164.636      481.792        0.564        0.159       89.704       19.426        0.047      340.707       14.913      862.948
08/10/2013  08:05:00      -66.992      -40.568        5.832       53.048       33.460       22.631     2814.121     1119.547      512.145        0.531        0.222       78.318       24.181        0.095      340.814       15.094      862.961
08/10/2013  08:06:00     -113.361      -63.389        2.993       63.717       47.523       26.778     4059.814     2258.468      717.072        1.196        0.352      129.880       30.759        0.056      340.820       15.104      862.960
08/10/2013  08:07:00      -59.867      -57.583        8.004       53.429       40.071       21.077     2854.613     1605.674      444.259        0.593        0.245       83.065       24.674        0.088      340.920       15.273      862.961
08/10/2013  08:08:00      -80.565      -65.916        5.087       46.318       36.874       24.066     2145.353     1359.678      579.152        0.747        0.204      104.095       23.356        0.050      340.854       15.162      862.966
08/10/2013  08:09:00      -80.163      -93.970       -8.956       28.386       34.110       17.142      805.772     1163.474      293.832        0.880        0.113      123.517       15.368        0.015      340.851       15.158      862.964
08/10/2013  08:10:00      -97.142      -82.670       -4.878       38.633       33.746       23.843     1492.499     1138.762      568.493        0.975        0.160      127.557       22.258        0.030      340.909       15.256      862.978
08/10/2013  08:11:00      -81.945      -56.660        2.951       53.639       33.158       28.794     2877.098     1099.423      829.120        0.737        0.240       99.626       30.201        0.092      341.044       15.483      862.991
08/10/2013  08:12:00      -34.010      -17.373       14.358       37.747       25.489       19.097     1424.807      649.669      364.693        0.205        0.122       38.190       23.945        0.393      341.555       16.351      863.003
08/10/2013  08:13:00      -32.650      -27.594        6.372       24.944       24.042       16.142      622.179      578.027      260.565        0.166        0.073       42.749       14.226        0.111      341.206       15.758      863.016
08/10/2013  08:14:00      -30.572      -99.550        8.209       20.195       38.244       18.006      407.825     1462.595      324.215        0.655        0.110      104.139       20.538        0.039      341.059       15.510      863.027
08/10/2013  08:15:00      -41.687     -127.677        1.674       10.686       24.286        7.506      114.191      589.792       56.339        0.940        0.038      134.310        6.097        0.002      340.982       15.378      863.035
08/10/2013  08:16:00      -44.468      -68.545        0.421       32.728       21.083       20.430     1071.126      444.497      417.371        0.430        0.097       81.706       14.590        0.032      341.152       15.668      863.030
08/10/2013  08:17:00      -75.671      -58.674      -13.743       30.604       20.203       13.958      936.620      408.166      194.837        0.545        0.077       95.754       12.071        0.016      341.110       15.595      863.024
08/10/2013  08:18:00      -45.063      -49.063        3.719       25.378       31.085       18.957      644.034      966.253      359.384        0.321        0.098       66.618       17.925        0.072      341.173       15.703      863.030
08/10/2013  08:19:00      -58.409      -52.984       -3.647       27.831       19.053       17.629      774.579      363.022      310.781        0.384        0.072       78.860       17.081        0.047      341.211       15.766      863.036
08/10/2013  08:20:00      -33.250      -81.277        1.657       24.340       25.324       19.684      592.451      641.284      387.456        0.467        0.081       87.815       17.623        0.040      341.246       15.827      863.038
08/10/2013  08:21:00      -32.100     -100.244       -2.156       18.499       16.422       10.734      342.195      269.666      115.221        0.591        0.036      105.258        8.817        0.007      341.246       15.826      863.050
08/10/2013  08:22:00      -48.176      -70.965       -0.694       24.480       21.088       13.144      599.256      444.701      172.766        0.429        0.061       85.773       13.210        0.024      341.325       15.960      863.053
08/10/2013  08:23:00      -69.934      -51.106      -11.713       15.804       14.445       11.245      249.781      208.661      126.451        0.411        0.029       86.617        8.362        0.009      341.295       15.911      863.051
08/10/2013  08:24:00      -29.270      -27.552        1.618       20.976       18.747       11.168      440.007      351.468      124.730        0.127        0.046       40.198       13.436        0.112      341.377       16.048      863.053
08/10/2013  08:25:00      -25.215       -2.613        5.745       24.840       15.486       14.147      617.037      239.808      200.142        0.087        0.053       25.350       12.209        0.232      341.603       16.430      863.061
08/10/2013  08:26:00       20.731      -16.125        8.740       24.854       25.670       23.716      617.740      658.967      562.458        0.130        0.092       26.264       16.365        0.388      341.320       15.952      863.067
08/10/2013  08:27:00      -29.204      -36.161       -2.524       35.367       20.647       15.317     1250.816      426.300      234.607        0.204        0.096       46.481       13.224        0.081      341.256       15.844      863.073
08/10/2013  08:28:00      -46.820      -27.140        3.328       37.217       19.607        9.922     1385.113      384.439       98.451        0.240        0.093       54.117       15.643        0.084      341.555       16.348      863.074
08/10/2013  08:29:00      -49.949      -39.554       -0.511       16.939       15.695       10.232      286.936      246.320      104.686        0.235        0.032       63.714        8.616        0.018      341.471       16.206      863.078
08/10/2013  08:30:00      -24.925       -3.132       14.455       19.366       17.583       16.111      375.057      309.160      259.571        0.089        0.047       25.121       14.597        0.338      341.772       16.717      863.083
08/10/2013  08:31:00      -12.103       -5.453       10.770       14.745       12.489       12.240      217.402      155.977      149.818        0.041        0.026       13.275       11.604        0.764      341.774       16.720      863.087
08/10/2013  08:32:00       20.466       -5.299       12.106       24.095       15.088       21.039      580.589      227.645      442.646        0.092        0.063       21.141       17.448        0.681      341.460       16.188      863.084
08/10/2013  08:33:00      -18.412       -8.331       -0.721       23.233       13.570       19.640      539.769      184.151      385.724        0.076        0.055       20.210        7.637        0.143      341.555       16.349      863.086
08/10/2013  08:34:00      -22.238      -10.372        4.331       12.225       17.601       13.690      149.448      309.782      187.411        0.063        0.032       24.538        7.644        0.097      341.448       16.167      863.088
08/10/2013  08:35:00        9.583      -25.509        4.435       29.578       28.024       26.169      874.868      785.348      684.824        0.155        0.117       27.250       18.862        0.479      341.612       16.445      863.090
08/10/2013  08:36:00      -14.725       -5.904       15.065       32.713       31.107       22.740     1070.152      967.617      517.126        0.152        0.128       15.864       17.727        1.249      341.580       16.391      863.093
08/10/2013  08:37:00      -24.199        6.214       -2.597       33.823       24.352       20.809     1144.013      592.996      433.014        0.140        0.109       24.984       20.939        0.702      341.648       16.507      863.112
08/10/2013  08:38:00       -8.247        3.310        8.649       29.454       14.122       18.031      867.563      199.427      325.122        0.077        0.070        8.886       15.423        3.013      341.822       16.802      863.115
08/10/2013  08:39:00      -47.722        1.617       -5.626       31.848       24.531       21.012     1014.307      601.759      441.495        0.218        0.103       47.750       13.534        0.080      341.568       16.369      863.128
08/10/2013  08:40:00       -3.062      -10.282       12.617       11.709       16.228       13.027      137.102      263.350      169.706        0.042        0.029       10.729        9.957        0.861      342.095       17.265      863.137
08/10/2013  08:41:00      -21.916       11.897      -14.851       29.618       28.282       17.110      877.212      799.876      292.756        0.141        0.098       24.937       18.600        0.556      341.633       16.482      863.139
08/10/2013  08:42:00      -36.524        9.237       -3.060       22.319       12.131       13.530      498.159      147.171      183.071        0.113        0.041       37.674        9.277        0.061      341.678       16.558      863.141
08/10/2013  08:43:00      -26.177       -3.392       10.797       28.207       17.409       21.553      795.653      303.072      464.548        0.119        0.078       26.396       16.566        0.394      342.033       17.160      863.140
08/10/2013  08:44:00      -19.234       13.889       -3.142       18.292       16.478       22.724      334.583      271.510      516.392        0.085        0.056       23.724       13.280        0.313      341.795       16.756      863.126
08/10/2013  08:45:00      -15.604       14.437        4.794       17.050       15.793       17.260      290.708      249.414      297.919        0.066        0.042       21.258        7.892        0.138      341.913       16.956      863.131
08/10/2013  08:46:00       35.301       -3.153       17.600       33.521       22.665       26.069     1123.652      513.718      679.579        0.194        0.116       35.442       12.537        0.125      341.821       16.802      863.124
08/10/2013  08:47:00       45.871       -5.523       14.768       42.674       38.732       35.853     1821.073     1500.139     1285.439        0.348        0.230       46.202       24.259        0.276      341.491       16.241      863.120
08/10/2013  08:48:00       56.098       17.050       27.507       33.508       23.331       32.370     1122.814      544.329     1047.822        0.345        0.136       58.632       18.053        0.095      341.729       16.645      863.102
08/10/2013  08:49:00       -2.713       21.459       38.565       29.074       30.463       21.357      845.322      928.014      456.125        0.209        0.111       21.630       17.111        0.626      342.032       17.157      863.101
08/10/2013  08:50:00        7.043        6.535       24.397       18.906       27.980       24.836      357.452      782.871      616.819        0.122        0.088        9.608       20.689        4.637      341.940       17.000      863.095
08/10/2013  08:51:00        5.085       24.983       16.058       19.319       21.934       18.325      373.224      481.111      335.798        0.105        0.060       25.495        6.451        0.064      341.972       17.057      863.085
08/10/2013  08:52:00       -5.358       25.294       21.099       13.850       35.331       18.203      191.831     1248.249      331.338        0.144        0.089       25.855       20.259        0.614      342.249       17.528      863.079
08/10/2013  08:53:00       -9.293       55.587        9.101       15.387       34.823       19.053      236.763     1212.607      363.010        0.254        0.091       56.358        9.081        0.026      341.952       17.022      863.083
08/10/2013  08:54:00       -7.895      -10.942       10.746       13.266       15.435       17.502      175.999      238.247      306.333        0.051        0.036       13.493       12.064        0.799      342.057       17.201      863.087
08/10/2013  08:55:00      -17.920        4.621      -12.189       26.904       17.265       12.498      723.830      298.065      156.191        0.083        0.059       18.507        9.505        0.264      341.733       16.651      863.086
08/10/2013  08:56:00       -4.086        4.911        9.963       30.401       18.587       20.625      924.245      345.490      425.395        0.092        0.085        6.388       10.736        2.824      342.037       17.167      863.078
08/10/2013  08:57:00       14.182      -13.148        9.908       29.678       31.002       24.039      880.776      961.098      577.891        0.145        0.121       19.339       20.701        1.146      341.925       16.977      863.082
08/10/2013  08:58:00      -23.517      -44.880        4.419       16.708       23.829       15.687      279.160      567.806      246.072        0.184        0.055       50.668       14.276        0.079      341.916       16.961      863.074
08/10/2013  08:59:00      -13.477      -46.076        3.361       17.330       33.045       19.616      300.317     1091.974      384.768        0.205        0.089       48.007       17.282        0.130      342.135       17.334      863.074
08/10/2013  09:00:00      -42.171      -32.767        5.419       38.160       23.418       14.163     1456.218      548.389      200.579        0.254        0.110       53.405       15.134        0.080      342.112       17.294      863.075
08/10/2013  09:01:00      -23.606      -36.796        7.949       32.496       28.821       21.563     1056.020      830.658      464.955        0.216        0.118       43.717       18.081        0.171      342.172       17.395      863.076
08/10/2013  09:02:00      -84.220      -50.465       -2.901       32.915       52.778       15.910     1083.375     2785.519      253.129        0.688        0.206       98.182       15.655        0.025      341.951       17.021      863.081
08/10/2013  09:03:00      -96.909      -11.765      -11.134       21.554       17.396       11.716      464.554      302.613      137.272        0.528        0.045       97.620        8.945        0.008      341.940       17.000      863.070
08/10/2013  09:04:00      -32.612      -10.922       -0.529       10.730        9.657       10.880      115.124       93.250      118.384        0.075        0.016       34.392        5.604        0.027      342.113       17.295      863.059
08/10/2013  09:05:00        7.231        9.052       18.471       22.532       21.070       15.570      507.683      443.950      242.427        0.083        0.060       11.586        8.220        0.503      342.918       18.666      863.048
08/10/2013  09:06:00        5.495       -3.506       33.711       17.665       36.707       23.160      312.041     1347.393      536.392        0.169        0.110        6.518       17.272        7.021      342.579       18.088      863.031
08/10/2013  09:07:00       -7.762        7.667       29.646       14.809       36.484       21.496      219.294     1331.074      462.064        0.150        0.101       10.910        8.952        0.673      342.832       18.518      863.023
08/10/2013  09:08:00        9.844        1.666       30.817       46.730       28.610       29.933     2183.671      818.520      895.972        0.247        0.195        9.984       28.195        7.976      342.611       18.143      863.019
08/10/2013  09:09:00      -26.689        0.784        4.589       18.666       14.185       17.230      348.409      201.218      296.863        0.079        0.042       26.700       11.221        0.177      342.459       17.884      863.016
08/10/2013  09:10:00       41.483      -92.352       10.284       41.447       37.729       29.833     1717.859     1423.442      890.013        0.719        0.202      101.241       18.405        0.033      342.348       17.696      863.021
08/10/2013  09:11:00       44.904      -45.650       20.037       29.165       30.659       24.276      850.617      939.972      589.310        0.344        0.119       64.034       11.138        0.030      342.344       17.689      863.016
08/10/2013  09:12:00       20.163        0.159       35.387       30.759       62.798       33.077      946.139     3943.533     1094.070        0.382        0.299       20.163       37.839        3.522      342.491       17.938      863.011
08/10/2013  09:13:00       33.885      -18.713        4.981       26.441       26.252       29.188      699.146      689.193      851.957        0.188        0.112       38.708       22.466        0.337      342.093       17.261      863.006
08/10/2013  09:14:00       44.943      -72.464       -3.270       47.557       34.129       26.612     2261.625     1164.773      708.208        0.571        0.207       85.269       26.096        0.094      342.238       17.510      862.998
08/10/2013  09:15:00       58.974      -55.869       -5.159       40.900       24.129       24.673     1672.777      582.211      608.757        0.474        0.143       81.236       22.684        0.078      341.877       16.895      862.998
08/10/2013  09:16:00       19.326      -21.628       12.328       30.131       34.628       26.450      907.878     1199.118      699.609        0.190        0.140       29.004       13.466        0.216      342.252       17.533      862.997
08/10/2013  09:17:00       53.610      -16.667       17.079       40.240       29.603       29.316     1619.220      876.357      859.457        0.340        0.168       56.141       28.384        0.256      342.299       17.612      863.004
08/10/2013  09:18:00       15.923       14.440       31.072       21.427       24.067       19.772      459.108      579.240      390.947        0.143        0.071       21.496        8.146        0.144      342.955       18.728      862.994
08/10/2013  09:19:00       55.014        6.593        6.240       38.428       26.751       27.286     1476.715      715.642      744.499        0.302        0.147       55.408       20.372        0.135      342.110       17.290      862.980
08/10/2013  09:20:00       25.877       13.685       30.612       34.770       32.060       33.389     1208.957     1027.864     1114.851        0.257        0.168       29.273       29.122        0.990      342.504       17.961      862.975
08/10/2013  09:21:00       16.915       23.796       25.622       19.917       21.534       25.728      396.693      463.729      661.948        0.152        0.076       29.195       14.142        0.235      342.513       17.976      862.962
08/10/2013  09:22:00      -11.123       30.840       12.426       29.558       25.651       28.011      873.696      657.977      784.642        0.177        0.116       32.785       14.176        0.187      342.701       18.296      862.962
08/10/2013  09:23:00      -17.987       10.930       11.798       21.730       25.633       17.717      472.191      657.034      313.891        0.101        0.072       21.048       15.624        0.551      342.989       18.785      862.958
08/10/2013  09:24:00       18.506      -47.039      -10.827       24.400       24.981       22.101      595.360      624.040      488.434        0.219        0.085       50.548       16.466        0.106      342.226       17.488      862.959
08/10/2013  09:25:00       18.729       -9.857       21.045       25.813       26.742       27.225      666.296      715.143      741.186        0.151        0.106       21.164       23.126        1.194      342.996       18.797      862.961
08/10/2013  09:26:00        8.462       11.961       30.688       25.946       35.308       30.322      673.188     1246.635      919.436        0.200        0.142       14.652       15.060        1.056      342.974       18.759      862.953
08/10/2013  09:27:00       40.797       56.991       35.473       32.129       24.189       26.213     1032.278      585.125      687.134        0.424        0.115       70.088       16.974        0.059      342.761       18.398      862.955
08/10/2013  09:28:00      159.066       87.729       23.928       56.527       46.332       36.194     3195.303     2146.634     1310.039        2.011        0.333      181.655       22.002        0.015      342.529       17.999      862.945
08/10/2013  09:29:00      125.042       70.042        4.422       47.941       46.390       31.496     2298.326     2151.989      991.986        1.300        0.272      143.323       17.376        0.015      342.651       18.210      862.928
08/10/2013  09:30:00      131.242       90.459        9.601       48.883       51.724       33.657     2389.528     2675.386     1132.785        1.585        0.310      159.397       20.649        0.017      342.694       18.283      862.924
08/10/2013  09:31:00       40.504       60.439       13.783       41.244       40.777       37.358     1701.083     1662.762     1395.633        0.512        0.238       72.756       24.103        0.110      342.942       18.705      862.919
08/10/2013  09:32:00      107.515       81.742       34.665       62.372       44.092       49.919     3890.274     1944.085     2491.932        1.388        0.416      135.059       32.224        0.057      342.787       18.441      862.905
08/10/2013  09:33:00       13.568       19.440       56.997       35.158       60.657       35.782     1236.090     3679.302     1280.319        0.500        0.310       23.707       38.567        2.647      342.976       18.764      862.903
08/10/2013  09:34:00       48.166       36.816       39.436       60.631       47.412       45.955     3676.074     2247.945     2111.849        0.663        0.402       60.625       39.710        0.429      342.839       18.531      862.900
08/10/2013  09:35:00       68.900       40.302       43.349       58.364       40.043       32.017     3406.384     1603.454     1025.089        0.714        0.302       79.821       15.396        0.037      342.993       18.792      862.904
08/10/2013  09:36:00       94.334       60.504        3.790       44.231       35.061       27.290     1956.383     1229.267      744.728        0.825        0.197      112.070       21.001        0.035      342.772       18.416      862.907
08/10/2013  09:37:00       92.867       72.662       31.085       23.901       17.500       23.535      571.253      306.257      553.880        0.815        0.072      117.916        9.434        0.006      342.773       18.417      862.904
08/10/2013  09:38:00      112.309       73.996       16.278       46.306       30.005       31.341     2144.200      900.281      982.252        1.119        0.201      134.494       20.175        0.023      342.878       18.596      862.904
08/10/2013  09:39:00       13.691      -33.951        3.471       43.191       42.185       26.677     1865.472     1779.562      711.646        0.285        0.218       36.608       18.037        0.243      342.933       18.690      862.894
08/10/2013  09:40:00       21.223       -1.226       38.750       35.971       48.408       33.219     1293.912     2343.353     1103.487        0.335        0.237       21.259       31.321        2.171      343.043       18.878      862.879
08/10/2013  09:41:00       83.676       26.718       40.524       77.225       75.923       39.576     5963.705     5764.314     1566.223        1.132        0.665       87.838       34.977        0.159      342.938       18.698      862.863
08/10/2013  09:42:00      106.867      104.930       65.889       58.199       41.114       51.240     3387.089     1690.330     2625.519        1.724        0.385      149.769       26.725        0.032      342.889       18.613      862.862
08/10/2013  09:43:00       59.849       91.371       83.900       83.323       59.087       54.443     6942.789     3491.331     2964.030        1.618        0.670      109.227       52.150        0.228      343.001       18.805      862.854
08/10/2013  09:44:00      139.934       48.654       16.609       57.777       50.624       38.851     3338.173     2562.761     1509.438        1.482        0.371      148.151       25.131        0.029      343.011       18.820      862.857
08/10/2013  09:45:00       37.676       58.763       10.406       66.614       50.220       39.032     4437.454     2522.049     1523.528        0.673        0.424       69.804       34.939        0.251      343.697       19.991      862.858
08/10/2013  09:46:00       36.167       79.698       10.711       54.916       53.734       40.603     3015.738     2887.383     1648.619        0.766        0.378       87.521       34.516        0.156      343.500       19.655      862.853
08/10/2013  09:47:00      107.916       48.686        2.225       58.476       50.860       33.762     3419.477     2586.776     1139.884        1.058        0.357      118.390       11.855        0.010      343.390       19.467      862.853
08/10/2013  09:48:00      155.355       85.722       35.379       62.374       48.339       42.657     3890.558     2336.645     1819.658        2.039        0.402      177.436       34.611        0.038      343.454       19.575      862.848
08/10/2013  09:49:00       94.526       68.271       43.483       51.977       43.077       37.549     2701.602     1855.656     1409.964        1.073        0.298      116.602       26.487        0.052      343.037       18.867      862.847
08/10/2013  09:50:00       99.102       62.158       29.165       60.086       41.531       41.840     3610.287     1724.856     1750.626        1.081        0.354      116.982       38.110        0.106      343.148       19.056      862.835
08/10/2013  09:51:00       81.619       52.892        4.289       47.772       48.559       38.989     2282.122     2357.987     1520.163        0.782        0.308       97.258       24.066        0.061      343.238       19.210      862.827
08/10/2013  09:52:00       46.494       19.428       16.288       62.015       58.767       28.357     3845.908     3453.619      804.120        0.545        0.405       50.390       25.132        0.249      343.432       19.539      862.817
08/10/2013  09:53:00       76.004       67.544       32.881       53.566       46.109       31.874     2869.282     2126.029     1015.954        0.871        0.301      101.680       18.865        0.034      343.403       19.490      862.802
08/10/2013  09:54:00       66.586        1.539        7.465       51.406       64.358       37.287     2642.568     4142.002     1390.345        0.633        0.409       66.604       18.932        0.081      343.085       18.948      862.797
08/10/2013  09:55:00       39.687       32.374       46.038       45.674       46.677       30.651     2086.149     2178.710      939.491        0.497        0.260       51.217       19.197        0.140      343.571       19.776      862.793
08/10/2013  09:56:00        3.494      -73.917       30.545       30.491       35.122       25.009      929.679     1233.560      625.449        0.460        0.139       74.000       16.275        0.048      343.156       19.070      862.800
08/10/2013  09:57:00       22.267       -6.944       22.796       30.291       37.296       26.272      917.545     1390.982      690.216        0.203        0.150       23.325       17.480        0.562      343.495       19.646      862.803
08/10/2013  09:58:00        5.653      -21.375       27.039       17.889       65.219       25.052      320.012     4253.525      627.586        0.321        0.260       22.110       31.825        2.072      343.647       19.906      862.807
08/10/2013  09:59:00       43.941      -12.097        9.263       36.028       38.230       29.624     1298.016     1461.499      877.576        0.290        0.182       45.576       17.456        0.147      343.095       18.966      862.810
08/10/2013  10:00:00       26.426       18.059       30.547       42.101       47.890       32.909     1772.494     2293.417     1083.011        0.355        0.257       32.007       31.082        0.943      343.704       20.005      862.797
08/10/2013  10:01:00       31.998       -1.283       10.160       43.508       31.570       25.296     1892.966      996.685      639.863        0.233        0.176       32.024       18.548        0.335      343.416       19.511      862.784
08/10/2013  10:02:00       26.515       20.954       11.830       34.590       31.348       25.727     1196.496      982.684      661.870        0.206        0.142       33.795       15.008        0.197      343.739       20.064      862.783
08/10/2013  10:03:00       76.575       52.327       30.047       39.162       32.554       28.580     1533.659     1059.732      816.788        0.646        0.171       92.746        9.443        0.010      343.940       20.406      862.774
08/10/2013  10:04:00       86.254       69.328       28.735       41.215       37.234       37.878     1698.683     1386.370     1434.761        0.880        0.226      110.662       18.812        0.029      343.775       20.124      862.770
08/10/2013  10:05:00       47.820      -36.996       -2.833       32.682       70.900       28.499     1068.143     5026.835      812.220        0.528        0.345       60.461       18.051        0.089      343.245       19.221      862.776
08/10/2013  10:06:00       -6.219       35.141       30.518       29.639       37.385       39.578      878.471     1397.636     1566.394        0.302        0.192       35.687       24.263        0.462      343.619       19.859      862.760
08/10/2013  10:07:00      -90.876      -63.753       -2.728       62.009       60.107       34.370     3845.077     3612.826     1181.304        1.048        0.432      111.009       34.026        0.094      343.491       19.638      862.757
08/10/2013  10:08:00      -83.782      -75.063       -1.066       42.012       54.746       25.228     1765.025     2997.072      636.459        0.903        0.270      112.489       20.341        0.033      343.400       19.485      862.745
08/10/2013  10:09:00      -73.047      -33.890       12.512       67.047       37.540       29.655     4495.359     1409.235      879.419        0.671        0.339       80.526       32.145        0.159      343.599       19.825      862.723
08/10/2013  10:10:00      -57.510      -61.686       -3.732       38.810       50.792       31.202     1506.190     2579.804      973.587        0.609        0.253       84.336       26.355        0.098      343.510       19.673      862.723
08/10/2013  10:11:00       24.190      -72.758        2.984       52.117       76.407       39.771     2716.195     5838.043     1581.711        0.801        0.507       76.674       43.227        0.318      343.690       19.979      862.720
08/10/2013  10:12:00      -51.267      -50.697        5.140       35.150       26.583       24.343     1235.522      706.635      592.602        0.388        0.127       72.100       10.331        0.021      343.560       19.758      862.712
08/10/2013  10:13:00       -9.490      -48.462       45.522       40.110       44.344       41.249     1608.841     1966.372     1701.439        0.489        0.264       49.383       29.492        0.357      343.990       20.491      862.715
08/10/2013  10:14:00      -20.485       -6.726       28.373       18.142       25.831       20.200      329.117      667.221      408.029        0.134        0.070       21.561        9.757        0.205      344.225       20.893      862.712
08/10/2013  10:15:00      -16.415      -32.017       12.526       41.290       38.034       26.154     1704.863     1446.620      684.051        0.264        0.192       35.980       25.925        0.519      344.000       20.510      862.715
08/10/2013  10:16:00        0.074      -28.655       13.683       18.537       22.674       26.903      343.608      514.097      723.749        0.129        0.079       28.655       15.062        0.276      343.696       19.989      862.712
08/10/2013  10:17:00      -53.281      -33.479       -2.953       56.804       40.679       21.821     3226.749     1654.807      476.151        0.466        0.268       62.926       14.637        0.054      343.502       19.656      862.718
08/10/2013  10:18:00        8.876       -2.567       33.634       58.823       25.383       19.704     3460.093      644.299      388.236        0.285        0.225        9.240       21.069        5.199      343.913       20.362      862.720
08/10/2013  10:19:00        2.810       -6.294       21.884       22.679       23.777       19.616      514.358      565.328      384.801        0.100        0.073        6.893       15.299        4.926      343.873       20.292      862.725
08/10/2013  10:20:00      -42.441       -4.927       11.983       34.068       20.868       18.137     1160.635      435.464      328.943        0.195        0.096       42.726       21.749        0.259      343.996       20.502      862.727
08/10/2013  10:21:00      -21.050      -29.627       15.884       34.576       35.970       24.669     1195.510     1293.871      608.573        0.234        0.155       36.344       22.317        0.377      343.970       20.458      862.731
08/10/2013  10:22:00      -71.340      -29.782       -5.661       32.009       31.514       16.038     1024.549      993.115      257.212        0.414        0.114       77.307       12.932        0.028      343.446       19.564      862.742
08/10/2013  10:23:00       -3.184      -52.428        1.759       17.490       19.315       16.676      305.894      373.072      278.081        0.186        0.048       52.525       10.709        0.042      343.526       19.699      862.758
08/10/2013  10:24:00        7.836      -37.473      -16.318       12.945       25.061       27.836      167.569      628.040      774.841        0.165        0.079       38.283       22.091        0.333      343.709       20.011      862.760
08/10/2013  10:25:00       38.385       53.019       -3.677       55.736       36.936       36.623     3106.460     1364.239     1341.252        0.505        0.291       65.455       33.664        0.265      343.571       19.778      862.764
08/10/2013  10:26:00       11.263       46.066        9.227       28.209       56.286       34.108      795.729     3168.113     1163.385        0.373        0.256       47.422       28.764        0.368      344.339       21.088      862.755
08/10/2013  10:27:00       -6.740       59.651        5.020       30.118       37.861       34.806      907.112     1433.492     1211.448        0.359        0.178       60.030       29.298        0.238      344.122       20.718      862.746
08/10/2013  10:28:00      -39.740       36.504       -3.311       33.373       31.004       26.855     1113.748      961.227      721.179        0.286        0.140       53.961       25.292        0.220      343.944       20.413      862.736
08/10/2013  10:29:00        5.820       53.606        4.767       59.704       41.021       31.090     3564.535     1682.700      966.579        0.457        0.311       53.921       29.908        0.308      344.031       20.561      862.726
08/10/2013  10:30:00       56.450       23.147       24.043       59.495       31.395       29.762     3539.685      985.654      885.752        0.485        0.271       61.011       26.245        0.185      344.638       21.600      862.725
08/10/2013  10:31:00       53.978       52.439       11.443       50.204       31.374       35.849     2520.404      984.323     1285.185        0.529        0.239       75.256       17.395        0.053      344.185       20.824      862.728
08/10/2013  10:32:00       73.169       52.753        5.773       26.094       27.131       36.935      680.877      736.087     1364.180        0.548        0.139       90.203       23.157        0.066      343.859       20.269      862.715
08/10/2013  10:33:00       62.127       40.354        3.377       39.359       28.879       27.384     1549.110      834.000      749.906        0.432        0.157       74.082       20.142        0.074      343.952       20.428      862.705
08/10/2013  10:34:00       19.143       12.688       21.471       29.118       37.281       19.300      847.840     1389.872      372.472        0.180        0.131       22.966       15.947        0.482      344.627       21.582      862.703
08/10/2013  10:35:00       34.791      -82.806       -1.373       37.857       57.712       34.498     1433.168     3330.684     1190.087        0.701        0.298       89.818       34.828        0.150      344.101       20.681      862.708
08/10/2013  10:36:00      -18.580       -9.477       25.721       35.659       49.694       21.394     1271.549     2469.449      457.722        0.265        0.210       20.857       19.664        0.889      344.319       21.054      862.705
08/10/2013  10:37:00       49.926       28.319       26.916       50.096       48.348       39.994     2509.612     2337.504     1599.555        0.523        0.322       57.398       19.146        0.111      343.888       20.318      862.703
08/10/2013  10:38:00        2.358       46.706       59.786       31.838       64.181       48.532     1013.667     4119.197     2355.354        0.662        0.374       46.765       44.623        0.910      344.237       20.912      862.691
08/10/2013  10:39:00        3.078       20.250       75.480       40.550       67.338       40.076     1644.325     4534.399     1606.058        0.695        0.389       20.482       39.751        3.766      344.397       21.186      862.700
08/10/2013  10:40:00        8.695       58.609       71.955       31.378       37.599       24.808      984.569     1413.691      615.418        0.585        0.151       59.250       17.702        0.089      344.448       21.273      862.703
08/10/2013  10:41:00       26.398       -6.949       19.488       41.653       53.904       35.132     1734.962     2905.687     1234.239        0.350        0.294       27.297       31.826        1.359      344.172       20.803      862.710
08/10/2013  10:42:00       49.286     -109.405        3.152       58.993       51.562       41.481     3480.141     2658.661     1720.683        1.113        0.393      119.994       38.417        0.103      343.812       20.188      862.706
08/10/2013  10:43:00       -8.171      -50.290       18.299       27.775       34.417       25.449      771.437     1184.564      647.657        0.277        0.130       50.949       17.027        0.112      343.924       20.379      862.703
08/10/2013  10:44:00        1.380      -15.654       22.357       16.841       27.917       13.717      283.623      779.383      188.169        0.100        0.063       15.715       14.405        0.840      344.579       21.498      862.705
08/10/2013  10:45:00       11.365       43.440       69.609       35.787       35.095       24.174     1280.677     1231.662      584.361        0.498        0.155       44.902       19.576        0.190      344.606       21.545      862.698
08/10/2013  10:46:00       22.245      -46.235       24.600       44.496       54.467       34.354     1979.875     2966.708     1180.227        0.468        0.306       51.309       18.790        0.134      344.256       20.947      862.688
08/10/2013  10:47:00        0.079        0.425       18.876       41.410       49.812       32.344     1714.775     2481.204     1046.152        0.280        0.262        0.432       27.928     4176.939      344.476       21.322      862.683
08/10/2013  10:48:00       13.268      -66.377        8.197       44.991       32.176       25.524     2024.201     1035.285      651.493        0.418        0.186       67.690        5.504        0.007      343.789       20.149      862.676
08/10/2013  10:49:00       47.830       39.141       12.912       59.829       55.804       26.054     3579.473     3114.070      678.809        0.568        0.369       61.804       18.116        0.086      344.229       20.900      862.669
08/10/2013  10:50:00       50.919       -5.903       40.339       37.662       52.927       35.503     1418.458     2801.284     1260.455        0.487        0.274       51.260       30.537        0.355      344.466       21.305      862.667
08/10/2013  10:51:00       66.764       -1.625        4.294       40.145       36.676       31.762     1611.649     1345.149     1008.856        0.422        0.198       66.784       21.128        0.100      343.895       20.330      862.650
08/10/2013  10:52:00       20.551       -5.542       30.608       49.545       58.475       38.302     2454.741     3419.303     1467.020        0.436        0.367       21.285       44.881        4.446      344.373       21.146      862.639
08/10/2013  10:53:00       13.849      -26.053       37.110       28.565       60.699       40.474      815.954     3684.322     1638.104        0.419        0.307       29.505       41.927        2.019      344.546       21.443      862.637
08/10/2013  10:54:00       26.646      -84.656        0.459       25.127       40.371       29.631      631.362     1629.847      877.987        0.551        0.157       88.750       17.497        0.039      344.122       20.717      862.643
08/10/2013  10:55:00      -47.982        6.711      -15.928       15.458       40.350       17.722      238.938     1628.137      314.072        0.239        0.109       48.449       15.424        0.101      344.081       20.648      862.620
08/10/2013  10:56:00      -85.418        3.698      -15.630       30.772       44.087       19.409      946.901     1943.661      376.713        0.541        0.163       85.498       21.700        0.064      344.151       20.767      862.595
08/10/2013  10:57:00      -55.506      -65.258        5.233       38.737       61.780       29.002     1500.536     3816.722      841.143        0.676        0.308       85.671       22.534        0.069      344.343       21.094      862.594
08/10/2013  10:58:00      -48.999     -122.454       -5.936       59.488       61.188       36.311     3538.812     3744.007     1318.522        1.301        0.430      131.893       32.431        0.060      344.226       20.895      862.607
08/10/2013  10:59:00       36.093     -125.002      -10.604       59.636       55.999       33.180     3556.454     3135.928     1100.914        1.242        0.390      130.109       27.701        0.045      344.465       21.302      862.619
08/10/2013  11:00:00      -29.924      -94.793        4.610       77.947       34.012       32.796     6075.727     1156.803     1075.545        0.910        0.415       99.404       26.938        0.073      344.465       21.304      862.626
08/10/2013  11:01:00      -69.517      -35.464       -1.083       52.790       22.561       23.826     2786.831      508.996      567.692        0.498        0.193       78.040       10.860        0.019      344.385       21.167      862.633
08/10/2013  11:02:00        7.066        5.797       21.509       25.211       21.025       30.314      635.615      442.071      918.930        0.127        0.100        9.139       17.983        3.872      345.439       22.971      862.621
08/10/2013  11:03:00      -37.637       21.491        9.440       38.487       30.798       21.446     1481.255      948.547      459.944        0.243        0.144       43.341       15.360        0.126      344.904       22.055      862.611
08/10/2013  11:04:00      -27.396       12.066       17.896       41.586       21.398       22.943     1729.414      457.886      526.360        0.196        0.136       29.935       25.739        0.739      345.546       23.154      862.607
08/10/2013  11:05:00       -5.138       -5.782       22.769       16.787       24.164       18.436      281.809      583.899      339.873        0.089        0.060        7.735       16.468        4.532      345.182       22.530      862.600
08/10/2013  11:06:00      -27.057      -12.044       -0.619       22.920       18.452       17.169      525.335      340.483      294.759        0.102        0.058       29.617       13.297        0.202      344.520       21.399      862.595
08/10/2013  11:07:00       16.176      -17.949       32.183       19.583       24.241       16.806      383.479      587.636      282.454        0.144        0.063       24.163       13.457        0.310      345.048       22.300      862.590
08/10/2013  11:08:00       12.041       15.824       18.697       22.867       27.404       26.257      522.901      750.993      689.413        0.135        0.098       19.884       17.614        0.785      344.625       21.577      862.589
08/10/2013  11:09:00        5.862       10.808       28.577       25.095       20.327       21.564      629.748      413.189      464.991        0.124        0.075       12.296       16.948        1.900      345.311       22.751      862.578
08/10/2013  11:10:00       22.900       -3.508       22.842       38.675       42.666       29.716     1495.792     1820.345      883.070        0.263        0.210       23.167       28.505        1.514      344.928       22.098      862.563
08/10/2013  11:11:00       36.550        7.028       26.899       50.481       28.882       29.128     2548.304      834.196      848.444        0.317        0.212       37.219       22.491        0.365      344.906       22.058      862.559
08/10/2013  11:12:00        0.743       18.559       45.754       47.234       56.587       39.425     2231.045     3202.036     1554.302        0.471        0.349       18.574       34.548        3.460      345.158       22.489      862.548
08/10/2013  11:13:00       39.334      -78.838        6.634       41.934       48.564       50.328     1758.461     2358.451     2532.879        0.723        0.332       88.105       23.696        0.072      344.681       21.672      862.545
08/10/2013  11:14:00       11.424      -54.578      -13.195       43.197       35.180       20.290     1865.987     1237.630      411.690        0.340        0.176       55.761       12.178        0.048      344.814       21.901      862.546
08/10/2013  11:15:00      -11.663      -49.676        3.782       52.794       49.226       27.059     2787.235     2423.240      732.165        0.428        0.297       51.027       25.690        0.253      344.958       22.148      862.548
08/10/2013  11:16:00      -93.857     -100.368       10.306       93.539       65.133       36.914     8749.468     4242.290     1362.667        1.667        0.718      137.416       38.325        0.078      344.712       21.723      862.550
08/10/2013  11:17:00     -113.372     -100.471        3.918       73.015       55.308       35.111     5331.182     3059.000     1232.784        1.629        0.481      151.485       32.816        0.047      344.644       21.608      862.540
08/10/2013  11:18:00      -78.146      -64.322       -8.478       46.710       41.140       30.740     2181.792     1692.525      944.924        0.757        0.241      101.213       20.273        0.040      344.517       21.391      862.538
08/10/2013  11:19:00      -22.561      -83.580       -5.600       18.976       75.989       21.994      360.083     5774.395      483.737        0.707        0.331       86.572       32.388        0.140      344.491       21.348      862.529
08/10/2013  11:20:00      -32.399      -37.971       -0.322       30.082       37.027       20.537      904.921     1371.028      421.774        0.259        0.135       49.915       21.094        0.179      344.620       21.567      862.514
08/10/2013  11:21:00      -63.263      -67.045        0.873       22.864       31.985       16.633      522.762     1023.018      276.657        0.516        0.091       92.180        9.553        0.011      344.500       21.364      862.509
08/10/2013  11:22:00      -15.896      -29.270        0.105       20.723       21.920       20.465      429.424      480.501      418.797        0.122        0.066       33.308       13.045        0.153      344.704       21.712      862.504
08/10/2013  11:23:00      -12.238        1.568        9.229       11.457       10.245       19.390      131.252      104.967      375.979        0.042        0.031       12.338       11.370        0.849      345.569       23.195      862.503
08/10/2013  11:24:00      -31.553        7.105       18.953       26.013       21.199       16.176      676.667      449.393      261.656        0.140        0.069       32.343       11.724        0.131      345.441       22.974      862.505
08/10/2013  11:25:00      -34.703      -19.784        3.342       23.792       26.149       18.595      566.066      683.747      345.783        0.160        0.080       39.946       12.729        0.102      345.118       22.421      862.488
08/10/2013  11:26:00      -22.226       56.019        9.193       64.392       72.591       41.581     4146.312     5269.401     1728.996        0.743        0.557       60.268       22.580        0.140      344.911       22.067      862.496
08/10/2013  11:27:00       81.093       66.130        9.058       48.634       30.664       32.433     2365.292      940.285     1051.877        0.769        0.218      104.638       10.868        0.011      345.082       22.359      862.467
08/10/2013  11:28:00        9.531       44.073       29.053       72.791       45.693       36.454     5298.597     2087.811     1328.880        0.579        0.436       45.092       26.810        0.354      345.526       23.119      862.459
08/10/2013  11:29:00      -24.607       14.892        0.007       23.284       45.967       32.911      542.132     2112.978     1083.122        0.228        0.187       28.763       17.856        0.385      345.318       22.763      862.459
08/10/2013  11:30:00      -19.126       29.414       32.163       37.283       27.822       28.512     1390.051      774.079      812.944        0.262        0.149       35.086       22.125        0.398      345.808       23.604      862.437
08/10/2013  11:31:00       29.227       90.898       20.817       33.576       64.273       37.176     1127.370     4131.076     1382.075        0.809        0.332       95.481       29.063        0.093      345.440       22.972      862.423
08/10/2013  11:32:00      -26.936       20.703       17.360       64.574       69.023       36.726     4169.760     4764.169     1348.784        0.587        0.514       33.973       30.183        0.789      345.580       23.213      862.396
08/10/2013  11:33:00      -46.816       32.221        0.734       62.427       37.742       27.867     3897.132     1424.426      776.566        0.466        0.305       56.832       23.824        0.176      345.266       22.676      862.389
08/10/2013  11:34:00      -25.112        6.430       16.510       62.316       63.987       29.907     3883.240     4094.326      894.416        0.491        0.444       25.922       20.758        0.641      345.561       23.179      862.365
08/10/2013  11:35:00     -166.225       53.511      -16.227      129.254       67.627       37.486    16706.513     4573.387     1405.225        2.672        1.134      174.626       50.045        0.082      345.478       23.034      862.349
08/10/2013  11:36:00     -164.677      -29.153      -23.974       61.483       65.956       38.644     3780.152     4350.162     1493.365        1.908        0.481      167.237       31.857        0.036      345.015       22.242      862.368
08/10/2013  11:37:00      -35.498       11.918        2.437       38.374       34.210       26.782     1472.573     1170.299      717.288        0.238        0.168       37.446       29.274        0.611      345.563       23.184      862.365
08/10/2013  11:38:00     -110.430        7.447        2.638       44.473       30.350       27.892     1977.875      921.152      777.981        0.797        0.184      110.681       23.412        0.045      345.130       22.439      862.370
08/10/2013  11:39:00     -107.702      -50.011        6.470       35.674       39.164       27.529     1272.657     1533.856      757.858        0.885        0.178      118.747       13.062        0.012      345.199       22.559      862.353
08/10/2013  11:40:00      -11.270      -41.456       22.625       25.600       41.766       37.450      655.358     1744.377     1402.494        0.308        0.190       42.960       10.165        0.056      345.696       23.411      862.337
08/10/2013  11:41:00      -40.384        9.571       22.218       26.532       24.287       18.977      703.923      589.875      360.122        0.193        0.083       41.503       12.195        0.086      345.739       23.487      862.327
08/10/2013  11:42:00      -72.942        5.078        5.668       31.801       25.143       22.246     1011.310      632.179      494.902        0.376        0.107       73.119       22.941        0.098      345.412       22.923      862.315
08/10/2013  11:43:00     -128.886      -40.959       -4.029       55.434       56.155       29.452     3072.983     3153.428      867.425        1.270        0.355      135.238       34.602        0.065      345.132       22.444      862.317
08/10/2013  11:44:00      -39.716      -24.914       -2.898       36.250       35.748       16.372     1314.070     1277.895      268.032        0.253        0.143       46.884       10.949        0.055      345.187       22.539      862.312
08/10/2013  11:45:00      -24.502      -75.902      -12.017       35.615       31.524       19.796     1268.407      993.784      391.875        0.458        0.133       79.759       18.672        0.055      345.112       22.411      862.290
08/10/2013  11:46:00       31.817      -81.109        8.616       39.094       31.996       31.578     1528.358     1023.763      997.148        0.561        0.177       87.126       20.148        0.053      345.138       22.455      862.288
08/10/2013  11:47:00       -5.837       -8.718        3.456       57.390       51.910       31.253     3293.566     2694.678      976.749        0.354        0.348       10.492       30.761        8.596      345.394       22.894      862.290
08/10/2013  11:48:00       21.484       43.125       22.376       48.449       46.175       38.340     2347.281     2132.130     1469.949        0.438        0.297       48.180       25.603        0.282      345.867       23.705      862.282
08/10/2013  11:49:00       -7.730       15.167       25.777       41.986       33.592       29.223     1762.853     1128.407      853.980        0.235        0.187       17.024       19.481        1.310      346.099       24.103      862.278
08/10/2013  11:50:00     -103.586       54.370        9.204       39.938       40.810       30.263     1595.065     1665.439      915.838        0.897        0.209      116.988       25.850        0.049      345.492       23.061      862.287
08/10/2013  11:51:00     -120.031       -2.966        3.415      119.276       43.376       40.316    14226.650     1881.463     1625.380        1.608        0.887      120.068       55.107        0.211      345.483       23.045      862.286
08/10/2013  11:52:00     -353.319       59.446      -17.678      169.325      140.505       66.782    28670.988    19741.613     4459.796        9.077        2.644      358.285       70.342        0.039      345.405       22.908      862.250
08/10/2013  11:53:00     -353.021       10.534      -36.797      116.465       91.070       50.661    13564.159     8293.676     2566.568        7.525        1.221      353.178       52.018        0.022      345.309       22.744      862.260
08/10/2013  11:54:00      -53.072      -62.328       18.566       89.498       50.066       44.230     8009.935     2506.632     1956.324        0.976        0.624       81.862       46.736        0.326      345.637       23.309      862.264
08/10/2013  11:55:00      -49.690      -16.723       19.588       52.127       45.813       34.400     2717.218     2098.864     1183.333        0.456        0.300       52.429       37.594        0.514      345.551       23.163      862.252
08/10/2013  11:56:00      -25.173      -35.096        2.223       62.783       48.395       28.923     3941.736     2342.057      836.534        0.449        0.356       43.191       19.891        0.212      345.417       22.932      862.240
08/10/2013  11:57:00     -108.451       21.422      -11.927       38.065       44.258       23.906     1448.960     1958.811      571.492        0.817        0.199      110.546       10.761        0.009      345.319       22.766      862.224
08/10/2013  11:58:00      -30.450       59.105       16.556       42.281       47.846       31.537     1787.684     2289.287      994.571        0.488        0.254       66.487       24.012        0.130      345.889       23.743      862.224
08/10/2013  11:59:00      -61.623       94.257        7.806       63.444       62.327       49.881     4025.133     3884.596     2488.125        1.157        0.520      112.613       52.123        0.214      346.008       23.948      862.209
08/10/2013  12:00:00      -25.327      104.751        6.767       40.869       71.552       50.150     1670.244     5119.718     2515.021        1.048        0.465      107.769       34.578        0.103      345.860       23.694      862.193
08/10/2013  12:01:00        0.860       97.073       25.721       36.902       68.792       47.610     1361.783     4732.356     2266.707        0.922        0.418       97.077       37.904        0.152      345.997       23.927      862.171
08/10/2013  12:02:00      -85.878      132.029       -9.938       56.867       66.406       41.946     3233.812     4409.751     1759.493        1.715        0.470      157.501       34.039        0.047      345.617       23.275      862.167
08/10/2013  12:03:00     -134.307       -0.654      -18.141       79.890      131.805       36.747     6382.339    17372.583     1350.311        2.173        1.255      134.308       37.531        0.078      345.693       23.405      862.167
08/10/2013  12:04:00     -160.591      -95.733       -5.477       77.628       57.026       39.048     6026.168     3251.973     1524.785        2.289        0.540      186.961       37.873        0.041      345.368       22.847      862.164
08/10/2013  12:05:00     -129.031      -48.688       -7.556       42.122       47.281       27.544     1774.288     2235.529      758.686        1.192        0.238      137.911       25.262        0.034      345.342       22.805      862.161
08/10/2013  12:06:00     -134.630      -63.447       -5.486       64.614       41.220       28.248     4174.907     1699.108      797.943        1.443        0.334      148.831       29.380        0.039      345.490       23.057      862.147
08/10/2013  12:07:00        2.290        3.389       20.403       49.088       49.529       30.128     2409.593     2453.171      907.673        0.310        0.289        4.090       21.247       26.990      345.639       23.315      862.154
08/10/2013  12:08:00      -27.515      -18.809        5.561       29.226       52.482       34.520      854.164     2754.322     1191.603        0.297        0.240       33.329       32.886        0.974      345.548       23.156      862.124
08/10/2013  12:09:00      -95.124      -31.289       10.310       67.199       60.371       44.937     4515.733     3644.664     2019.292        1.016        0.509      100.137       41.502        0.172      345.763       23.526      862.138
08/10/2013  12:10:00     -216.193      -37.350      -15.841      102.877       91.277       42.148    10583.718     8331.453     1776.436        3.454        1.035      219.396       42.711        0.038      345.675       23.373      862.120
08/10/2013  12:11:00     -203.654      -62.765      -10.954       87.077       60.732       34.925     7582.458     3688.339     1219.777        2.901        0.625      213.107       35.644        0.028      345.464       23.011      862.120
08/10/2013  12:12:00      -16.910       22.292       30.607       37.641       29.529       26.122     1416.839      871.967      682.352        0.234        0.149       27.980       21.629        0.598      346.535       24.853      862.104
08/10/2013  12:13:00      -12.577       17.705      -11.798       31.478       26.585       37.058      990.889      706.744     1373.311        0.184        0.154       21.717       21.863        1.013      345.912       23.783      862.089
08/10/2013  12:14:00      -18.072       38.514       18.362       62.633       41.029       39.432     3922.919     1683.339     1554.899        0.465        0.358       42.543       26.622        0.392      346.058       24.034      862.063
08/10/2013  12:15:00      -33.901        4.054       12.702       57.712       64.737       34.131     3330.619     4190.876     1164.920        0.501        0.434       34.143       21.418        0.394      346.088       24.083      862.064
08/10/2013  12:16:00      -92.538        6.524        7.742       99.696       67.970       47.807     9939.211     4619.886     2285.527        1.275        0.842       92.767       56.837        0.375      346.147       24.186      862.054
08/10/2013  12:17:00     -141.576      -78.553        1.086      150.622       86.906       48.675    22686.864     7552.699     2369.224        2.941        1.630      161.909       69.119        0.182      346.188       24.256      862.052
08/10/2013  12:18:00     -265.629      -33.520       -6.084       86.921       65.353       42.114     7555.217     4270.957     1773.609        4.266        0.680      267.735       39.156        0.021      345.549       23.156      862.057
08/10/2013  12:19:00     -185.385      -20.624      -12.414       59.780       43.773       32.981     3573.613     1916.048     1087.714        2.076        0.329      186.528       31.851        0.029      345.600       23.244      862.047
08/10/2013  12:20:00      -67.064      -97.033        6.895       58.002       61.139       32.249     3364.212     3738.029     1040.001        1.105        0.407      117.953       33.319        0.080      345.742       23.489      862.056
08/10/2013  12:21:00       -6.345      -10.798       24.043       52.198       51.770       38.425     2724.616     2680.115     1476.472        0.381        0.344       12.524       31.516        6.333      346.386       24.598      862.042
08/10/2013  12:22:00      -20.974       23.041       29.881       46.823       42.678       38.541     2192.402     1821.371     1485.400        0.368        0.275       31.158       32.057        1.059      346.563       24.900      862.041
08/10/2013  12:23:00       12.904        7.329       15.166       35.709       25.746       25.012     1275.119      662.870      625.597        0.151        0.128       14.840       13.410        0.817      346.764       25.246      862.030
08/10/2013  12:24:00      -17.275       43.544        7.968       25.954       36.048       26.684      673.584     1299.426      712.011        0.247        0.134       46.846       21.629        0.213      346.478       24.755      862.028
08/10/2013  12:25:00      -24.532       56.351       15.430       38.124       45.112       30.712     1453.432     2035.132      943.241        0.422        0.222       61.459       22.306        0.132      346.616       24.993      862.035
08/10/2013  12:26:00        8.813       22.548       28.814       46.243       37.916       40.501     2138.433     1437.641     1640.303        0.332        0.261       24.209       38.874        2.578      346.761       25.242      862.031
08/10/2013  12:27:00      -16.328      -11.742        3.822       56.679       36.228       29.244     3212.523     1312.452      855.183        0.290        0.269       20.112       21.533        1.146      346.278       24.410      862.025
08/10/2013  12:28:00      -28.319       31.639        4.044       38.230       33.410       27.983     1461.523     1116.250      783.036        0.259        0.168       42.462       22.188        0.273      346.310       24.465      862.016
08/10/2013  12:29:00        1.148       47.260       44.434       39.189       43.887       33.837     1535.802     1926.068     1144.929        0.441        0.230       47.274       31.341        0.440      346.894       25.471      862.011
08/10/2013  12:30:00      -15.527       82.110       16.031       34.559       64.202       40.442     1194.323     4121.956     1635.530        0.709        0.348       83.566       34.669        0.172      346.597       24.960      862.004
08/10/2013  12:31:00        9.949      241.436      -20.636       31.354      100.131       45.974      983.098    10026.139     2113.588        3.597        0.656      241.641       55.102        0.052      345.707       23.428      861.987
08/10/2013  12:32:00      -47.701      266.444      -19.240       46.377       68.048       32.310     2150.802     4630.595     1043.945        4.073        0.391      270.680       33.699        0.015      345.765       23.525      861.974
08/10/2013  12:33:00       -8.204      234.520      -17.168       66.994       95.384       49.154     4488.206     9098.027     2416.089        3.568        0.800      234.663       53.755        0.052      345.819       23.619      861.964
08/10/2013  12:34:00       -5.982      184.600       -8.247       57.196       96.114       53.710     3271.439     9237.808     2884.713        2.478        0.770      184.697       57.746        0.098      345.702       23.420      861.952
08/10/2013  12:35:00       19.586      102.974        3.458       36.535       88.608       35.510     1334.819     7851.446     1260.985        1.072        0.522      104.820       40.562        0.150      346.191       24.261      861.949
08/10/2013  12:36:00       85.955       34.948       16.256       67.402       41.614       32.980     4543.092     1731.721     1087.691        0.812        0.368       92.788       23.431        0.064      346.107       24.115      861.941
08/10/2013  12:37:00      133.817      102.541       19.755       41.457       36.110       42.963     1718.673     1303.922     1845.838        1.684        0.243      168.587       21.595        0.016      345.658       23.346      861.929
08/10/2013  12:38:00       64.607       56.907       32.464       52.385       47.283       39.203     2744.171     2235.646     1536.870        0.749        0.326       86.096       31.832        0.137      345.956       23.858      861.916
08/10/2013  12:39:00       63.814       19.992        9.574       21.384       29.677       38.829      457.256      880.703     1507.722        0.370        0.142       66.872       13.038        0.038      346.031       23.986      861.918
08/10/2013  12:40:00       26.532       19.879       12.443       35.667       27.636       20.206     1272.135      763.759      408.264        0.185        0.122       33.153       13.268        0.160      346.604       24.970      861.911
08/10/2013  12:41:00       60.502       43.636       69.507       54.809       61.174       46.944     3004.063     3742.197     2203.700        0.967        0.447       74.596       33.218        0.198      346.272       24.402      861.915
08/10/2013  12:42:00       50.652       45.078       11.473       43.451       33.539       32.615     1887.982     1124.857     1063.754        0.440        0.204       67.806       22.666        0.112      346.063       24.040      861.897
08/10/2013  12:43:00       32.851       43.704       41.938       41.240       55.616       49.794     1700.762     3093.162     2479.409        0.601        0.364       54.674       31.594        0.334      345.978       23.894      861.886
08/10/2013  12:44:00       45.975       55.874       49.811       48.211       39.119       51.600     2324.285     1530.272     2662.530        0.712        0.326       72.358       30.889        0.182      345.974       23.888      861.879
08/10/2013  12:45:00       52.665       10.669       19.255       62.280       50.959       42.865     3878.815     2596.814     1837.397        0.578        0.416       53.735       36.486        0.461      345.855       23.684      861.860
08/10/2013  12:46:00       70.661       77.256       36.234       28.719       37.342       39.296      824.760     1394.448     1544.189        0.802        0.188      104.697       21.969        0.044      345.750       23.504      861.852
08/10/2013  12:47:00      122.640       80.613       29.130       74.414       73.784       43.734     5537.420     5444.078     1912.622        1.764        0.645      146.762       30.555        0.043      345.935       23.820      861.830
08/10/2013  12:48:00       77.469       84.977        8.502       69.554       60.388       41.605     4837.765     3646.662     1731.010        1.175        0.511      114.989       31.743        0.076      346.205       24.285      861.816
08/10/2013  12:49:00      100.363       64.778        9.713       60.965       50.426       54.625     3716.712     2542.748     2983.837        1.180        0.462      119.452       25.831        0.047      346.069       24.052      861.816
08/10/2013  12:50:00       26.934       12.483        4.055       37.082       48.063       26.049     1375.072     2310.041      678.563        0.263        0.218       29.686       19.515        0.432      346.185       24.252      861.805
08/10/2013  12:51:00        8.614      -35.809        9.293       32.188       63.828       51.258     1036.095     4073.951     2627.369        0.459        0.387       36.830       53.184        2.085      345.953       23.853      861.793
08/10/2013  12:52:00      -11.504       29.675       55.505       13.321       36.242       22.887      177.460     1313.511      523.800        0.305        0.101       31.827       23.337        0.538      346.744       25.213      861.784
08/10/2013  12:53:00       -3.878       -3.539       15.063       28.460       36.817       28.542      809.948     1355.474      814.626        0.162        0.149        5.250       13.209        6.331      346.372       24.572      861.752
08/10/2013  12:54:00        7.756       10.093       24.489       36.504       27.626       24.132     1332.565      763.172      582.336        0.172        0.134       12.729       15.512        1.485      346.678       25.099      861.744
08/10/2013  12:55:00       14.974        4.609       40.804       38.818       36.451       27.992     1506.804     1328.711      783.528        0.276        0.181       15.667       22.626        2.086      346.631       25.020      861.727
08/10/2013  12:56:00      103.949      -87.565       15.855       94.336      100.731       63.490     8899.324    10146.672     4030.937        2.090        1.154      135.916       67.965        0.250      346.070       24.052      861.697
08/10/2013  12:57:00      109.950      -49.526       53.909       98.218       87.349       52.074     9646.824     7629.871     2711.717        1.871        0.999      120.589       57.898        0.231      346.520       24.826      861.686
08/10/2013  12:58:00       91.608       18.479       11.192       47.548       40.036       33.024     2260.829     1602.889     1090.558        0.691        0.248       93.453       21.686        0.054      345.996       23.928      861.672
08/10/2013  12:59:00       81.777      -73.858       12.514       80.472       80.188       51.328     6475.741     6430.085     2634.522        1.392        0.777      110.193       50.329        0.209      346.507       24.804      861.643
08/10/2013  13:00:00       92.959       28.453       76.612       83.810       76.018       63.562     7024.135     5778.752     4040.162        1.608        0.842       97.216       59.998        0.381      346.154       24.198      861.647
08/10/2013  13:01:00      109.819       19.237       56.970       97.604       55.543       48.320     9526.554     3085.036     2334.774        1.531        0.747      111.491       50.075        0.202      346.186       24.252      861.654
08/10/2013  13:02:00       74.355       61.347       49.643       59.931       74.754       47.012     3591.710     5588.128     2210.154        1.157        0.569       96.396       31.231        0.105      346.372       24.571      861.636
08/10/2013  13:03:00      196.865      113.709       67.427      111.905       66.375       83.771    12522.816     4405.671     7017.662        4.009        1.197      227.345       71.407        0.099      345.929       23.806      861.631
08/10/2013  13:04:00      116.028       88.127       27.486       41.575       27.250       32.270     1728.440      742.575     1041.343        1.275        0.176      145.701       16.484        0.013      345.922       23.800      861.632
08/10/2013  13:05:00      109.231       64.245       26.464       65.266       57.351       31.684     4259.616     3289.081     1003.871        1.265        0.428      126.724       13.053        0.011      346.239       24.344      861.612
08/10/2013  13:06:00      107.384      119.103       -3.213       87.145       72.623       52.511     7594.209     5274.036     2757.373        2.067        0.781      160.365       36.421        0.052      346.344       24.523      861.598
08/10/2013  13:07:00       35.970       72.759       15.007       57.959       60.305       52.393     3359.269     3636.649     2745.010        0.828        0.487       81.165       29.601        0.133      346.494       24.781      861.589
08/10/2013  13:08:00      117.998       84.944       83.309       85.636       70.371       60.265     7333.558     4952.081     3631.840        2.200        0.796      145.393       40.545        0.078      346.087       24.081      861.573
08/10/2013  13:09:00       88.240      -30.583       62.474       72.513      121.086       60.494     5258.069    14661.927     3659.513        1.810        1.179       93.390       71.209        0.581      345.570       23.196      861.572
08/10/2013  13:10:00       13.437       62.872       67.844       56.262       66.811       50.447     3165.439     4463.684     2544.871        0.945        0.509       64.292       41.363        0.414      346.048       24.016      861.566
08/10/2013  13:11:00      100.629      101.171       15.421       96.629       66.758       46.626     9337.134     4456.576     2174.014        1.828        0.798      142.694       41.727        0.086      346.539       24.857      861.547
08/10/2013  13:12:00      118.208      124.928        7.680       82.680       54.820       54.005     6836.022     3005.285     2916.510        2.120        0.638      171.989       45.637        0.070      346.128       24.150      861.529
08/10/2013  13:13:00       82.660       92.747       40.314       56.479       28.763       40.788     3189.932      827.307     1663.676        1.137        0.284      124.236       32.798        0.070      346.127       24.151      861.519
08/10/2013  13:14:00       70.792       74.859       56.369       76.288       58.769       58.703     5819.862     3453.799     3446.030        1.325        0.636      103.031       50.587        0.241      346.531       24.845      861.514
08/10/2013  13:15:00       75.676       77.710       66.986       94.587       53.561       42.433     8946.789     2868.790     1800.584        1.493        0.681      108.470       30.654        0.080      346.779       25.271      861.491
08/10/2013  13:16:00      101.007       58.783       54.718       76.975       72.755       64.601     5925.103     5293.360     4173.313        1.602        0.770      116.867       47.253        0.163      346.862       25.414      861.491
08/10/2013  13:17:00       80.676      -81.017       45.923       95.986      163.651       83.980     9213.236    26781.800     7052.557        2.911        2.152      114.335      106.855        0.873      346.993       25.639      861.489
08/10/2013  13:18:00       64.252      -60.826       12.832       69.201       78.150       57.086     4788.710     6107.471     3258.834        1.107        0.708       88.477       64.875        0.538      346.806       25.319      861.478
08/10/2013  13:19:00       87.397     -111.378       20.264       84.222      115.637       66.167     7093.419    13371.840     4378.126        2.264        1.242      141.575       79.435        0.315      346.886       25.454      861.448
08/10/2013  13:20:00      109.766      -19.008       92.946      114.668      143.851       93.433    13148.677    20693.136     8729.669        3.180        2.129      111.400      107.290        0.928      346.905       25.487      861.443
08/10/2013  13:21:00      137.178      119.990       94.729       94.722      113.444      100.583     8972.172    12869.519    10116.968        3.707        1.598      182.251       83.192        0.208      346.415       24.644      861.430
08/10/2013  13:22:00       41.186      -10.717        9.788       68.556       93.242       42.167     4699.932     8694.023     1778.036        0.854        0.759       42.558       28.575        0.451      346.838       25.374      861.438
08/10/2013  13:23:00      -13.694      -23.147       27.329       57.778       67.220       47.717     3338.295     4518.480     2276.941        0.580        0.507       26.894       47.615        3.135      347.235       26.057      861.409
08/10/2013  13:24:00       92.232       61.230       93.330       87.073      106.276       83.179     7581.705    11294.635     6918.779        2.338        1.290      110.707       75.406        0.464      347.006       25.661      861.381
08/10/2013  13:25:00      120.215       81.806       75.072      129.160      115.820       64.396    16682.241    13414.363     4146.850        3.051        1.712      145.409       60.066        0.171      347.012       25.672      861.356
08/10/2013  13:26:00       36.895      -60.738       45.304       64.236      108.744       71.281     4126.291    11825.300     5080.964        1.406        1.052       71.066       74.105        1.087      347.239       26.064      861.372
08/10/2013  13:27:00      150.937     -202.242      -11.406       85.410       96.764       58.939     7294.914     9363.319     3473.799        4.197        1.007      252.357       60.480        0.057      346.816       25.334      861.383
08/10/2013  13:28:00      156.847     -222.882      -42.542       78.778       98.473       47.910     6205.975     9696.882     2295.345        4.714        0.910      272.538       41.109        0.023      346.457       24.714      861.392
08/10/2013  13:29:00       29.142      -60.716       35.631       49.851      113.976       59.509     2485.077    12990.618     3541.297        1.241        0.951       67.347       74.527        1.225      346.657       25.064      861.428
08/10/2013  13:30:00      -32.410        4.449       11.775       44.784       52.355       34.017     2005.623     2741.071     1157.176        0.356        0.295       32.714       26.939        0.678      346.987       25.630      861.384
08/10/2013  13:31:00      -40.480       28.559        3.607       73.826       23.984       33.973     5450.333      575.242     1154.157        0.482        0.359       49.541       43.310        0.764      346.617       24.994      861.331
08/10/2013  13:32:00      119.151       78.596        0.748      102.184       28.704       36.390    10441.636      823.942     1324.248        1.648        0.629      142.739       16.343        0.013      346.496       24.785      861.311
08/10/2013  13:33:00       86.275       82.988       10.299       77.268       52.703       39.100     5970.308     2777.570     1528.840        1.235        0.514      119.709       19.559        0.027      346.617       24.992      861.307
08/10/2013  13:34:00      -90.965       12.382      -35.017       84.882       95.052       51.244     7204.948     9034.864     2625.974        1.426        0.943       91.804       47.109        0.263      346.708       25.150      861.299
08/10/2013  13:35:00       58.208      -55.260       35.076       76.085       70.780       48.886     5788.878     5009.836     2389.818        1.043        0.659       80.261       53.175        0.439      347.101       25.826      861.294
08/10/2013  13:36:00       -7.233      -14.230       27.077       42.059       49.891       30.783     1768.973     2489.083      947.592        0.310        0.260       15.963       24.320        2.321      347.159       25.927      861.288
08/10/2013  13:37:00       11.316       10.293       32.151       24.907       25.951       31.815      620.337      673.434     1012.169        0.179        0.115       15.297       17.971        1.380      347.579       26.651      861.277
08/10/2013  13:38:00      137.967     -187.289      -31.345      100.130      123.873       71.480    10025.945    15344.635     5109.375        4.278        1.524      232.620       72.989        0.098      346.822       25.344      861.260
08/10/2013  13:39:00      152.348     -200.735      -30.306      100.739      116.647       74.053    10148.336    13606.441     5483.786        4.683        1.462      252.001       76.793        0.093      346.950       25.563      861.232
08/10/2013  13:40:00      204.079     -248.441      -65.890      100.346       97.269       65.226    10069.415     9461.214     4254.487        6.574        1.189      321.514       52.466        0.027      346.673       25.087      861.238
08/10/2013  13:41:00      147.603     -249.311        2.292      127.958      180.125       94.817    16373.246    32445.014     8990.196        7.087        2.890      289.728      114.547        0.156      346.816       25.332      861.231
08/10/2013  13:42:00       43.771     -176.917       10.594       86.854      134.323       77.167     7543.643    18042.775     5954.679        3.243        1.577      182.251       77.060        0.179      346.931       25.531      861.236
08/10/2013  13:43:00       80.794     -117.703       17.154       68.557      109.436       59.979     4700.068    11976.321     3597.468        2.047        1.014      142.764       58.950        0.170      346.937       25.542      861.222
08/10/2013  13:44:00      188.853     -143.242       25.945      148.480      187.903      108.959    22046.450    35307.543    11872.029        6.303        3.461      237.031      137.950        0.339      346.851       25.395      861.168
08/10/2013  13:45:00      188.245     -243.153      -39.408      118.368      148.945       86.316    14011.052    22184.654     7450.461        6.987        2.182      307.506       76.820        0.062      346.787       25.283      861.144
08/10/2013  13:46:00      133.872      -77.571       31.926      177.451      205.682      116.236    31488.916    42305.121    13510.834        5.612        4.365      154.722      146.830        0.901      346.902       25.481      861.148
08/10/2013  13:47:00       87.989     -132.221       -7.017       84.612      123.494       77.931     7159.171    15250.752     6073.258        2.687        1.424      158.822       86.875        0.299      346.992       25.635      861.185
08/10/2013  13:48:00       60.362      -72.232       23.907       71.287       79.952       45.983     5081.841     6392.292     2114.396        1.151        0.679       94.133       52.713        0.314      347.233       26.054      861.198
08/10/2013  13:49:00       79.295      122.667       54.069       63.908       47.956       56.873     4084.198     2299.800     3234.545        1.694        0.481      146.064       14.438        0.010      347.049       25.736      861.202
08/10/2013  13:50:00      100.726       98.797       28.858       62.734       54.794       54.336     3935.495     3002.391     2952.406        1.531        0.495      141.091       25.722        0.033      347.041       25.722      861.220
08/10/2013  13:51:00      148.876       51.557       60.706      162.300      223.252      102.505    26341.450    49841.574    10507.374        5.758        4.335      157.551       97.631        0.384      347.111       25.841      861.197
08/10/2013  13:52:00      128.360     -126.291       25.047      135.181      178.699      106.045    18273.881    31933.508    11245.549        4.724        3.073      180.072      138.856        0.595      346.857       25.405      861.211
08/10/2013  13:53:00       84.163      -30.476       34.163       78.619      114.584       83.363     6180.974    13129.551     6949.453        1.772        1.313       89.511       95.284        1.133      346.913       25.501      861.229
08/10/2013  13:54:00       29.988       31.290       42.446       36.475       33.786       26.797     1330.457     1141.521      718.063        0.343        0.160       43.340       15.844        0.134      347.211       26.015      861.234
08/10/2013  13:55:00       53.503       55.208       -5.028       32.929       60.096       33.260     1084.308     3611.473     1106.259        0.587        0.290       76.880       19.288        0.063      346.960       25.583      861.230
08/10/2013  13:56:00       53.309      112.133      -13.408       44.471       54.309       36.699     1977.653     2949.498     1346.835        1.093        0.314      124.160       31.799        0.066      346.803       25.314      861.203
08/10/2013  13:57:00       60.475       69.631      -11.006       30.934       42.034       33.619      956.908     1766.826     1130.245        0.624        0.193       92.226       24.933        0.073      346.833       25.366      861.190
08/10/2013  13:58:00      131.836       76.936        9.567       50.376       53.656       37.174     2537.696     2879.008     1381.888        1.509        0.340      152.643       25.838        0.029      346.736       25.196      861.191
08/10/2013  13:59:00       94.744       79.253        2.633       47.490       41.383       38.443     2255.256     1712.587     1477.852        1.035        0.272      123.521       23.430        0.036      346.866       25.422      861.191
08/10/2013  14:00:00       52.839       85.108       -0.994       36.786       46.342       32.558     1353.176     2147.574     1060.032        0.730        0.228      100.177       32.999        0.109      346.911       25.500      861.176
08/10/2013  14:01:00       57.845       61.472        1.890       48.886       39.833       33.134     2389.798     1586.683     1097.853        0.610        0.254       84.409       23.844        0.080      347.282       26.137      861.147
08/10/2013  14:02:00       71.039       79.999       13.550       53.110       57.546       34.622     2820.714     3311.534     1198.678        0.948        0.367      106.988       24.775        0.054      347.048       25.734      861.131
08/10/2013  14:03:00       56.789       22.224       32.870       71.229       41.489       56.443     5073.560     1721.338     3185.822        0.739        0.499       60.983       49.491        0.659      347.046       25.731      861.115
08/10/2013  14:04:00       15.067       -5.305       36.453       31.256       59.746       29.608      976.961     3569.628      876.615        0.350        0.271       15.974       34.380        4.632      347.626       26.732      861.109
08/10/2013  14:05:00      118.209     -207.855      -34.022       63.748       55.631       38.453     4063.770     3094.818     1478.628        3.348        0.432      239.117       23.424        0.010      346.783       25.275      861.100
08/10/2013  14:06:00      -20.260      -94.232      -27.073       76.797       78.580       32.155     5897.830     6174.879     1033.971        1.156        0.655       96.385       37.773        0.154      346.891       25.464      861.103
08/10/2013  14:07:00      -57.532      -24.314        5.937       49.379       43.143       29.822     2438.272     1861.348      889.363        0.456        0.259       62.459       22.507        0.130      347.364       26.278      861.090
08/10/2013  14:08:00      -12.784       10.142       28.842       41.605       37.251       28.808     1730.943     1387.643      829.928        0.252        0.197       16.318       25.966        2.532      347.737       26.924      861.094
08/10/2013  14:09:00       21.176     -107.868      -15.590       44.338       60.180       42.650     1965.836     3621.638     1819.014        0.987        0.370      109.927       37.439        0.116      347.253       26.089      861.118
08/10/2013  14:10:00      -19.988       -6.958       41.350       47.731       55.281       35.534     2278.254     3055.954     1262.697        0.438        0.330       21.164       34.357        2.635      347.637       26.750      861.128
08/10/2013  14:11:00      -58.967      -70.373        7.707       63.706       76.726       41.771     4058.481     5886.943     1744.847        1.009        0.585       91.812       41.913        0.208      347.357       26.267      861.134
08/10/2013  14:12:00      -19.783       -7.013      -25.137       37.107       68.721       25.254     1376.953     4722.611      637.749        0.390        0.337       20.990       30.601        2.125      347.032       25.708      861.106
08/10/2013  14:13:00       13.969       21.358       21.177       24.017       27.694       21.534      576.794      766.957      463.716        0.145        0.090       25.520       19.867        0.606      347.716       26.887      861.088
08/10/2013  14:14:00       -2.504      -72.525       17.351       39.761       84.823       29.673     1580.942     7194.969      880.503        0.761        0.483       72.568       18.105        0.062      347.482       26.483      861.088
08/10/2013  14:15:00     -253.123       -9.027       -7.754      137.277      110.396       57.040    18844.957    12187.232     3253.553        4.924        1.714      253.284       70.708        0.078      347.228       26.042      861.075
08/10/2013  14:16:00     -124.291     -115.029       16.853      105.995      109.817       52.392    11234.926    12059.783     2744.904        2.750        1.302      169.351       53.678        0.100      347.302       26.170      861.063
08/10/2013  14:17:00     -128.761       45.819        3.900       87.664       81.107       51.108     7685.030     6578.276     2611.979        1.778        0.844      136.670       43.881        0.103      347.551       26.601      861.044
08/10/2013  14:18:00     -258.752      131.603      -41.554      104.192      121.217       44.038    10856.062    14693.602     1939.383        5.674        1.374      290.296       42.266        0.021      347.395       26.329      861.074
08/10/2013  14:19:00     -131.589       28.701      -10.328       90.664       44.671       41.207     8220.038     1995.470     1697.981        1.508        0.596      134.683       40.277        0.089      347.732       26.914      861.075
08/10/2013  14:20:00     -196.209       17.110       -7.916      121.180       80.299       54.848    14684.609     6447.876     3008.255        3.149        1.207      196.953       64.546        0.107      347.605       26.694      861.084
08/10/2013  14:21:00      -21.142     -161.790       -1.226       61.377       71.108       35.422     3767.126     5056.308     1254.723        1.835        0.504      163.165       15.427        0.009      347.273       26.122      861.080
08/10/2013  14:22:00      -81.360      -86.442        2.758       75.833       67.851       40.436     5750.669     4603.742     1635.047        1.304        0.599      118.708       37.405        0.099      347.475       26.470      861.061
08/10/2013  14:23:00     -178.002      -24.844        6.670      176.841       68.654       56.720    31272.652     4713.406     3217.207        3.577        1.960      179.727       81.348        0.205      347.625       26.727      861.080
08/10/2013  14:24:00     -302.412       27.390      -24.215      140.589       91.879       58.737    19765.368     8441.706     3450.083        6.222        1.583      303.650       68.691        0.051      347.409       26.355      861.072
08/10/2013  14:25:00     -219.184       48.595      -17.618       97.789       85.676       46.574     9562.702     7340.403     2169.152        3.489        0.954      224.507       44.524        0.039      347.248       26.078      861.096
08/10/2013  14:26:00     -346.942        0.618      -42.235      179.079       79.401       56.148    32069.388     6304.466     3152.580        8.183        2.076      346.943       52.510        0.023      347.281       26.134      861.088
08/10/2013  14:27:00     -350.854      -49.901      -39.029      124.045      111.219       51.337    15387.057    12369.647     2635.501        7.875        1.520      354.385       56.819        0.026      347.178       25.955      861.086
08/10/2013  14:28:00      -92.700      131.907       -8.936      105.744       61.272       52.029    11181.822     3754.271     2707.058        2.185        0.882      161.223       47.691        0.088      347.374       26.296      861.101
08/10/2013  14:29:00      -26.123      154.652       -7.747       40.716       82.279       42.874     1657.816     6769.854     1838.189        1.746        0.513      156.843       43.884        0.078      347.304       26.175      861.074
08/10/2013  14:30:00       57.480       59.775       10.555       51.850       48.589       23.895     2688.376     2360.848      570.988        0.630        0.281       82.927       18.829        0.052      347.348       26.252      861.047
08/10/2013  14:31:00      -29.443       42.410      -10.520       60.891       64.597       24.475     3707.749     4172.712      599.050        0.563        0.424       51.629       22.998        0.198      347.540       26.583      861.048
08/10/2013  14:32:00      -87.509     -121.401       -6.954       74.922       59.770       32.152     5613.324     3572.500     1033.769        1.633        0.511      149.652       33.919        0.051      347.136       25.887      861.061
08/10/2013  14:33:00     -285.082     -235.694       -1.924      175.216      113.084       80.886    30700.539    12787.963     6542.568        9.342        2.502      369.896       85.916        0.054      347.392       26.324      861.010
08/10/2013  14:34:00      -94.277      -85.685        1.948      132.154       95.196       59.201    17464.659     9062.212     3504.746        2.313        1.502      127.397       55.632        0.191      347.742       26.930      861.031
08/10/2013  14:35:00     -201.688       -7.660        6.233      128.031       93.391       62.956    16392.021     8721.918     3963.412        3.492        1.454      201.833       70.375        0.122      347.947       27.283      861.038
08/10/2013  14:36:00     -184.234     -135.866        1.645      133.201      126.651       73.405    17742.424    16040.525     5388.251        4.578        1.959      228.914       71.036        0.096      347.592       26.669      861.031
08/10/2013  14:37:00     -341.976      -73.094      -14.076      227.851      162.635       71.056    51916.027    26450.275     5048.942       10.294        4.171      349.701       91.160        0.068      347.546       26.590      861.013
08/10/2013  14:38:00     -264.764      -21.457      -19.369      151.812      119.856       53.984    23047.005    14365.539     2914.243        5.562        2.016      265.632       60.953        0.053      347.547       26.593      861.045
08/10/2013  14:39:00     -127.320      -13.506       -3.794      106.218       61.047       43.941    11282.275     3726.754     1930.780        1.667        0.847      128.035       28.003        0.048      347.755       26.953      861.035
08/10/2013  14:40:00     -245.175      -93.383       -7.946      146.972       98.705       61.368    21600.905     9742.625     3766.037        5.200        1.755      262.357       61.261        0.055      347.665       26.796      861.027
08/10/2013  14:41:00     -216.214     -198.823       -7.672      110.275       84.482       52.192    12160.495     7137.264     2724.046        5.418        1.101      293.733       47.393        0.026      347.191       25.978      861.034
08/10/2013  14:42:00     -374.590     -180.398      -11.722      229.857       89.472       58.919    52834.100     8005.311     3471.461       11.864        3.216      415.766       76.214        0.034      347.210       26.010      861.001
08/10/2013  14:43:00     -388.394     -103.638      -15.033      189.062      144.047       71.350    35744.278    20749.467     5090.886       11.169        3.079      401.983       84.908        0.045      347.180       25.960      861.010
08/10/2013  14:44:00     -438.151     -119.971      -20.078      156.331      111.003       67.315    24439.239    12321.754     4531.293       12.403        2.065      454.279       68.357        0.023      347.217       26.021      861.007
08/10/2013  14:45:00     -498.383      -11.170      -29.855      182.534      114.005       85.861    33318.591    12997.101     7372.136       15.154        2.684      498.508       97.183        0.038      347.294       26.157      860.966
08/10/2013  14:46:00     -315.120     -132.722      -14.561      175.923      105.989       65.010    30949.000    11233.734     4226.260        8.176        2.320      341.929       66.505        0.038      347.207       26.007      860.958
08/10/2013  14:47:00     -330.721      -59.953      -30.261      107.826      103.233       53.887    11626.515    10656.981     2903.759        6.953        1.259      336.111       48.595        0.021      347.328       26.213      860.936
08/10/2013  14:48:00     -166.916       39.585        9.935      106.252      118.605       63.577    11289.473    14067.073     4042.066        2.946        1.470      171.545       60.898        0.126      347.754       26.949      860.926
08/10/2013  14:49:00     -124.383      133.875      -27.172       82.967      105.829       61.384     6883.575    11199.683     3767.994        2.799        1.093      182.739       61.970        0.115      347.598       26.680      860.895
08/10/2013  14:50:00     -225.462       16.688       -4.731      111.154      117.960       59.105    12355.246    13914.665     3493.349        4.044        1.488      226.078       44.356        0.038      347.842       27.101      860.874
08/10/2013  14:51:00     -206.126       44.528      -22.921       98.908       91.052       60.562     9782.814     8290.430     3667.766        3.337        1.087      210.881       51.165        0.059      347.848       27.112      860.868
08/10/2013  14:52:00     -379.187     -180.836      -25.781      146.162      164.349       74.194    21363.286    27010.512     5504.813       11.551        2.694      420.101       61.997        0.022      347.519       26.544      860.878
08/10/2013  14:53:00     -390.465      -99.105      -19.046      252.908      184.118       85.209    63962.631    33899.514     7260.582       13.387        5.256      402.845      110.741        0.076      347.411       26.357      860.870
08/10/2013  14:54:00     -348.592     -153.392       -7.590      176.510      143.964       79.089    31155.946    20725.768     6255.049       10.161        2.907      380.848       86.562        0.052      347.489       26.492      860.864
08/10/2013  14:55:00     -418.483      -76.734      -42.022      167.299      140.726       66.063    27989.036    19803.846     4364.276       11.746        2.608      425.460       77.432        0.033      347.397       26.334      860.859
08/10/2013  14:56:00     -408.551      -42.616      -33.688      128.068      134.624       59.321    16401.372    18123.737     3519.018       10.395        1.902      410.768       61.836        0.023      347.327       26.211      860.853
08/10/2013  14:57:00     -351.388     -107.793      -23.178      136.965      137.407       64.979    18759.322    18880.635     4222.252        8.874        2.093      367.550       56.090        0.023      347.336       26.226      860.803
08/10/2013  14:58:00     -279.754       95.051      -17.866      207.969      104.013       68.752    43251.044    10818.625     4726.834        7.320        2.940      295.461       82.727        0.078      347.275       26.124      860.782
08/10/2013  14:59:00     -303.917      -45.194      -24.358      105.624      131.824       57.756    11156.349    17377.460     3335.806        6.343        1.593      307.259       26.271        0.007      347.715       26.880      860.784
08/10/2013  15:00:00     -273.562      -85.408        2.978      174.449      114.246       63.076    30432.373    13052.252     3978.523        6.479        2.373      286.585       66.167        0.053      347.991       27.358      860.796
08/10/2013  15:01:00     -238.797       -1.454      -10.917      105.412      102.078       49.486    11111.775    10419.943     2448.877        4.056        1.199      238.802       52.369        0.048      347.692       26.842      860.789
08/10/2013  15:02:00     -195.846      -16.113       -3.581      149.203       92.888       65.403    22261.628     8628.204     4277.525        3.689        1.758      196.508       70.562        0.129      347.804       27.035      860.762
08/10/2013  15:03:00     -397.017      -41.597      -29.802      115.462      154.862       57.017    13331.419    23982.088     3250.898       10.040        2.028      399.190       52.412        0.017      347.357       26.263      860.753
08/10/2013  15:04:00     -254.378     -132.926      -15.901      106.188       77.652       44.452    11275.937     6029.796     1976.018        5.095        0.964      287.015       41.360        0.021      347.234       26.052      860.735
08/10/2013  15:05:00     -252.175       66.584      -24.615       77.265       75.883       40.054     5969.914     5758.263     1604.294        4.098        0.667      260.818       32.026        0.015      347.530       26.561      860.740
08/10/2013  15:06:00     -164.282       39.340      -14.919       90.720       90.685       46.692     8230.127     8223.691     2180.141        2.369        0.932      168.927       43.005        0.065      347.646       26.763      860.736
08/10/2013  15:07:00      -95.466       88.439       18.595      172.554      112.839       71.216    29774.777    12732.673     5071.660        3.242        2.379      130.135       75.133        0.333      347.738       26.924      860.722
08/10/2013  15:08:00      -20.283      -28.348       28.120      115.573      100.030       55.490    13357.171    10005.971     3079.103        1.422        1.322       34.857       48.659        1.949      347.925       27.247      860.698
08/10/2013  15:09:00     -150.063        3.750      -11.592       88.066      105.751       57.159     7755.589    11183.359     3267.115        2.243        1.110      150.110       49.953        0.111      347.686       26.832      860.704
08/10/2013  15:10:00     -124.706       73.578       -7.977       82.279       97.524       52.101     6769.830     9510.856     2714.545        2.001        0.950      144.794       35.809        0.061      347.533       26.569      860.695
08/10/2013  15:11:00     -165.644      -44.696       -6.850      199.773       77.902       57.632    39909.350     6068.730     3321.472        3.938        2.465      171.568       77.199        0.202      347.804       27.038      860.669
08/10/2013  15:12:00     -169.966      -78.280       -5.590      139.333       92.321       55.186    19413.558     8523.182     3045.464        3.301        1.549      187.126       68.039        0.132      347.848       27.111      860.657
08/10/2013  15:13:00     -285.571      -74.942      -15.932      184.168      135.445       70.927    33917.921    18345.217     5030.607        7.235        2.865      295.241       75.793        0.066      347.860       27.133      860.670
08/10/2013  15:14:00     -239.786       11.713        8.143      162.408      119.910       69.785    26376.369    14378.355     4869.913        5.166        2.281      240.072       71.637        0.089      347.663       26.794      860.690
08/10/2013  15:15:00     -325.320     -169.620       -6.477      201.550      144.195       72.945    40622.306    20792.160     5320.911       10.068        3.337      366.884       78.105        0.045      347.589       26.664      860.673
08/10/2013  15:16:00     -414.825     -243.273      -25.285      180.865      171.998       88.066    32711.970    29583.410     7755.662       15.096        3.503      480.897       91.085        0.036      347.536       26.574      860.650
08/10/2013  15:17:00     -380.061     -114.496       -3.387      221.042      119.706       71.515    48859.599    14329.418     5114.439       11.292        3.415      396.933       93.129        0.055      347.515       26.537      860.628
08/10/2013  15:18:00     -246.918     -141.511       -2.325      173.258      133.452       90.020    30018.415    17809.394     8103.537        6.846        2.797      284.594       97.151        0.117      347.825       27.072      860.660
08/10/2013  15:19:00     -278.690     -162.156      -13.225      209.217      132.608       88.361    43771.632    17584.944     7807.713        8.664        3.458      322.432      102.204        0.100      347.689       26.837      860.653
08/10/2013  15:20:00     -498.602     -133.568      -13.468      248.166      186.404       98.588    61586.416    34746.346     9719.652       18.632        5.303      516.182      118.064        0.052      347.587       26.660      860.658
08/10/2013  15:21:00     -406.377      -88.275      -13.720      177.701      151.462       75.118    31577.802    22940.768     5642.677       11.663        3.008      415.855       77.313        0.035      347.548       26.595      860.680
08/10/2013  15:22:00     -251.048     -143.768        6.577      192.636      174.581       84.903    37108.469    30478.481     7208.508        7.925        3.740      289.299      104.603        0.131      347.583       26.654      860.687
08/10/2013  15:23:00     -241.341     -183.933        3.527      227.539      130.892       80.922    51774.173    17132.806     6548.428        8.376        3.773      303.441      100.925        0.111      347.536       26.573      860.675
08/10/2013  15:24:00     -447.106      -85.365      -41.643      153.370       80.912       59.700    23522.410     6546.832     3564.090       12.127        1.682      455.183       57.950        0.016      347.224       26.034      860.710
08/10/2013  15:25:00     -325.160      -33.113      -27.599      118.752      105.661       51.070    14102.063    11164.196     2608.165        6.773        1.394      326.841       62.839        0.037      347.251       26.080      860.710
08/10/2013  15:26:00     -242.424      -72.974       20.378      183.801      111.347       75.721    33782.672    12398.136     5733.644        5.820        2.596      253.169       93.734        0.137      347.746       26.937      860.702
08/10/2013  15:27:00     -341.836      -16.923      -20.008      141.416      106.228       62.197    19998.623    11284.370     3868.427        7.634        1.758      342.254       55.452        0.026      347.885       27.175      860.708
08/10/2013  15:28:00     -227.294       -1.783      -13.387      127.652      114.277       55.745    16294.942    13059.263     3107.548        4.215        1.623      227.301       49.778        0.048      347.536       26.573      860.688
08/10/2013  15:29:00     -569.674      -38.522      -61.750      157.102      135.909       55.322    24680.996    18471.222     3060.496       18.801        2.311      570.975       55.728        0.010      347.236       26.055      860.661
08/10/2013  15:30:00     -304.454     -125.537       -7.227      150.200      170.304       80.369    22560.043    29003.534     6459.218        8.325        2.901      329.320       70.827        0.046      347.589       26.664      860.617
08/10/2013  15:31:00     -317.431      -28.398      -23.157      178.588      156.936       82.158    31893.824    24628.894     6749.903        8.268        3.164      318.699       90.918        0.081      347.665       26.795      860.610
08/10/2013  15:32:00     -287.597     -168.018        0.598      196.691      166.160       83.594    38687.252    27609.062     6987.882        9.210        3.664      333.080       90.153        0.073      347.488       26.489      860.612
08/10/2013  15:33:00     -187.695     -147.317       -1.249      159.899      157.197       74.946    25567.655    24710.863     5616.920        5.641        2.795      238.604       80.439        0.114      347.664       26.794      860.585
08/10/2013  15:34:00     -305.551     -121.123       -9.252      157.160      137.066       59.789    24699.379    18786.984     3574.696        7.758        2.353      328.682       64.256        0.038      347.581       26.649      860.593
08/10/2013  15:35:00     -340.774      -82.797       -7.787      150.995      144.798       67.502    22799.585    20966.326     4556.521        8.567        2.416      350.688       66.406        0.036      347.852       27.118      860.583
08/10/2013  15:36:00     -387.051     -118.909       -9.195      124.436      147.796       68.796    15484.401    21843.609     4732.847       10.304        2.103      404.904       73.864        0.033      347.707       26.867      860.600
08/10/2013  15:37:00     -338.815     -103.806      -22.507      117.756      108.430       65.465    13866.582    11757.030     4285.616        7.799        1.495      354.360       54.930        0.024      347.504       26.516      860.612
08/10/2013  15:38:00     -326.541     -174.376      -23.752      117.331      157.031       65.124    13766.561    24658.712     4241.195        9.013        2.133      370.183       66.580        0.032      347.444       26.413      860.600
08/10/2013  15:39:00     -108.121      -87.081       11.623      117.931      113.112       60.801    13907.760    12794.220     3696.725        2.490        1.520      138.828       59.428        0.183      347.754       26.951      860.585
08/10/2013  15:40:00     -234.261     -236.062       15.079      166.898      161.300       85.473    27855.014    26017.806     7305.664        8.599        3.059      332.571       93.848        0.080      347.486       26.486      860.578
08/10/2013  15:41:00     -100.450      -98.662       22.707      133.644      124.249       69.031    17860.752    15437.753     4765.308        2.920        1.903      140.799       69.004        0.240      347.873       27.156      860.581
08/10/2013  15:42:00     -269.775     -190.055        1.219      187.398      136.250       87.039    35118.120    18564.146     7575.873        8.507        3.063      329.999       95.591        0.084      347.482       26.479      860.543
08/10/2013  15:43:00     -288.784     -143.317       -4.324      160.342      183.822       87.400    25709.653    33790.593     7638.731        8.554        3.357      322.391       87.269        0.073      347.718       26.887      860.539
08/10/2013  15:44:00     -413.043     -116.644      -28.737      190.554      144.356       76.959    36310.810    20838.711     5922.662       12.404        3.154      429.197      105.316        0.060      347.817       27.056      860.550
08/10/2013  15:45:00     -320.023      -87.803        0.849      163.079      141.907       71.742    26594.892    20137.581     5146.886        8.099        2.594      331.849       85.781        0.067      347.960       27.304      860.555
08/10/2013  15:46:00     -357.778     -148.009      -17.441      207.740      149.780       82.899    43155.986    22434.027     6872.225       11.133        3.623      387.184       97.233        0.063      347.581       26.652      860.586
08/10/2013  15:47:00     -222.093     -145.785       14.611      195.030      147.878       68.898    38036.895    21867.927     4746.921        6.771        3.233      265.667       71.322        0.072      347.610       26.700      860.578
08/10/2013  15:48:00     -197.626     -153.194        4.708      141.733       89.660       63.199    20088.315     8038.995     3994.149        4.733        1.606      250.049       57.574        0.053      347.555       26.606      860.576
08/10/2013  15:49:00     -178.519     -147.597       -4.697      111.719      101.121       50.605    12481.066    10225.394     2560.852        3.947        1.263      231.634       42.477        0.034      347.702       26.860      860.578
08/10/2013  15:50:00     -189.593      -69.925        0.135      126.002       81.064       57.937    15876.422     6571.403     3356.691        3.332        1.290      202.077       70.850        0.123      347.964       27.313      860.581
08/10/2013  15:51:00     -110.394     -137.457       20.900      145.649      110.723       62.665    21213.719    12259.586     3926.861        3.445        1.870      176.299       67.888        0.148      347.516       26.540      860.557
08/10/2013  15:52:00     -272.031      -30.116       -2.722      173.239      117.568       63.651    30011.702    13822.138     4051.438        6.139        2.394      273.693       68.374        0.062      347.770       26.975      860.548
08/10/2013  15:53:00     -453.248     -131.968      -15.775      179.488      128.002       71.796    32215.765    16384.459     5154.693       13.842        2.688      472.069       77.949        0.027      347.555       26.604      860.552
08/10/2013  15:54:00     -441.177     -202.131      -29.819      154.667      129.877       63.413    23922.001    16868.046     4021.256       14.059        2.241      485.277       50.426        0.011      347.233       26.049      860.561
08/10/2013  15:55:00     -399.027     -102.256      -18.869      148.944      117.656       63.140    22184.427    13842.889     3986.609       10.502        2.001      411.921       56.833        0.019      347.536       26.573      860.519
08/10/2013  15:56:00     -337.003     -142.654       -9.333      194.269      122.818       80.494    37740.507    15084.147     6479.339        9.665        2.965      365.953       81.849        0.050      347.498       26.507      860.499
08/10/2013  15:57:00     -334.298      -63.593      -12.542      120.386      118.186       51.599    14492.764    13968.027     2662.454        7.353        1.556      340.292       45.589        0.018      347.537       26.573      860.518
08/10/2013  15:58:00     -342.392      -32.828      -19.381      134.129      135.219       64.096    17990.466    18284.196     4108.344        7.953        2.019      343.962       51.019        0.022      347.549       26.597      860.503
08/10/2013  15:59:00     -543.486      -74.900      -18.183      174.012      119.869       74.383    30280.050    14368.511     5532.869       17.574        2.509      548.623       77.793        0.020      347.386       26.313      860.485
08/10/2013  16:00:00     -394.042      -69.321       -3.225      163.482      150.660       65.875    26726.328    22698.347     4339.549       10.692        2.688      400.094       71.753        0.032      347.546       26.589      860.502
08/10/2013  16:01:00     -479.608      -16.761      -30.353      198.146      139.537       84.444    39261.995    19470.494     7130.844       14.853        3.293      479.901       99.714        0.043      347.484       26.483      860.509
08/10/2013  16:02:00     -332.065      -45.830      -15.704      190.051      102.148       66.590    36119.292    10434.226     4434.162        8.179        2.549      335.213       81.520        0.059      347.674       26.812      860.494
08/10/2013  16:03:00     -159.773      -83.098        9.979      157.622      122.958       67.793    24844.628    15118.651     4595.844        3.854        2.228      180.091       73.837        0.168      347.788       27.009      860.501
08/10/2013  16:04:00     -289.566     -231.481       -7.416      187.394      151.598       96.709    35116.640    22982.087     9352.548       10.246        3.373      370.718      106.229        0.082      347.589       26.665      860.482
08/10/2013  16:05:00     -261.783     -120.356       -9.909      236.116      107.491       59.746    55750.566    11554.371     3569.527        7.698        3.544      288.125       66.015        0.052      347.737       26.922      860.497
08/10/2013  16:06:00     -454.781      -93.166      -25.264      246.372      103.602       72.991    60699.322    10733.403     5327.690       14.644        3.838      464.225       96.614        0.043      347.598       26.681      860.471
08/10/2013  16:07:00     -282.838     -113.206        4.079      164.807      136.980       71.303    27161.372    18763.603     5084.137        7.191        2.550      304.652       72.051        0.056      347.851       27.116      860.475
08/10/2013  16:08:00     -230.648     -143.148        6.032      192.067      173.772      104.757    36889.770    30196.603    10973.978        7.588        3.903      271.458      119.075        0.192      347.726       26.899      860.474
08/10/2013  16:09:00     -566.262     -165.596      -18.296      248.849      146.092       94.865    61925.969    21342.968     8999.281       22.032        4.613      589.979      116.104        0.039      347.452       26.428      860.474
08/10/2013  16:10:00     -307.777     -124.452      -12.791      190.657      130.368       78.473    36350.165    16995.767     6158.079        8.493        2.975      331.987       81.896        0.061      347.445       26.416      860.487
08/10/2013  16:11:00     -439.207        1.165      -40.025      200.141      117.663       65.385    40056.326    13844.487     4275.146       12.633        2.909      439.209       69.466        0.025      347.439       26.406      860.468
08/10/2013  16:12:00     -607.645     -221.919      -26.141      185.267      152.953       78.533    34323.901    23394.674     6167.455       24.151        3.194      646.901       89.123        0.019      347.416       26.366      860.424
08/10/2013  16:13:00     -400.718     -135.133       -0.945      188.990      144.107       80.536    35717.125    20766.691     6486.030       12.089        3.148      422.890       96.477        0.052      347.590       26.666      860.452
08/10/2013  16:14:00     -285.086     -151.121      -21.217      168.712      162.233       71.697    28463.825    26319.467     5140.440        8.223        2.996      322.663       92.018        0.081      347.511       26.529      860.450
08/10/2013  16:15:00     -138.005       -5.258        1.482       83.182       65.058       37.888     6919.259     4232.592     1435.508        1.583        0.629      138.105       22.769        0.027      347.796       27.024      860.438
08/10/2013  16:16:00      -85.107      -45.771        9.848       75.497       67.584       38.923     5699.793     4567.631     1515.038        1.061        0.589       96.635       42.010        0.189      347.921       27.239      860.410
08/10/2013  16:17:00     -255.167      -65.142       -8.571      162.868       96.203       57.367    26525.957     9255.106     3291.006        5.424        1.954      263.351       67.647        0.066      347.773       26.982      860.418
08/10/2013  16:18:00     -121.715      -69.297       10.030      123.684      112.442       75.034    15297.622    12643.201     5630.074        2.664        1.679      140.059       66.510        0.225      347.853       27.121      860.374
08/10/2013  16:19:00     -273.803      -14.970        0.103      177.080      144.410       80.194    31357.448    20854.190     6431.126        6.691        2.932      274.212       85.508        0.097      347.876       27.161      860.398
08/10/2013  16:20:00     -531.355      -29.020      -28.351      204.138      146.262       70.962    41672.261    21392.478     5035.588       17.603        3.405      532.147       63.832        0.014      347.523       26.551      860.405
08/10/2013  16:21:00     -207.350     -126.024       14.808      151.989      139.310       70.897    23100.580    19407.141     5026.370        5.331        2.377      242.644       81.942        0.114      347.724       26.896      860.399
08/10/2013  16:22:00     -179.584      -34.403       -1.274      154.129      104.946       57.026    23755.709    11013.617     3251.991        3.572        1.901      182.850       61.965        0.115      347.953       27.294      860.405
08/10/2013  16:23:00     -350.421     -158.108      -14.456      223.126      166.139       81.122    49785.399    27602.044     6580.774       11.597        4.198      384.439      109.242        0.081      347.658       26.784      860.414
08/10/2013  16:24:00     -346.925      -65.421      -13.688      195.519      119.280       80.501    38227.617    14227.816     6480.473        9.187        2.947      353.040       92.898        0.069      347.701       26.858      860.439
08/10/2013  16:25:00     -449.226     -194.170      -18.972      279.609      171.747      104.716    78181.449    29497.193    10965.371       17.924        5.932      489.393      135.989        0.077      347.481       26.477      860.404
08/10/2013  16:26:00     -269.315     -160.133        2.085      155.726      166.784       83.604    24250.697    27816.798     6989.603        7.861        2.953      313.325       86.359        0.076      347.622       26.721      860.425
08/10/2013  16:27:00     -247.708     -204.294      -13.244      179.866      150.287       74.256    32351.821    22586.196     5513.914        8.185        3.023      321.085       86.048        0.072      347.731       26.910      860.423
08/10/2013  16:28:00     -428.884       -0.467      -18.271      198.650      127.947       86.238    39461.923    16370.440     7437.007       12.376        3.163      428.884       99.649        0.054      347.554       26.605      860.418
08/10/2013  16:29:00     -365.473     -128.290      -30.717      119.576       98.632       66.127    14298.481     9728.319     4372.841        8.968        1.420      387.336       55.922        0.021      347.583       26.654      860.418
08/10/2013  16:30:00     -361.573     -203.184       -8.057      193.450      160.395       97.793    37422.806    25726.707     9563.388       12.239        3.636      414.752      103.210        0.062      347.591       26.668      860.365
08/10/2013  16:31:00     -186.474      -11.855        3.250      171.086      178.060       89.615    29270.564    31705.286     8030.907        5.195        3.450      186.850      107.665        0.332      347.861       27.136      860.382
08/10/2013  16:32:00     -476.465       30.948      -35.456      178.860      159.100       86.536    31990.840    25312.750     7488.516       14.700        3.240      477.469       72.748        0.023      347.592       26.670      860.402
08/10/2013  16:33:00     -584.374      -11.949      -52.063      133.763      143.661       78.878    17892.671    20638.399     6221.741       19.454        2.238      584.496       64.143        0.012      347.346       26.245      860.396
08/10/2013  16:34:00     -393.251        0.015      -15.861      222.698      141.783       75.817    49594.304    20102.461     5748.206       11.516        3.772      393.251      103.579        0.069      347.451       26.424      860.409
08/10/2013  16:35:00     -436.995      -57.364      -29.214      235.988      158.684       73.393    55690.256    25180.615     5386.498       14.067        4.313      440.744       96.402        0.048      347.667       26.799      860.397
08/10/2013  16:36:00     -400.567      -40.264      -10.027      248.264      158.812       93.252    61635.076    25221.214     8695.866       12.885        4.778      402.585      119.344        0.088      347.604       26.691      860.374
08/10/2013  16:37:00     -379.105     -103.642       -3.580      194.167      142.771       88.841    37700.769    20383.673     7892.746       11.022        3.299      393.017       96.776        0.061      347.555       26.605      860.387
08/10/2013  16:38:00     -326.314        8.818      -23.665      181.603      143.958       76.764    32979.692    20723.863     5892.666        8.335        2.980      326.433       81.211        0.062      347.490       26.494      860.397
08/10/2013  16:39:00     -271.937     -241.918        0.185      177.438      172.327       90.115    31484.108    29696.617     8120.735       10.088        3.465      363.970      103.984        0.082      347.597       26.678      860.398
08/10/2013  16:40:00     -358.064     -129.127      -20.793      235.144      129.762       77.614    55292.597    16838.277     6023.896       11.172        3.908      380.635      105.741        0.077      347.619       26.717      860.404
08/10/2013  16:41:00     -275.338     -147.261        2.160      159.694      187.213       76.366    25502.296    35048.526     5831.739        8.193        3.319      312.245       89.140        0.082      347.606       26.695      860.410
08/10/2013  16:42:00     -395.361      -71.872      -14.570      242.443      209.967       90.112    58778.534    44086.023     8120.220       13.632        5.549      401.840      111.416        0.077      347.566       26.625      860.413
08/10/2013  16:43:00     -284.733     -186.492        7.513      247.435      188.223      108.705    61224.100    35428.017    11816.749       11.217        5.423      340.370      117.518        0.119      347.466       26.451      860.412
08/10/2013  16:44:00     -365.337     -148.648      -20.181      162.007      147.591       73.405    26246.270    21783.112     5388.350       10.469        2.671      394.420       73.701        0.035      347.409       26.354      860.423
08/10/2013  16:45:00     -309.708     -176.051       -8.090      172.228      123.580       77.861    29662.501    15271.998     6062.305        8.898        2.550      356.248       85.516        0.058      347.546       26.589      860.405
08/10/2013  16:46:00     -380.156      -43.795      -12.527      161.497      125.956       77.250    26081.137    15864.885     5967.617        9.725        2.396      382.670       71.523        0.035      347.633       26.740      860.403
08/10/2013  16:47:00     -407.908      -72.597      -19.121      239.567      145.049       85.544    57392.219    21039.224     7317.830       12.887        4.287      414.318      109.509        0.070      347.595       26.674      860.352
08/10/2013  16:48:00     -332.488     -126.276       -1.390      237.698      143.812       96.473    56500.247    20681.883     9307.105       10.648        4.324      355.660      117.084        0.108      347.664       26.794      860.354
08/10/2013  16:49:00     -407.337      -29.938      -22.221      146.379      126.238       71.046    21426.862    15936.026     5047.514       10.485        2.121      408.436       69.245        0.029      347.612       26.703      860.344
08/10/2013  16:50:00     -332.748     -185.855      -28.745      139.819      133.204       73.206    19549.396    17743.357     5359.081        9.436        2.133      381.134       66.072        0.030      347.699       26.854      860.335
08/10/2013  16:51:00     -221.349      -34.523       -2.237      119.649       89.977       55.663    14315.861     8095.787     3098.416        3.785        1.276      224.025       62.987        0.079      347.832       27.084      860.359
08/10/2013  16:52:00     -250.163       54.793      -17.810      121.863       60.560       35.871    14850.555     3667.564     1286.739        4.285        0.990      256.093       43.474        0.029      347.761       26.961      860.354
08/10/2013  16:53:00     -266.224      -64.183      -21.206      241.207       96.704       80.456    58180.717     9351.741     6473.220        7.471        3.700      273.851       99.624        0.132      347.925       27.245      860.352
08/10/2013  16:54:00     -287.873      -70.443       -1.836      150.220      105.210       69.328    22566.173    11069.239     4806.375        6.313        1.922      296.366       71.906        0.059      347.819       27.061      860.376
08/10/2013  16:55:00     -339.292      -23.380      -17.803      131.265       90.067       61.872    17230.548     8112.150     3828.164        7.257        1.459      340.097       71.251        0.044      347.783       26.999      860.378
08/10/2013  16:56:00     -433.834      -93.442      -14.298      173.448      130.919       62.105    30084.220    17139.712     3857.082       12.411        2.554      443.783       66.877        0.023      347.727       26.902      860.358
08/10/2013  16:57:00     -398.699      -71.116      -29.133      126.293      118.699       58.002    15950.025    14089.379     3364.274        9.913        1.670      404.992       55.521        0.019      347.641       26.754      860.364
08/10/2013  16:58:00     -484.939     -106.325      -47.951      224.245      130.158       66.084    50285.856    16941.100     4367.034       16.017        3.580      496.458       70.867        0.020      347.540       26.581      860.350
08/10/2013  16:59:00     -367.714      -72.152       -2.307      198.738      151.616       76.654    39496.636    22987.526     5875.866       10.438        3.418      374.726       88.648        0.056      347.651       26.772      860.370
08/10/2013  17:00:00     -476.033      -94.453      -20.906      204.068      179.703      100.639    41643.682    32293.061    10128.194       16.000        4.203      485.313       93.773        0.037      347.648       26.767      860.331
08/10/2013  17:01:00     -437.869      -95.005       -1.142      197.348      177.531       99.415    38946.158    31517.226     9883.330       14.054        4.017      448.057      107.250        0.057      347.620       26.718      860.357
08/10/2013  17:02:00     -212.113     -137.500       18.888      214.874      189.372       89.339    46170.694    35861.725     7981.456        7.712        4.501      252.781      103.230        0.167      347.754       26.950      860.412
08/10/2013  17:03:00     -241.546     -224.360       -2.314      194.596      171.329       99.223    37867.529    29353.486     9845.162        9.286        3.853      329.669      103.258        0.098      347.496       26.503      860.417
08/10/2013  17:04:00     -258.123     -180.096       -4.166      160.573      163.291       84.664    25783.637    26663.791     7168.053        7.934        2.981      314.741       91.477        0.084      347.453       26.430      860.416
08/10/2013  17:05:00     -359.914      -22.235       -7.070      199.721      153.902       82.141    39888.472    23685.977     6747.099       10.019        3.516      360.600       93.728        0.068      347.521       26.547      860.414
08/10/2013  17:06:00     -313.903     -193.456        9.229      161.775      132.045       74.849    26171.137    17435.993     5602.343        9.262        2.460      368.728       81.698        0.049      347.345       26.243      860.411
08/10/2013  17:07:00     -479.989     -120.394      -26.775      236.412      161.546       98.907    55890.764    26097.044     9782.503       16.867        4.589      494.858      114.150        0.053      347.442       26.410      860.398
08/10/2013  17:08:00     -286.098     -128.629      -23.489      189.366      134.612       79.780    35859.667    18120.276     6364.917        7.964        3.017      313.683       84.467        0.073      347.575       26.640      860.399
08/10/2013  17:09:00     -260.021      -52.748        7.915      168.447      129.410       65.690    28374.304    16747.059     4315.194        5.994        2.472      265.318       72.441        0.075      347.678       26.818      860.446
08/10/2013  17:10:00     -380.399     -146.371        0.613      236.550      151.832       86.787    55956.095    23053.032     7531.933       12.632        4.327      407.588       98.689        0.059      347.434       26.397      860.449
08/10/2013  17:11:00     -405.357     -105.416       -8.623      151.686      125.559       77.253    23008.716    15765.120     5967.953       11.011        2.237      418.839       81.326        0.038      347.354       26.257      860.455
08/10/2013  17:12:00     -253.025      -26.322      -11.494      105.975      117.778       63.467    11230.643    13871.703     4028.067        4.698        1.457      254.390       34.434        0.018      347.526       26.555      860.446
08/10/2013  17:13:00     -320.505     -111.835       -6.965      152.900      134.670       71.922    23378.441    18136.113     5172.782        8.098        2.334      339.456       75.473        0.049      347.506       26.520      860.439
08/10/2013  17:14:00     -556.764     -111.434      -24.508      188.321      158.276       91.493    35464.859    25051.146     8370.922       19.593        3.444      567.806       98.402        0.030      347.376       26.295      860.416
08/10/2013  17:15:00     -320.753      -10.760      -23.405      186.213      135.470       77.637    34675.438    18352.074     6027.540        8.129        2.953      320.933       89.854        0.078      347.480       26.477      860.426
08/10/2013  17:16:00     -343.430      -87.344       -4.107      207.266      184.776       82.793    42959.150    34142.019     6854.612       10.476        4.198      354.363       89.530        0.064      347.497       26.506      860.415
08/10/2013  17:17:00     -413.836     -113.381      -32.047      161.706      181.345       87.091    26148.828    32885.935     7584.821       12.587        3.331      429.087       88.644        0.043      347.485       26.485      860.401
08/10/2013  17:18:00     -434.572     -135.644      -36.150      240.072      138.606       88.503    57634.555    19211.695     7832.698       14.660        4.234      455.250       99.488        0.048      347.523       26.549      860.403
08/10/2013  17:19:00     -236.264       10.773       -2.233      194.848      106.227       69.355    37965.898    11284.156     4810.054        5.499        2.703      236.509       77.647        0.108      347.599       26.681      860.436
08/10/2013  17:20:00     -327.868      -87.002       -7.874      193.686      126.080       72.596    37514.439    15896.221     5270.241        8.690        2.934      339.215       69.248        0.042      347.605       26.691      860.438
08/10/2013  17:21:00     -431.621     -151.796      -16.233      238.887      175.550       87.494    57067.137    30817.901     7655.274       15.256        4.777      457.535      106.531        0.054      347.388       26.318      860.441
08/10/2013  17:22:00     -405.327      -99.750       -9.557      207.604      172.921       86.761    43099.397    29901.664     7527.401       12.742        4.026      417.420       97.696        0.055      347.353       26.257      860.427
08/10/2013  17:23:00     -310.139      -15.349        0.630      222.412      108.782       76.989    49466.998    11833.483     5927.293        8.181        3.361      310.519       91.298        0.086      347.494       26.502      860.457
08/10/2013  17:24:00     -296.349       -3.048        2.522      253.234      127.676       78.877    64127.420    16301.088     6221.554        8.723        4.333      296.364      103.726        0.122      347.503       26.516      860.476
08/10/2013  17:25:00     -247.403     -165.939       -2.050      181.368      164.249       79.740    32894.465    26977.572     6358.519        7.748        3.312      297.900       96.217        0.104      347.435       26.398      860.477
08/10/2013  17:26:00     -212.743     -164.972       11.193      175.774      147.282       77.227    30896.479    21692.037     5963.978        6.557        2.928      269.213       81.265        0.091      347.366       26.281      860.437
08/10/2013  17:27:00     -198.230       20.881       -9.234      119.154       73.701       58.466    14197.708     5431.859     3418.309        3.143        1.152      199.327       57.290        0.083      347.515       26.538      860.447
08/10/2013  17:28:00     -304.134      -63.982      -11.965      123.381      123.629       48.341    15222.879    15284.240     2336.873        6.478        1.642      310.791       50.082        0.026      347.513       26.534      860.430
08/10/2013  17:29:00     -322.516      -60.750        2.713      155.674      125.981       63.212    24234.383    15871.249     3995.747        7.590        2.205      328.187       69.929        0.045      347.519       26.544      860.425
08/10/2013  17:30:00     -466.015       -9.185      -29.784      149.248      142.056       72.123    22275.093    20179.800     5201.792       13.289        2.383      466.106       69.659        0.022      347.323       26.205      860.418
08/10/2013  17:31:00     -412.800      -76.263      -40.427      187.506       99.602       60.998    35158.450     9920.556     3720.759       11.332        2.440      419.785       74.900        0.032      347.483       26.483      860.442
08/10/2013  17:32:00     -251.122     -226.190       16.099      230.491      166.430      115.251    53126.076    27699.015    13282.692       10.428        4.705      337.970      121.216        0.129      347.372       26.291      860.435
08/10/2013  17:33:00     -236.888     -129.318      -11.221      158.437      130.473       72.862    25102.154    17023.077     5308.914        6.019        2.372      269.888       69.436        0.066      347.393       26.327      860.432
08/10/2013  17:34:00     -363.529     -226.139       -7.429      181.351      145.201       86.250    32888.108    21083.412     7439.000       12.237        3.071      428.127       75.246        0.031      347.219       26.026      860.433
08/10/2013  17:35:00     -214.291      -46.462        9.605      229.961      127.176       85.319    52882.138    16173.780     7279.393        6.224        3.817      219.270      107.959        0.242      347.448       26.422      860.468
08/10/2013  17:36:00     -550.815     -129.707      -24.094      195.273      120.549       77.694    38131.676    14532.124     6036.386       18.974        2.935      565.881       93.793        0.027      347.205       26.002      860.439
08/10/2013  17:37:00     -386.583     -268.574       -6.879      245.181      160.206       94.463    60113.753    25665.884     8923.352       15.815        4.735      470.721      115.729        0.060      347.245       26.071      860.416
08/10/2013  17:38:00     -263.036     -153.145      -10.231      161.467      126.011       66.731    26071.683    15878.653     4453.019        6.957        2.320      304.370       66.518        0.048      347.470       26.458      860.437
08/10/2013  17:39:00     -506.683     -146.307      -20.841      190.402      166.611       81.681    36252.735    27759.319     6671.789       17.461        3.534      527.384       71.693        0.018      347.210       26.010      860.445
08/10/2013  17:40:00     -310.852     -137.793        9.106      214.141      167.608       71.356    45856.478    28092.525     5091.735        9.736        3.952      340.023       79.722        0.055      347.348       26.249      860.414
08/10/2013  17:41:00     -553.814      -65.534      -38.517      196.422      146.921       80.627    38581.545    21585.708     6500.761       18.957        3.333      557.678       84.842        0.023      347.326       26.210      860.449
08/10/2013  17:42:00     -384.519     -106.455      -10.177      227.249      144.537       86.659    51642.137    20890.939     7509.815       11.965        4.002      398.983      104.512        0.069      347.272       26.117      860.427
08/10/2013  17:43:00     -408.380     -255.353      -17.567      202.986      181.843       98.448    41203.302    33067.049     9691.973       15.811        4.198      481.643       95.013        0.039      347.158       25.920      860.430
08/10/2013  17:44:00     -301.489     -207.826      -11.254      213.417      138.210       91.737    45546.849    19101.987     8415.675       10.363        3.653      366.179      110.461        0.091      347.235       26.053      860.413
08/10/2013  17:45:00     -237.126     -183.293       -1.363      178.768      126.721       83.363    31958.043    16058.194     6949.453        7.239        2.748      299.708       93.331        0.097      347.341       26.237      860.435
08/10/2013  17:46:00     -279.832       13.922       -6.717      242.874      158.158       80.682    58987.666    25014.089     6509.658        8.451        4.526      280.178       98.379        0.123      347.399       26.338      860.450
08/10/2013  17:47:00     -412.622      -47.787      -21.158      253.912      146.489       94.968    64471.361    21459.071     9018.967       13.395        4.747      415.380      132.324        0.101      347.292       26.152      860.438
08/10/2013  17:48:00     -391.069      -28.573      -23.523      166.885      140.169       84.977    27850.732    19647.369     7221.023       10.450        2.736      392.112       82.502        0.044      347.258       26.094      860.435
08/10/2013  17:49:00     -357.463      -85.818        8.084      263.126      167.136      107.492    69235.449    27934.536    11554.536       12.195        5.436      367.620      142.519        0.150      347.233       26.049      860.399
08/10/2013  17:50:00     -406.242      -94.971       -6.166      203.120      169.994       90.194    41257.856    28897.963     8135.033       12.618        3.915      417.195       98.993        0.056      347.266       26.106      860.392
08/10/2013  17:51:00     -547.323     -181.454      -27.902      223.981      204.655       98.562    50167.670    41883.602     9714.539       21.750        5.088      576.617      109.057        0.036      347.105       25.830      860.426
08/10/2013  17:52:00     -355.995     -210.133       -4.960      219.854      159.925       77.403    48335.585    25576.120     5991.286       12.539        3.995      413.386       92.212        0.050      347.163       25.931      860.428
08/10/2013  17:53:00     -547.916      -77.407      -39.697      202.195      177.499       95.778    40882.691    31506.025     9173.443       19.466        4.078      553.357       96.118        0.030      347.068       25.766      860.419
08/10/2013  17:54:00     -195.588      -45.072       -0.082      144.166      133.930       78.539    20783.800    17937.111     6168.326        4.258        2.244      200.714       83.691        0.174      347.288       26.147      860.428
08/10/2013  17:55:00     -435.034      -72.734      -18.651      226.755      145.634       81.916    51417.674    21209.240     6710.227       13.710        3.967      441.073       95.054        0.046      347.225       26.036      860.446
08/10/2013  17:56:00     -329.980     -111.561      -17.492      214.519      184.702       89.182    46018.429    34114.679     7953.494       10.485        4.404      348.328       91.783        0.069      347.148       25.904      860.405
08/10/2013  17:57:00     -460.977     -249.344      -27.982      279.456      183.750       99.722    78095.475    33764.160     9944.574       19.861        6.090      524.092      119.985        0.052      347.106       25.830      860.403
08/10/2013  17:58:00     -232.569      -86.362       16.398      254.335      157.158       94.404    64686.166    24698.622     8912.093        8.004        4.915      248.086      125.221        0.255      347.169       25.940      860.432
08/10/2013  17:59:00     -339.095     -205.142        6.466      241.755      180.761       96.053    58445.347    32674.387     9226.218       12.871        5.017      396.319      110.532        0.078      347.047       25.729      860.420
08/10/2013  18:00:00     -275.522      -95.369       -0.216      166.146      190.538      102.977    27604.328    36304.540    10604.336        7.975        3.726      291.560      100.594        0.119      347.072       25.774      860.381
08/10/2013  18:01:00     -249.846      -52.235        7.370      148.894       97.408       54.622    22169.446     9488.297     2983.526        4.992        1.732      255.248       34.808        0.019      347.239       26.063      860.405
08/10/2013  18:02:00     -523.809      -89.480      -40.749      214.137      159.986       94.463    45854.648    25595.444     8923.306       18.219        4.019      531.397      101.806        0.037      347.090       25.804      860.400
08/10/2013  18:03:00     -443.143     -124.090      -12.339      188.178      141.597       79.781    35410.911    20049.754     6365.039       13.687        3.091      460.189       76.455        0.028      347.150       25.907      860.391
08/10/2013  18:04:00     -427.031       14.657      -25.351      197.003      115.199       73.573    38810.277    13270.900     5413.044       12.034        2.875      427.282       85.438        0.040      347.204       26.000      860.403
08/10/2013  18:05:00     -460.082       -2.698      -37.793      189.689      146.629       73.480    35981.972    21500.081     5399.363       13.799        3.144      460.090       69.154        0.023      347.161       25.926      860.389
08/10/2013  18:06:00     -448.705      -59.750       -9.681      220.025      190.955       86.107    48411.046    36463.940     7414.443       14.863        4.614      452.665       90.978        0.040      347.133       25.879      860.378
08/10/2013  18:07:00     -402.636      -24.251       -7.263      149.690      131.742       71.775    22407.169    17355.898     5151.581       10.383        2.246      403.366       77.921        0.037      347.146       25.899      860.400
08/10/2013  18:08:00     -467.932     -151.606      -24.826      170.841      136.129       81.402    29186.703    18530.982     6626.238       14.844        2.717      491.879       78.437        0.025      347.072       25.773      860.409
08/10/2013  18:09:00     -276.804      -80.219      -13.851      180.042      110.444       70.350    32415.049    12197.838     4949.159        6.640        2.478      288.194       71.821        0.062      347.149       25.906      860.398
08/10/2013  18:10:00     -350.645      -18.554      -21.074      121.911      151.469       71.204    14862.317    22942.762     5069.983        8.330        2.144      351.135       58.457        0.028      347.084       25.794      860.416
08/10/2013  18:11:00     -438.670     -141.004      -32.575      130.576      188.816       69.690    17050.095    35651.552     4856.733       13.546        2.878      460.775       65.114        0.020      347.141       25.893      860.423
08/10/2013  18:12:00     -400.581     -141.030        5.965      184.805      155.681       86.902    34153.011    24236.483     7552.015       12.315        3.297      424.682       81.759        0.037      347.046       25.727      860.427
08/10/2013  18:13:00     -232.325     -103.844       -1.780      147.202      117.781       60.135    21668.299    13872.353     3616.205        5.195        1.958      254.477       73.347        0.083      347.185       25.969      860.456
08/10/2013  18:14:00      -96.755      -46.303       16.324      120.248       91.371       66.010    14459.611     8348.666     4357.265        1.946        1.358      107.264       57.965        0.292      347.338       26.235      860.487
08/10/2013  18:15:00     -235.621     -146.499       -7.565      162.938      183.916       96.330    26548.706    33825.110     9279.389        7.333        3.483      277.451       99.522        0.129      347.018       25.681      860.478
08/10/2013  18:16:00     -305.556        6.255      -14.431      143.860      117.292       61.083    20695.648    13757.360     3731.109        6.589        1.909      305.620       67.387        0.049      347.075       25.777      860.490
08/10/2013  18:17:00     -300.893     -144.933      -12.503      130.353      126.536       58.788    16991.783    16011.435     3456.031        7.407        1.823      333.979       57.037        0.029      346.979       25.612      860.475
08/10/2013  18:18:00     -377.655     -163.264      -13.936      242.509      143.672       88.034    58810.720    20641.557     7749.989       12.832        4.360      411.435      104.795        0.065      346.997       25.644      860.466
08/10/2013  18:19:00     -333.987      -54.228      -20.097      172.044      166.808       67.992    29599.073    27824.884     4622.880        8.846        3.102      338.360       82.657        0.060      347.026       25.692      860.492
08/10/2013  18:20:00     -345.223     -127.153       12.334      225.176      199.560      110.594    50704.193    39824.087    12231.101       11.911        5.138      367.895      123.329        0.112      346.878       25.439      860.461
08/10/2013  18:21:00     -135.471     -111.751       16.148      147.436      111.387       74.426    21737.491    12406.963     5539.239        3.539        1.984      175.616       83.639        0.227      346.864       25.415      860.468
08/10/2013  18:22:00     -218.413      -70.722       -1.168      185.113      102.473       66.060    34266.991    10500.799     4363.884        5.091        2.457      229.577       83.657        0.133      346.833       25.360      860.482
08/10/2013  18:23:00     -284.986      -75.119       -3.957      168.182      111.337       74.363    28285.118    12395.979     5529.815        6.654        2.311      294.720       98.235        0.111      346.881       25.444      860.495
08/10/2013  18:24:00     -433.448     -112.741       -3.853      189.127      139.298       81.866    35769.056    19403.884     6702.073       13.123        3.094      447.870       65.355        0.021      346.817       25.332      860.487
08/10/2013  18:25:00     -452.333     -153.988       -5.579      210.421      154.005       80.003    44277.179    23717.497     6400.500       15.136        3.720      477.826       94.161        0.039      346.791       25.288      860.478
08/10/2013  18:26:00     -320.765      -83.452       -8.144      167.746      145.252       71.900    28138.797    21098.208     5169.625        8.215        2.720      331.443       74.762        0.051      346.940       25.546      860.516
08/10/2013  18:27:00     -423.020     -241.425      -36.930      247.188      175.954       91.961    61101.713    30959.782     8456.834       16.954        5.026      487.065      100.393        0.042      346.742       25.204      860.494
08/10/2013  18:28:00     -132.303      -59.675       -3.757      119.706      105.449       68.198    14329.510    11119.552     4650.949        2.558        1.505      145.138       66.369        0.209      346.910       25.495      860.488
08/10/2013  18:29:00     -296.662     -113.753       -7.756      149.304      111.304       69.423    22291.787    12388.504     4819.555        7.025        1.975      317.723       74.278        0.055      346.857       25.403      860.507
08/10/2013  18:30:00     -459.133     -267.421      -18.372      269.280      165.547       79.395    72511.937    27405.671     6303.610       19.442        5.311      531.335      106.336        0.040      346.822       25.342      860.509
08/10/2013  18:31:00     -500.907     -164.210       -9.992      208.731      234.321       97.229    43568.674    54906.168     9453.574       19.293        5.396      527.136       86.607        0.027      346.791       25.290      860.540
08/10/2013  18:32:00     -294.511     -165.094      -17.710      182.492      165.983       94.463    33303.385    27550.467     8923.263        9.203        3.489      337.628       88.726        0.069      346.775       25.262      860.549
08/10/2013  18:33:00     -392.835     -163.314      -19.485      228.159      184.124       95.567    52056.463    33901.600     9133.111       13.821        4.755      425.430      120.290        0.080      346.711       25.151      860.538
08/10/2013  18:34:00     -414.093     -204.850      -24.355      186.539      192.703      103.034    34796.620    37134.416    10616.065       14.827        4.127      461.992      110.267        0.057      346.717       25.161      860.548
08/10/2013  18:35:00     -302.932     -219.474       11.205      207.678      179.603      112.270    43130.325    32257.175    12604.545       11.401        4.400      374.081      127.323        0.116      346.649       25.045      860.540
08/10/2013  18:36:00     -311.804     -181.202      -25.635      144.265       92.666       72.772    20812.424     8586.949     5295.729        8.270        1.735      360.632       60.143        0.028      346.647       25.040      860.545
08/10/2013  18:37:00     -177.023       -9.794       -5.892      130.877       81.701       50.587    17128.841     6675.035     2559.041        2.891        1.318      177.294       47.949        0.073      346.817       25.337      860.554
08/10/2013  18:38:00     -266.111      -51.948      -17.494      113.160      126.396       51.764    12805.182    15976.031     2679.552        5.264        1.573      271.134       55.125        0.041      346.818       25.335      860.564
08/10/2013  18:39:00     -136.079       -2.839        6.271      123.554       94.861       52.388    15265.663     8998.699     2744.476        2.278        1.350      136.108       55.070        0.164      346.895       25.471      860.553
08/10/2013  18:40:00     -400.380      -53.983      -34.746      157.782      119.041       75.448    24895.188    14170.847     5692.444       10.458        2.238      404.003       71.567        0.031      346.815       25.331      860.573
08/10/2013  18:41:00     -289.894       -3.964       -6.241      202.462      167.641       94.775    40990.748    28103.353     8982.296        8.107        3.904      289.921      108.385        0.140      346.807       25.316      860.577
08/10/2013  18:42:00     -201.775      -74.462        2.241      193.868      149.326       85.881    37584.690    22298.209     7375.485        5.675        3.363      215.076       98.602        0.210      346.751       25.221      860.597
08/10/2013  18:43:00     -223.677      -97.111       -2.901      145.444      110.870       59.368    21153.871    12292.163     3524.543        4.821        1.849      243.848       64.403        0.070      346.793       25.292      860.577
08/10/2013  18:44:00     -370.345      -83.808      -23.421      120.260      130.741       55.957    14462.409    17093.163     3131.237        8.970        1.734      379.709       56.395        0.022      346.673       25.087      860.597
08/10/2013  18:45:00     -272.995      -79.779       -7.464      152.318      127.147       63.203    23200.899    16166.278     3994.576        6.215        2.168      284.414       59.604        0.044      346.718       25.164      860.593
08/10/2013  18:46:00     -307.843      -73.269        0.054      188.243      151.846       71.949    35435.524    23057.251     5176.660        8.189        3.183      316.442       88.230        0.078      346.745       25.209      860.606
08/10/2013  18:47:00     -307.643     -110.192       -8.246      163.575      131.013       67.235    26756.713    17164.309     4520.611        7.764        2.422      326.782       71.579        0.048      346.705       25.141      860.628
08/10/2013  18:48:00     -384.246     -124.297      -18.920      192.143      166.441       77.242    36918.986    27702.542     5966.298       11.701        3.529      403.850       79.188        0.038      346.644       25.036      860.635
08/10/2013  18:49:00     -391.544      -64.190      -33.838      149.047      128.090       61.403    22214.941    16407.109     3770.291       10.047        2.120      396.770       64.654        0.027      346.592       24.947      860.645
08/10/2013  18:50:00     -187.646      -22.492       -0.539      189.130       87.118       57.666    35770.038     7589.623     3325.405        4.119        2.334      188.989       75.616        0.160      346.659       25.063      860.628
08/10/2013  18:51:00     -154.091      -10.569      -11.063      101.009       85.594       35.281    10202.829     7326.294     1244.767        2.137        0.939      154.453       23.371        0.023      346.772       25.257      860.647
08/10/2013  18:52:00     -323.429      -90.090       -4.280      142.088       94.870       59.651    20188.896     9000.287     3558.245        7.274        1.637      335.742       62.384        0.035      346.616       24.989      860.651
08/10/2013  18:53:00     -315.955      -26.367      -16.272      130.341      134.861       56.305    16988.721    18187.405     3170.237        6.956        1.917      317.054       59.011        0.035      346.602       24.965      860.621
08/10/2013  18:54:00     -272.680      -72.334      -10.362      104.159      117.421       60.610    10849.189    13787.598     3673.565        5.400        1.416      282.111       60.311        0.046      346.644       25.034      860.654
08/10/2013  18:55:00     -333.979      -47.278       -5.666      146.015      110.739       70.061    21320.250    12263.068     4908.489        7.614        1.925      337.309       69.448        0.042      346.621       24.997      860.681
08/10/2013  18:56:00     -159.163     -118.252       28.991      164.988      155.739       91.789    27221.094    24254.783     8425.240        5.002        2.995      198.283       99.496        0.252      346.619       24.995      860.669
08/10/2013  18:57:00     -281.554      -86.204      -20.927      128.456      139.662       58.735    16500.951    19505.606     3449.815        6.329        1.973      294.455       58.976        0.040      346.606       24.971      860.683
08/10/2013  18:58:00     -280.787      -87.320        4.689      154.451      139.973       79.999    23855.201    19592.430     6399.914        6.816        2.492      294.051       90.529        0.095      346.556       24.887      860.700
08/10/2013  18:59:00     -387.019     -165.170       -0.561      192.336      144.067       83.810    36993.291    20755.318     7024.057       12.091        3.239      420.791       99.788        0.056      346.466       24.729      860.688
08/10/2013  19:00:00     -458.340      -71.028      -25.730      214.871      131.799       97.421    46169.536    17371.083     9490.788       14.439        3.652      463.811      108.693        0.055      346.418       24.648      860.678
08/10/2013  19:01:00     -202.565      -97.715       23.729      212.997      136.065       95.720    45367.822    18513.653     9162.248        6.208        3.652      224.902      109.931        0.239      346.473       24.744      860.655
08/10/2013  19:02:00     -288.539     -128.870      -19.204      144.315      136.612       70.487    20826.938    18662.703     4968.483        7.234        2.223      316.010       75.424        0.057      346.447       24.699      860.642
08/10/2013  19:03:00     -519.050      -80.754      -25.517      231.882      184.362       90.862    53769.150    33989.180     8255.921       18.628        4.801      525.294      102.386        0.038      346.360       24.548      860.626
08/10/2013  19:04:00     -366.709     -103.464      -14.516      180.250      115.516       68.492    32490.190    13343.858     4691.140        9.795        2.526      381.026       65.410        0.029      346.395       24.608      860.625
08/10/2013  19:05:00     -314.700      -58.400      -11.273      134.691      118.787       66.099    18141.634    14110.350     4369.100        6.959        1.831      320.073       66.470        0.043      346.424       24.658      860.649
08/10/2013  19:06:00     -351.249      -29.761       -9.003      132.548      100.938       64.725    17568.852    10188.429     4189.330        7.814        1.597      352.507       64.554        0.034      346.375       24.576      860.633
08/10/2013  19:07:00     -177.739     -127.539       13.403      117.801      100.911       59.463    13877.151    10183.035     3535.813        3.781        1.380      218.763       54.888        0.063      346.472       24.740      860.634
08/10/2013  19:08:00     -165.242      -94.189       -7.375      110.479      114.141       56.053    12205.553    13028.151     3141.912        3.230        1.419      190.202       45.130        0.056      346.431       24.671      860.655
08/10/2013  19:09:00     -119.869      -44.607       15.688      147.368       91.772       50.412    21717.388     8422.049     2541.326        2.464        1.634      127.900       63.114        0.244      346.464       24.729      860.677
08/10/2013  19:10:00     -301.017     -119.494       -1.965      202.158      148.684       95.120    40867.717    22106.902     9047.823        8.845        3.601      323.867      104.347        0.104      346.315       24.471      860.680
08/10/2013  19:11:00     -236.125     -197.836       17.042      188.178      147.276       87.065    35411.033    21690.334     7580.370        7.992        3.234      308.049      104.635        0.115      346.276       24.404      860.701
08/10/2013  19:12:00     -308.344     -164.292       -2.453      191.142      191.206      105.138    36535.167    36559.591    11053.998       10.310        4.207      349.382      113.589        0.106      346.257       24.371      860.702
08/10/2013  19:13:00     -302.870      -81.748        4.594      193.638      173.499       80.435    37495.626    30101.751     6469.813        8.624        3.703      313.709       84.583        0.073      346.287       24.421      860.698
08/10/2013  19:14:00     -414.335      -35.076      -15.095      195.163      160.666       84.828    38088.539    25813.576     7195.859       12.210        3.555      415.817       92.634        0.050      346.213       24.295      860.719
08/10/2013  19:15:00     -376.324      -72.744       -8.985      212.374      154.404       91.741    45102.596    23840.466     8416.487       11.216        3.868      383.290      102.990        0.072      346.195       24.264      860.702
08/10/2013  19:16:00     -213.320     -101.251       11.199      199.114      157.382       84.258    39646.464    24769.121     7099.365        6.369        3.576      236.130       85.787        0.132      346.261       24.378      860.720
08/10/2013  19:17:00     -290.139     -140.519       -7.343      185.803      168.551       84.182    34522.710    28409.477     7086.606        8.699        3.501      322.376       87.604        0.074      346.228       24.320      860.730
08/10/2013  19:18:00     -335.074     -103.540       -7.631      210.015      158.808       83.507    44106.255    25219.905     6973.446        9.966        3.815      350.706       95.456        0.074      346.203       24.279      860.750
08/10/2013  19:19:00     -444.988      -88.305       -9.664      219.706      211.182       96.833    48270.705    44597.699     9376.716       15.406        5.112      453.665      115.067        0.064      346.126       24.144      860.764
08/10/2013  19:20:00     -354.758      -65.637       -7.428      137.692      144.502       78.791    18959.198    20880.902     6207.985        8.812        2.302      360.779       81.146        0.051      346.136       24.162      860.781
08/10/2013  19:21:00     -372.876     -116.401       15.433      282.243      173.052      109.595    79661.325    29947.138    12011.158       13.720        6.081      390.623      133.847        0.117      346.136       24.164      860.820
08/10/2013  19:22:00     -574.799     -290.462       -9.032      237.748      190.298      101.516    56524.278    36213.161    10305.475       25.893        5.152      644.020      116.954        0.033      346.051       24.017      860.809
08/10/2013  19:23:00     -505.103      -94.135      -31.911      197.714      177.488       92.471    39090.711    31502.157     8550.900       17.206        3.957      513.800       97.710        0.036      346.058       24.031      860.833
08/10/2013  19:24:00     -559.204     -147.654      -29.674      224.854      175.015      112.464    50559.222    30630.276    12648.231       21.460        4.692      578.369      109.841        0.036      346.045       24.006      860.828
08/10/2013  19:25:00     -422.564     -145.702        4.927      265.215      201.988      121.724    70339.085    40799.094    14816.718       16.286        6.298      446.978      141.442        0.100      346.013       23.952      860.824
08/10/2013  19:26:00     -419.491     -270.555        4.292      275.016      224.421      124.555    75633.620    50364.603    15513.912       19.533        7.076      499.172      149.734        0.090      345.974       23.884      860.830
08/10/2013  19:27:00     -453.446     -131.876      -22.324      219.841      193.739       96.103    48330.027    37534.846     9235.879       15.929        4.755      472.234      105.628        0.050      345.958       23.857      860.844
08/10/2013  19:28:00     -546.324     -216.160       -6.280      218.155      189.800      102.829    47591.578    36023.885    10573.877       21.970        4.709      587.533      118.016        0.040      345.929       23.807      860.850
08/10/2013  19:29:00     -520.736     -361.126       -9.672      289.926      245.206      129.255    84056.897    60126.157    16706.885       28.125        8.044      633.702      145.875        0.053      345.894       23.749      860.873
08/10/2013  19:30:00     -422.999     -334.464       13.010      273.991      208.919      129.555    75071.004    43647.067    16784.525       21.321        6.775      539.253      153.600        0.081      345.883       23.730      860.848
08/10/2013  19:31:00     -327.275     -251.305       -6.217      227.961      174.960       95.390    51966.331    30611.113     9099.266       13.097        4.584      412.629      114.103        0.076      345.880       23.724      860.888
08/10/2013  19:32:00     -388.251     -230.519      -16.127      184.032      155.874       79.059    33867.617    24296.566     6250.308       13.427        3.221      451.528       84.583        0.035      345.873       23.713      860.892
08/10/2013  19:33:00     -292.248     -137.025       -0.172      161.338      134.635       75.377    26029.883    18126.593     5681.762        7.700        2.492      322.777       89.731        0.077      345.861       23.691      860.895
08/10/2013  19:34:00     -270.463     -206.591        3.534      218.134      166.482      100.993    47582.585    27716.407    10199.568       10.066        4.275      340.338      112.520        0.109      345.845       23.663      860.906
08/10/2013  19:35:00     -364.090     -199.086       -7.391      167.620      131.601       82.750    28096.394    17318.851     6847.592       11.225        2.613      414.966       77.481        0.035      345.845       23.663      860.894
08/10/2013  19:36:00     -418.510     -208.444      -13.119      178.552      139.705       79.133    31880.911    19517.620     6262.078       13.821        2.883      467.546       76.424        0.027      345.809       23.602      860.923
08/10/2013  19:37:00     -341.148     -160.419       15.082      189.938      219.875       79.715    36076.627    48345.038     6354.538       11.654        4.539      376.983       92.850        0.061      345.782       23.557      860.909
08/10/2013  19:38:00     -299.617      -87.346       -8.102      147.520      139.637       62.115    21762.050    19498.529     3858.307        7.128        2.256      312.090       68.239        0.048      345.825       23.629      860.918
08/10/2013  19:39:00     -294.381     -143.254        1.554      162.451      151.198       78.100    26390.357    22860.911     6099.536        8.126        2.768      327.386       77.294        0.056      345.783       23.557      860.921
08/10/2013  19:40:00     -244.442     -115.568       18.347      177.480      125.715       80.577    31499.169    15804.308     6492.669        6.361        2.690      270.385       95.276        0.124      345.780       23.553      860.927
08/10/2013  19:41:00     -341.288     -117.850        2.320      151.045      124.085       76.185    22814.538    15397.074     5804.204        8.719        2.201      361.063       73.845        0.042      345.757       23.512      860.946
08/10/2013  19:42:00     -405.328     -124.910      -16.165      176.659      141.387       73.554    31208.395    19990.395     5410.216       11.837        2.830      424.138       87.011        0.042      345.754       23.508      860.953
08/10/2013  19:43:00     -193.884     -151.863       13.936      163.222      104.273       79.557    26641.439    10872.794     6329.339        5.234        2.192      246.279       97.588        0.157      345.720       23.451      860.976
08/10/2013  19:44:00     -237.545     -188.631       -8.162      148.865      117.921       72.987    22160.836    13905.286     5327.081        6.673        2.070      303.331       74.663        0.061      345.715       23.440      860.978
08/10/2013  19:45:00     -215.849     -148.377       11.135      172.286      171.667       88.912    29682.480    29469.427     7905.367        6.788        3.353      261.928       88.170        0.113      345.690       23.398      860.982
08/10/2013  19:46:00     -411.546     -251.775       -8.705      217.054      162.081       95.331    47112.518    26270.109     9087.993       15.764        4.124      482.453      109.371        0.051      345.668       23.359      860.961
08/10/2013  19:47:00     -498.644     -113.566      -20.012      174.317      215.340       90.111    30386.384    46371.466     8120.006       17.340        4.244      511.413       87.607        0.029      345.637       23.306      860.978
08/10/2013  19:48:00     -378.916      -63.703       -5.156      179.026      169.673       82.838    32050.322    28788.921     6862.119       10.767        3.385      384.233       88.092        0.053      345.613       23.265      860.994
08/10/2013  19:49:00     -448.149     -176.002      -10.711      219.697      151.133       96.154    48266.879    22841.092     9245.526       15.613        4.018      481.471      107.694        0.050      345.615       23.269      860.967
08/10/2013  19:50:00     -318.010     -221.683        4.479      235.381      202.523      110.786    55404.021    41015.727    12273.452       12.948        5.435      387.651      129.130        0.111      345.569       23.190      860.979
08/10/2013  19:51:00     -508.376      -88.633       -7.316      247.278      153.424      108.099    61146.228    23538.838    11685.390       18.135        4.819      516.045      117.167        0.052      345.551       23.159      860.977
08/10/2013  19:52:00     -318.005     -128.092        9.114      220.646      163.082       86.338    48684.818    26595.842     7454.233       10.016        4.137      342.834      104.884        0.094      345.536       23.133      860.998
08/10/2013  19:53:00     -344.402     -218.490        6.183      219.765      195.245       92.415    48296.573    38120.591     8540.444       13.066        4.748      407.861      100.606        0.061      345.529       23.121      861.008
08/10/2013  19:54:00     -323.189     -237.821      -19.302      165.031      143.964       74.090    27235.174    20725.617     5489.399       10.741        2.673      401.260       83.099        0.043      345.527       23.118      861.041
08/10/2013  19:55:00     -226.983     -211.776       14.744      178.634      138.563       95.065    31910.167    19199.744     9037.277        7.836        3.007      310.436       80.838        0.068      345.517       23.099      861.046
08/10/2013  19:56:00     -270.074     -236.789        0.528      169.475      158.189       96.787    28721.777    25023.904     9367.647        9.605        3.156      359.178      100.318        0.078      345.496       23.065      861.038
08/10/2013  19:57:00     -278.699     -134.940        4.372      181.023      137.704       79.035    32769.281    18962.400     6246.574        7.693        2.899      309.648       62.660        0.041      345.485       23.046      861.070
08/10/2013  19:58:00     -304.574      -66.606       -8.176      202.299      102.262       61.851    40925.074    10457.588     3825.510        7.623        2.760      311.772       65.181        0.044      345.455       22.995      861.086
08/10/2013  19:59:00     -222.463      -71.031       -5.721      141.194      109.339       49.132    19935.607    11954.986     2413.960        4.443        1.715      233.527       62.699        0.072      345.410       22.917      861.102
08/10/2013  20:00:00     -343.076     -115.067       -6.484      179.279      144.832       85.990    32140.960    20976.348     7394.345        9.574        3.026      361.858       90.066        0.062      345.364       22.838      861.105
08/10/2013  20:01:00     -229.107     -187.273        5.595      181.515      152.984       80.482    32947.649    23404.174     6477.375        7.520        3.141      295.907       98.353        0.110      345.370       22.848      861.112
08/10/2013  20:02:00     -472.578      -22.040      -26.897      190.111      107.282       71.946    36142.307    11509.467     5176.235       13.867        2.641      473.092       72.097        0.023      345.364       22.838      861.132
08/10/2013  20:03:00     -377.201      -63.397      -23.163      200.725      116.510       82.460    40290.563    13574.561     6799.621       10.374        3.033      382.491      105.297        0.076      345.333       22.782      861.148
08/10/2013  20:04:00     -466.545     -106.621      -22.687      193.947      165.628       84.985    37615.387    27432.766     7222.392       15.090        3.614      478.573      100.119        0.044      345.326       22.772      861.137
08/10/2013  20:05:00     -344.628     -152.213      -20.682      223.585      152.823       92.400    49990.424    23354.866     8537.690       11.211        4.094      376.746      116.468        0.096      345.308       22.742      861.146
08/10/2013  20:06:00     -382.182      -29.442       -0.015      209.060      187.456      100.147    43705.927    35139.890    10029.439       11.789        4.444      383.314      105.115        0.075      345.277       22.688      861.155
08/10/2013  20:07:00     -341.682     -127.693      -14.563      137.355      156.098       72.709    18866.472    24366.538     5286.667        9.088        2.426      364.763       55.762        0.023      345.287       22.706      861.166
08/10/2013  20:08:00     -419.020      -87.239      -13.339      234.242      169.531       80.492    54869.241    28740.644     6478.931       13.671        4.504      428.006       98.824        0.053      345.252       22.646      861.181
08/10/2013  20:09:00     -476.710     -123.717      -22.681      167.379      153.585       80.948    28015.832    23588.493     6552.566       15.061        2.908      492.502       81.436        0.027      345.264       22.665      861.179
08/10/2013  20:10:00     -405.288     -103.698      -21.731      157.328       99.263       66.930    24752.084     9853.124     4479.607       10.728        1.954      418.344       72.329        0.030      345.227       22.602      861.219
08/10/2013  20:11:00     -348.208      -88.184      -13.251      167.565      107.370       72.131    28078.112    11528.419     5202.941        8.700        2.240      359.201       72.971        0.041      345.223       22.596      861.237
08/10/2013  20:12:00     -296.298      -50.401       -1.295      207.256      144.817       86.824    42955.192    20971.955     7538.431        8.089        3.573      300.554       97.766        0.106      345.197       22.553      861.253
08/10/2013  20:13:00     -253.846        1.464      -10.811      106.562      117.552       60.345    11355.395    13818.363     3641.578        4.668        1.441      253.850       56.577        0.050      345.193       22.545      861.262
08/10/2013  20:14:00     -214.350      -43.849        3.361      106.975      121.718       56.664    11443.688    14815.351     3210.767        3.867        1.473      218.789       52.848        0.058      345.153       22.475      861.276
08/10/2013  20:15:00     -346.798      -79.611       -3.153      196.719      134.583       70.421    38698.213    18112.529     4959.085        9.418        3.088      355.819       77.798        0.048      345.132       22.441      861.274
08/10/2013  20:16:00     -532.251     -202.361      -17.975      296.006      158.062       85.831    87619.831    24983.491     7366.939       22.225        5.999      569.422       99.863        0.031      345.173       22.511      861.270
08/10/2013  20:17:00     -501.331     -143.253      -14.752      218.066      154.907       92.383    47552.737    23996.201     8534.594       17.606        4.004      521.397       88.069        0.029      345.149       22.469      861.296
08/10/2013  20:18:00     -403.529      -10.749      -18.453      280.500      148.963       75.099    78680.493    22189.995     5639.844       13.488        5.326      403.672       99.103        0.060      345.147       22.467      861.340
08/10/2013  20:19:00     -595.837      -48.187      -51.586      184.990      166.284       94.189    34221.424    27650.312     8871.485       21.536        3.537      597.783       99.128        0.027      345.157       22.482      861.347
08/10/2013  20:20:00     -226.600      -27.445       -4.315      140.680       97.954       61.135    19790.737     9595.008     3737.516        4.262        1.656      228.256       62.449        0.075      345.144       22.461      861.398
08/10/2013  20:21:00      -99.240       -2.258        4.724      120.344       98.513       70.659    14482.684     9704.755     4992.631        1.952        1.459       99.265       58.922        0.352      345.101       22.389      861.404
08/10/2013  20:22:00     -170.903       -0.863      -27.721      116.302       86.152       54.856    13526.059     7422.148     3009.203        2.696        1.198      170.905       47.953        0.079      345.111       22.407      861.406
08/10/2013  20:23:00     -182.944        3.518       -7.168      109.953      113.171       64.432    12089.606    12807.582     4151.438        3.129        1.452      182.977       63.445        0.120      345.086       22.364      861.437
08/10/2013  20:24:00     -375.020      -85.295      -10.439      147.451      118.734       69.503    21741.695    14097.753     4830.688        9.434        2.034      384.597       58.371        0.023      345.061       22.319      861.435
08/10/2013  20:25:00     -225.783      -69.312      -11.317      157.195      104.077       65.834    24710.351    10832.038     4334.077        4.789        1.994      236.182       73.934        0.098      345.051       22.302      861.462
08/10/2013  20:26:00     -432.429     -127.882      -49.665      254.455      132.565       81.215    64747.475    17573.551     6595.915       14.735        4.446      450.942       93.457        0.043      345.081       22.354      861.479
08/10/2013  20:27:00     -367.743      -38.029      -35.952      155.443       77.511       61.779    24162.498     6007.915     3816.583        8.597        1.699      369.705       63.913        0.030      345.070       22.335      861.494
08/10/2013  20:28:00     -176.392       65.549        3.282      117.604      105.896       67.883    13830.707    11213.866     4608.132        3.253        1.483      188.177       68.306        0.132      345.015       22.241      861.503
08/10/2013  20:29:00      -96.452       19.410      -17.037       81.822       97.507       47.579     6694.769     9507.588     2263.738        1.421        0.923       98.386       28.848        0.086      345.012       22.238      861.530
08/10/2013  20:30:00     -184.392       15.189        4.034      129.855      116.874       58.524    16862.432    13659.601     3425.067        3.409        1.697      185.016       43.667        0.056      344.987       22.196      861.553
08/10/2013  20:31:00     -150.316        2.175        1.029      149.415       97.131       58.240    22324.924     9434.441     3391.920        2.887        1.758      150.331       76.293        0.258      344.966       22.159      861.570
08/10/2013  20:32:00     -147.303       93.516      -22.264      138.079       98.784       61.301    19065.911     9758.280     3757.865        3.176        1.629      174.480       75.264        0.186      344.944       22.122      861.585
08/10/2013  20:33:00     -152.193       10.059      -14.330      108.487       88.381       53.211    11769.504     7811.231     2831.392        2.294        1.121      152.525       45.897        0.091      344.956       22.141      861.619
08/10/2013  20:34:00     -124.446       88.823      -13.629       94.712      125.125       62.888     8970.324    15656.151     3954.937        2.607        1.429      152.894       43.319        0.080      344.908       22.059      861.632
08/10/2013  20:35:00     -190.091      120.442      -31.243       87.669      154.687       68.371     7685.836    23928.060     4674.532        4.395        1.814      225.035       49.009        0.047      344.944       22.120      861.653
08/10/2013  20:36:00     -228.084      115.122      -19.161      204.491      109.706       64.200    41816.553    12035.441     4121.652        6.180        2.899      255.490       85.351        0.112      344.940       22.113      861.665
08/10/2013  20:37:00     -159.293       95.821      -36.239       95.141       98.787       53.575     9051.861     9758.967     2870.256        2.877        1.084      185.893       45.674        0.060      344.966       22.158      861.669
08/10/2013  20:38:00     -147.876       62.328        6.043      128.919       67.707       66.506    16620.038     4584.255     4423.044        2.570        1.281      160.475       76.203        0.225      344.944       22.121      861.674
08/10/2013  20:39:00     -163.112       36.460      -14.789       65.448       73.867       36.211     4283.499     5456.401     1311.202        1.960        0.553      167.138       27.126        0.026      344.955       22.139      861.705
08/10/2013  20:40:00     -136.554        7.792       -5.562       86.782       95.743       42.612     7531.189     9166.780     1815.743        1.862        0.926      136.777       48.674        0.127      344.917       22.074      861.738
08/10/2013  20:41:00     -194.473       35.578      -11.961      121.753      111.902       65.015    14823.767    12521.999     4226.956        3.540        1.579      197.701       63.769        0.104      344.927       22.090      861.743
08/10/2013  20:42:00     -195.966       57.243      -19.314      144.753       93.557       53.721    20953.490     8752.892     2885.895        3.732        1.630      204.155       60.320        0.087      344.919       22.077      861.786
08/10/2013  20:43:00     -199.043      177.451       -5.310      105.585      166.813       64.342    11148.179    27826.655     4139.895        5.712        2.156      266.659       47.574        0.032      344.890       22.028      861.793
08/10/2013  20:44:00     -131.661       92.825      -15.431       72.238      112.937       66.532     5218.385    12754.741     4426.565        2.429        1.120      161.094       43.428        0.073      344.880       22.012      861.806
08/10/2013  20:45:00     -170.011       42.462      -12.137       91.458       91.772       59.883     8364.528     8422.190     3585.968        2.561        1.019      175.234       46.238        0.070      344.867       21.990      861.828
08/10/2013  20:46:00     -292.186       53.964      -46.080      118.822      119.219       69.351    14118.650    14213.255     4809.620        6.177        1.657      297.127       72.623        0.060      344.850       21.956      861.851
08/10/2013  20:47:00     -199.826       -4.778      -10.002      119.337       90.517       60.745    14241.321     8193.399     3689.935        3.308        1.306      199.883       65.500        0.107      344.816       21.900      861.876
08/10/2013  20:48:00     -182.555       25.657      -11.488      145.013      107.358       75.692    21028.834    11525.832     5729.322        3.619        1.914      184.349       75.723        0.169      344.898       22.040      861.897
08/10/2013  20:49:00     -139.410       74.742       -1.770       94.782      158.776       71.321     8983.568    25209.749     5086.658        3.215        1.964      158.182       83.484        0.279      344.869       21.992      861.904
08/10/2013  20:50:00     -192.325      213.354      -37.423      103.564      104.194       59.800    10725.404    10856.469     3576.047        5.453        1.258      287.244       54.226        0.036      344.860       21.974      861.917
08/10/2013  20:51:00     -204.560      244.271      -35.823      123.946      120.600       75.792    15362.661    14544.414     5744.367        6.922        1.783      318.611       73.852        0.054      344.875       22.000      861.928
08/10/2013  20:52:00     -335.820      166.477      -43.389      169.954      136.759       74.400    28884.228    18702.900     5535.434        9.774        2.656      374.820       87.249        0.054      344.934       22.101      861.911
08/10/2013  20:53:00     -132.996       36.787       -4.270       79.812       95.284       60.752     6369.882     9078.997     3690.780        1.910        0.957      137.990       56.819        0.170      344.910       22.065      861.944
08/10/2013  20:54:00     -149.732      102.509       -0.309       98.134      157.543       73.967     9630.294    24819.901     5471.135        3.642        1.996      181.460       74.043        0.166      344.857       21.970      861.978
08/10/2013  20:55:00     -193.970      189.250      -40.315      130.040      110.869       56.769    16910.338    12292.000     3222.758        5.374        1.621      270.998       67.303        0.062      344.809       21.888      862.006
08/10/2013  20:56:00     -149.975      161.050      -33.842       97.397      144.901       66.362     9486.154    20996.407     4403.897        4.222        1.744      220.068       64.083        0.085      344.801       21.874      862.078
08/10/2013  20:57:00     -192.366       19.888      -29.717      101.541      105.667       50.931    10310.654    11165.436     2594.004        3.117        1.204      193.391       47.465        0.060      344.789       21.855      862.082
08/10/2013  20:58:00     -160.172       55.029      -20.909      144.979       83.314       52.162    21018.879     6941.292     2720.879        2.990        1.534      169.362       66.419        0.154      344.764       21.812      862.073
08/10/2013  20:59:00      -80.775       92.426       -3.160       80.624       80.688       60.631     6500.294     6510.587     3676.178        1.588        0.834      122.749       45.533        0.138      344.720       21.738      862.081
08/10/2013  21:00:00     -114.006       78.525      -18.601       72.541       75.640       42.302     5262.209     5721.456     1789.476        1.614        0.639      138.433       40.038        0.084      344.730       21.755      862.124
08/10/2013  21:01:00      -60.599       48.089       -4.517       64.220       49.604       35.314     4124.181     2460.516     1247.089        0.692        0.392       77.361       21.728        0.079      344.715       21.731      862.103
08/10/2013  21:02:00      -98.369       73.429       -3.965       73.588       79.865       43.525     5415.173     6378.356     1894.446        1.438        0.684      122.753       25.654        0.044      344.677       21.665      862.145
08/10/2013  21:03:00     -143.097       54.813      -16.558      127.765       88.282       65.248    16324.004     7793.754     4257.315        2.606        1.419      153.235       77.606        0.256      344.717       21.734      862.174
08/10/2013  21:04:00      -81.829       58.782       14.733       86.818      105.306       53.364     7537.426    11089.261     2847.753        1.592        1.074      100.754       50.545        0.252      344.683       21.675      862.184
08/10/2013  21:05:00     -178.569       40.403      -18.303      104.220      123.215       57.375    10861.710    15181.952     3291.880        3.159        1.467      183.082       48.890        0.071      344.721       21.737      862.212
08/10/2013  21:06:00     -179.587      131.584      -14.701      109.826      163.073       63.573    12061.857    26592.904     4041.522        4.623        2.135      222.634       58.590        0.069      344.663       21.637      862.224
08/10/2013  21:07:00      -99.636      127.971      -18.327       77.618       83.126       44.045     6024.543     6909.897     1939.957        2.075        0.744      162.185       41.196        0.065      344.704       21.708      862.205
08/10/2013  21:08:00      -89.614      164.567      -25.596       78.143       88.221       37.338     6106.386     7782.969     1394.127        2.552        0.764      187.384       30.549        0.027      344.639       21.597      862.228
08/10/2013  21:09:00      -58.499      182.930      -17.137       66.516       70.548       47.928     4424.377     4977.039     2297.121        2.444        0.585      192.056       39.336        0.042      344.621       21.568      862.202
08/10/2013  21:10:00     -166.041      194.426      -29.818       99.429      113.771       51.577     9886.183    12943.746     2660.144        4.587        1.275      255.678       52.618        0.042      344.595       21.521      862.217
08/10/2013  21:11:00     -145.107      197.671      -29.105      101.767      134.788       59.406    10356.596    18167.851     3529.063        4.651        1.603      245.214       58.246        0.056      344.585       21.504      862.237
08/10/2013  21:12:00     -233.540      -32.781      -28.419       83.511      122.291       54.607     6974.075    14955.209     2981.942        4.066        1.246      235.829       40.158        0.029      344.604       21.538      862.270
08/10/2013  21:13:00     -282.634      -24.301      -38.283      117.212      149.615       54.699    13738.768    22384.694     2992.000        6.052        1.956      283.677       35.389        0.016      344.656       21.625      862.289
08/10/2013  21:14:00     -218.796      139.811      -34.734       98.564       79.534       62.683     9714.779     6325.631     3929.159        4.429        0.998      259.651       60.315        0.054      344.545       21.436      862.330
08/10/2013  21:15:00     -152.077       26.998      -11.853      105.654       98.230       59.779    11162.788     9649.080     3573.507        2.419        1.219      154.455       66.891        0.188      344.587       21.508      862.357
08/10/2013  21:16:00     -178.744      -24.727       -4.958       94.036       95.694       45.934     8842.737     9157.361     2109.937        2.634        1.006      180.446       45.690        0.064      344.560       21.463      862.380
08/10/2013  21:17:00     -239.812      -71.823      -17.272      107.227       94.887       51.250    11497.706     9003.492     2626.523        4.304        1.156      250.337       47.762        0.036      344.545       21.435      862.366
08/10/2013  21:18:00      -98.436      -34.233        9.398       77.796       83.966       40.270     6052.280     7050.356     1621.676        1.283        0.736      104.218       40.189        0.149      344.449       21.275      862.368
08/10/2013  21:19:00     -178.731      -73.232      -11.424       75.467       77.337       31.273     5695.276     5980.948      977.972        2.504        0.633      193.152       12.296        0.004      344.446       21.269      862.396
08/10/2013  21:20:00     -187.195      -38.010      -20.787       86.800       63.029       42.820     7534.204     3972.685     1833.552        2.513        0.667      191.015       36.938        0.037      344.416       21.217      862.395
08/10/2013  21:21:00     -160.791      -43.460      -17.857      118.425       81.552       46.251    14024.394     6650.675     2139.117        2.543        1.141      166.560       51.006        0.094      344.454       21.281      862.388
08/10/2013  21:22:00     -101.533      -29.313       10.396      133.778      108.983       62.417    17896.681    11877.346     3895.867        2.247        1.683      105.680       64.345        0.371      344.443       21.263      862.375
08/10/2013  21:23:00     -199.971       41.996      -29.483       78.570       96.692       47.262     6173.213     9349.432     2233.718        3.019        0.888      204.333       37.200        0.033      344.502       21.364      862.393
08/10/2013  21:24:00     -185.718       35.446      -35.162       59.088       76.863       44.398     3491.442     5907.881     1971.145        2.418        0.569      189.070       17.978        0.009      344.451       21.276      862.418
08/10/2013  21:25:00     -263.191      -87.611      -28.004       86.810       73.217       42.919     7535.940     5360.689     1842.023        4.623        0.737      277.390       43.537        0.025      344.381       21.154      862.420
08/10/2013  21:26:00     -279.760      -82.461      -14.841      104.686       86.415       50.660    10959.203     7467.607     2566.445        5.314        1.050      291.660       51.307        0.031      344.313       21.038      862.423
08/10/2013  21:27:00     -136.635      -50.372       13.552      163.955      104.287       64.494    26881.202    10875.871     4159.468        3.165        2.096      145.624       75.928        0.272      344.211       20.867      862.415
08/10/2013  21:28:00     -265.964      -99.958      -14.803      102.020      121.637       54.769    10407.989    14795.471     2999.664        5.457        1.410      284.128       58.507        0.042      344.204       20.853      862.412
08/10/2013  21:29:00     -321.831      -75.920      -13.763      111.745       96.339       48.578    12486.997     9281.219     2359.820        6.682        1.206      330.664       42.111        0.016      344.229       20.896      862.427
08/10/2013  21:30:00     -362.484      -19.713      -33.029       97.413      101.925       50.524     9489.343    10388.662     2552.639        7.765        1.122      363.019       47.152        0.017      344.214       20.871      862.438
08/10/2013  21:31:00     -380.420      -31.261      -31.349      108.983      134.718       61.095    11877.331    18148.954     3732.588        9.021        1.688      381.702       50.447        0.017      344.262       20.954      862.413
08/10/2013  21:32:00     -282.401      -12.111      -35.696      104.312       60.940       48.935    10880.933     3713.688     2394.664        4.908        0.849      282.661       53.139        0.035      344.231       20.900      862.451
08/10/2013  21:33:00     -398.562       -7.908      -46.747      115.841       97.033       50.554    13419.185     9415.448     2555.752        9.324        1.270      398.640       43.311        0.012      344.187       20.825      862.449
08/10/2013  21:34:00     -240.034      -74.786      -34.476      102.409       57.185       45.977    10487.555     3270.083     2113.930        4.013        0.794      251.415       42.919        0.029      344.158       20.776      862.433
08/10/2013  21:35:00     -202.572      -59.809      -14.175       91.575       72.482       49.111     8386.042     5253.631     2411.886        3.043        0.803      211.217       40.656        0.037      344.124       20.719      862.427
08/10/2013  21:36:00     -195.269      -82.304       -1.150      115.080       77.514       46.610    13243.519     6008.429     2172.484        3.316        1.071      211.905       47.887        0.051      344.083       20.648      862.429
08/10/2013  21:37:00     -279.465      -35.021      -19.993       85.370       75.104       39.847     7288.084     5640.576     1587.769        4.712        0.726      281.651       36.067        0.016      344.127       20.722      862.433
08/10/2013  21:38:00     -273.642       -9.035      -26.812      102.033       90.001       50.361    10410.827     8100.197     2536.267        4.836        1.052      273.791       38.430        0.020      344.233       20.901      862.437
08/10/2013  21:39:00     -211.918       -9.790      -16.028       92.944       77.936       40.894     8638.678     6074.024     1672.326        3.082        0.819      212.144       49.009        0.053      344.233       20.904      862.432
08/10/2013  21:40:00     -224.782        9.894      -27.445       80.846       58.990       37.974     6536.082     3479.793     1441.999        3.142        0.573      224.999       37.371        0.028      344.226       20.894      862.429
08/10/2013  21:41:00     -182.123      -25.839      -12.051       68.736       71.518       36.710     4724.678     5114.864     1347.591        2.258        0.559      183.947       30.894        0.028      344.216       20.875      862.420
08/10/2013  21:42:00     -142.284      -34.532      -31.849       56.439       48.271       37.830     3185.354     2330.046     1431.079        1.470        0.347      146.414       36.889        0.063      344.248       20.931      862.421
08/10/2013  21:43:00     -196.841      -67.554      -21.190       68.985       65.921       39.498     4758.998     4345.586     1560.056        2.721        0.533      208.111       24.223        0.014      344.252       20.935      862.419
08/10/2013  21:44:00     -167.204      -78.774      -10.485       82.718       63.707       42.425     6842.244     4058.601     1799.882        2.348        0.635      184.832       38.606        0.044      344.260       20.950      862.426
08/10/2013  21:45:00     -277.504      -33.445      -25.354       96.812       75.219       48.616     9372.566     5657.856     2363.533        4.808        0.870      279.512       55.811        0.040      344.228       20.895      862.434
08/10/2013  21:46:00     -178.053       -8.256      -16.619       60.541       54.932       31.256     3665.213     3017.501      976.908        1.985        0.383      178.244       29.004        0.026      344.214       20.873      862.421
08/10/2013  21:47:00     -137.558      -53.328        5.930       92.129       72.593       53.299     8487.820     5269.816     2840.795        1.920        0.830      147.533       48.675        0.109      344.168       20.794      862.413
08/10/2013  21:48:00     -173.599      -22.646       -9.659       96.132       68.336       48.503     9241.413     4669.856     2352.512        2.350        0.813      175.070       50.857        0.084      344.219       20.879      862.446
08/10/2013  21:49:00     -214.179       27.898      -11.989      117.654       72.643       43.938    13842.527     5276.968     1930.532        3.392        1.053      215.989       41.922        0.038      344.200       20.846      862.436
08/10/2013  21:50:00     -368.111      -83.347      -34.498      173.682      161.540       65.232    30165.501    26095.118     4255.230       10.207        3.026      377.429       61.983        0.027      344.320       21.052      862.401
08/10/2013  21:51:00     -264.039        5.489      -14.290      101.497       83.884       42.336    10301.707     7036.600     1792.317        4.454        0.957      264.096       46.884        0.032      344.298       21.013      862.439
08/10/2013  21:52:00     -279.919      -77.628      -14.273       87.352       57.692       38.955     7630.388     3328.364     1517.457        4.853        0.624      290.484       29.229        0.010      344.256       20.941      862.485
08/10/2013  21:53:00     -312.494      -69.199      -24.295       84.803       58.151       47.524     7191.540     3381.583     2258.512        5.793        0.642      320.064       36.800        0.013      344.288       20.996      862.488
08/10/2013  21:54:00     -260.497      -91.836       -8.869      102.621       71.803       40.249    10531.049     5155.740     1619.997        4.684        0.865      276.211       38.904        0.020      344.253       20.936      862.513
08/10/2013  21:55:00     -217.794      -32.314       -4.458       92.571       65.125       49.122     8569.411     4241.284     2412.925        3.186        0.761      220.178       50.504        0.053      344.221       20.883      862.527
08/10/2013  21:56:00     -203.115      -49.843       -4.350      101.580      109.273       52.556    10318.439    11940.510     2762.114        3.439        1.251      209.141       31.992        0.023      344.210       20.864      862.511
08/10/2013  21:57:00     -252.247      -18.841      -24.273       73.197       69.575       35.403     5357.743     4840.632     1253.366        3.801        0.573      252.950       42.835        0.029      344.215       20.872      862.514
08/10/2013  21:58:00     -242.445      -64.379      -20.443       52.643       60.797       31.728     2771.240     3696.307     1006.664        3.541        0.374      250.847       31.542        0.016      344.205       20.854      862.528
08/10/2013  21:59:00     -241.300      -23.985      -15.845      109.647       61.587       43.826    12022.432     3792.950     1920.742        3.839        0.887      242.489       46.102        0.036      344.189       20.827      862.535
08/10/2013  22:00:00     -203.804      -87.394       -8.068       89.618       83.427       42.446     8031.330     6960.008     1801.628        3.301        0.840      221.751       41.743        0.035      344.166       20.787      862.534
08/10/2013  22:01:00     -232.252      -35.816      -20.289       67.261       69.763       33.343     4524.052     4866.901     1111.747        3.307        0.525      234.997       32.039        0.019      344.171       20.795      862.520
08/10/2013  22:02:00     -144.522      -17.235       -3.142       82.600       44.958       34.266     6822.735     2021.262     1174.180        1.560        0.501      145.546       40.706        0.078      344.161       20.781      862.510
08/10/2013  22:03:00     -189.496      -47.011      -11.216       55.372       65.595       37.045     3066.102     4302.768     1372.309        2.349        0.437      195.240       32.348        0.027      344.144       20.751      862.534
08/10/2013  22:04:00     -275.179      -13.408      -11.379       98.590       87.857       42.963     9720.072     7718.778     1845.838        4.766        0.964      275.506       46.176        0.028      344.125       20.719      862.540
08/10/2013  22:05:00     -183.924      -43.019       -6.653       76.267       74.053       47.411     5816.641     5483.800     2247.849        2.463        0.677      188.888       36.326        0.037      344.098       20.674      862.552
08/10/2013  22:06:00     -194.478      -55.160        2.380      149.791       98.658       36.037    22437.406     9733.466     1298.701        3.716        1.673      202.149       39.822        0.039      344.131       20.731      862.552
08/10/2013  22:07:00     -310.726      -85.470      -10.642      108.709      101.758       57.377    11817.612    10354.670     3292.132        6.471        1.273      322.267       50.476        0.025      344.123       20.715      862.555
08/10/2013  22:08:00     -278.452      -11.382      -30.667      105.367       80.587       43.971    11102.221     6494.197     1933.414        4.906        0.976      278.684       46.810        0.028      344.120       20.710      862.572
08/10/2013  22:09:00     -406.983       72.836      -32.166      106.812       89.245       47.929    11408.706     7964.727     2297.214        9.682        1.084      413.449       38.108        0.008      344.189       20.827      862.567
08/10/2013  22:10:00     -334.758       -0.213      -16.263      150.859      154.352       63.093    22758.327    23824.410     3980.724        8.144        2.528      334.758       58.844        0.031      344.106       20.687      862.559
08/10/2013  22:11:00     -187.853      -42.645        3.959       86.522       74.632       41.774     7486.137     5569.936     1745.079        2.596        0.740      192.633       39.407        0.042      344.064       20.615      862.578
08/10/2013  22:12:00     -236.014      -93.757      -19.424      148.419       97.267       52.717    22028.312     9460.784     2779.116        4.956        1.713      253.955       65.828        0.067      344.094       20.667      862.561
08/10/2013  22:13:00     -169.923       37.671       -8.465       85.354       55.077       43.740     7285.255     3033.519     1913.165        2.130        0.612      174.048       42.601        0.060      344.029       20.557      862.570
08/10/2013  22:14:00     -207.573       38.449      -13.902       85.147       54.973       41.466     7249.979     3022.038     1719.417        2.837        0.600      211.104       34.340        0.026      344.020       20.539      862.567
08/10/2013  22:15:00     -146.095      -48.453       -4.075       69.453       54.755       28.617     4823.733     2998.118      818.905        1.617        0.432      153.920       32.469        0.044      344.001       20.508      862.561
08/10/2013  22:16:00     -223.162      -30.102        0.750      111.497       90.323       42.838    12431.521     8158.300     1835.075        3.656        1.121      225.183       43.193        0.037      343.965       20.444      862.546
08/10/2013  22:17:00     -350.956      -29.797      -19.572      121.102      124.782       65.562    14665.753    15570.482     4298.347        7.948        1.727      352.219       69.439        0.039      343.952       20.422      862.551
08/10/2013  22:18:00     -291.523      -55.079        0.499      143.463      130.645       65.789    20581.496    17068.077     4328.140        6.499        2.099      296.680       67.713        0.052      343.929       20.384      862.561
08/10/2013  22:19:00     -180.325        4.651        0.321      120.251       57.287       48.269    14460.261     3281.769     2329.900        2.630        1.004      180.385       58.369        0.105      343.871       20.286      862.562
08/10/2013  22:20:00     -336.616     -104.406      -31.308      190.198      107.541       71.623    36175.210    11564.964     5129.905        8.902        2.644      352.435       92.153        0.068      343.909       20.350      862.545
08/10/2013  22:21:00     -343.426      -41.254      -18.139      114.674       99.657       66.387    13150.168     9931.429     4407.190        7.373        1.374      345.895       59.188        0.029      343.903       20.339      862.532
08/10/2013  22:22:00     -295.069      108.351      -20.817      109.585      102.117       59.625    12008.972    10427.817     3555.095        6.261        1.300      314.334       28.492        0.008      343.888       20.313      862.516
08/10/2013  22:23:00     -239.106      -93.437      -19.803       75.973       69.906       38.990     5771.902     4886.828     1520.207        3.923        0.609      256.714       34.872        0.018      343.855       20.258      862.527
08/10/2013  22:24:00     -201.224      -64.408       -2.207      169.327      124.445       59.259    28671.560    15486.495     3511.682        4.615        2.383      211.281       62.927        0.089      343.831       20.219      862.540
08/10/2013  22:25:00     -184.377      -60.730       -7.858      125.769       90.616       48.274    15817.851     8211.336     2330.410        3.205        1.318      194.121       60.779        0.098      343.826       20.207      862.528
08/10/2013  22:26:00     -230.387     -128.093        3.767      144.413      158.123       72.409    20855.151    25002.840     5242.997        6.029        2.555      263.602       76.212        0.084      343.849       20.249      862.531
08/10/2013  22:27:00     -307.769      -44.555       -7.815      165.054      101.346       66.028    27242.830    10271.031     4359.735        6.931        2.094      310.977       70.945        0.052      343.832       20.218      862.541
08/10/2013  22:28:00     -263.179       -2.219       -4.706      115.253       90.850       60.071    13283.367     8253.803     3608.558        4.721        1.257      263.188       61.769        0.055      343.806       20.173      862.523
08/10/2013  22:29:00     -249.190      -81.719       -9.856      138.184      104.975       69.475    19094.805    11019.780     4826.755        5.190        1.747      262.248       82.528        0.099      343.803       20.170      862.521
08/10/2013  22:30:00     -467.509     -166.377      -39.515      198.324      156.225       82.090    39332.544    24406.268     6738.755       15.913        3.524      496.232       95.627        0.037      343.832       20.219      862.511
08/10/2013  22:31:00     -359.051     -140.122      -21.759      181.037      134.832       60.528    32774.408    18179.538     3663.680       10.181        2.731      385.424       68.157        0.031      343.815       20.189      862.490
08/10/2013  22:32:00     -256.461      -73.549      -18.883      145.534      112.141       63.887    21180.060    12575.656     4081.608        5.468        1.892      266.799       75.370        0.080      343.815       20.189      862.477
08/10/2013  22:33:00     -160.924      -16.942       23.066      166.969      101.551       67.021    27878.755    10312.675     4491.829        3.469        2.134      161.814       62.199        0.148      343.755       20.089      862.460
08/10/2013  22:34:00     -222.140      -33.082        0.233      151.228      126.265       73.696    22870.023    15942.916     5431.110        4.733        2.212      224.590       85.063        0.143      343.706       20.003      862.474
08/10/2013  22:35:00     -418.041      -65.000      -21.218      202.550      174.874       83.704    41026.300    30580.885     7006.281       12.901        3.931      423.065       85.632        0.041      343.755       20.086      862.440
08/10/2013  22:36:00     -453.987     -127.982      -19.162      166.544      115.718       62.998    27736.780    13390.763     3968.736       13.397        2.255      471.681       55.754        0.014      343.760       20.095      862.481
08/10/2013  22:37:00     -336.929      -84.050      -35.179      113.078      125.962       66.961    12786.621    15866.533     4483.825        7.747        1.657      347.254       61.123        0.031      343.759       20.093      862.479
08/10/2013  22:38:00     -325.693     -163.816      -24.811      156.452      144.402       73.674    24477.142    20852.036     5427.838        9.213        2.538      364.570       76.150        0.044      343.733       20.048      862.450
08/10/2013  22:39:00     -204.477      -39.494       12.689      149.155       84.183       61.398    22247.323     7086.861     3769.705        3.831        1.655      208.256       66.087        0.101      343.696       19.986      862.426
08/10/2013  22:40:00     -299.026      -24.633      -10.710      116.851      104.055       64.569    13654.071    10827.346     4169.184        5.939        1.433      300.039       62.629        0.044      343.651       19.909      862.428
08/10/2013  22:41:00     -287.094     -130.928       -1.822      153.314      110.595       65.236    23505.294    12231.284     4255.691        6.977        2.000      315.539       73.848        0.055      343.692       19.979      862.445
08/10/2013  22:42:00     -389.504      -89.065      -29.170      156.485      132.136       75.548    24487.404    17459.830     5707.504       10.407        2.383      399.557       69.584        0.030      343.725       20.035      862.445
08/10/2013  22:43:00     -323.214     -129.137       -1.809      177.418      137.079       72.531    31477.039    18790.666     5260.744        8.833        2.776      348.057       79.275        0.052      343.703       19.998      862.453
08/10/2013  22:44:00     -303.482     -153.633       -8.478      224.636      105.549       85.169    50461.370    11140.489     7253.827        9.230        3.443      340.154      110.938        0.106      343.676       19.951      862.452
08/10/2013  22:45:00     -186.732     -106.629        9.235      178.091      118.949       70.017    31716.293    14148.800     4902.442        4.854        2.538      215.031       76.834        0.128      343.657       19.919      862.425
08/10/2013  22:46:00     -303.656      -54.318        2.776      211.395      126.888       85.694    44687.739    16100.466     7343.424        8.164        3.407      308.475       91.999        0.089      343.654       19.914      862.447
08/10/2013  22:47:00     -403.645      -59.489       -5.499      228.499      135.304       86.742    52211.574    18307.241     7524.205       12.226        3.902      408.005       99.317        0.059      343.679       19.958      862.487
08/10/2013  22:48:00     -220.103      -30.760       -3.032      144.950      108.603       73.447    21010.604    11794.581     5394.486        4.379        1.910      222.242       89.273        0.161      343.676       19.952      862.504
08/10/2013  22:49:00     -384.135      -45.058      -35.698      212.007      156.471       77.977    44946.856    24483.106     6080.464       11.317        3.776      386.768       94.499        0.060      343.699       19.991      862.498
08/10/2013  22:50:00     -279.947      -68.963        1.570      179.873      149.861       77.168    32354.175    22458.399     5954.878        7.194        3.038      288.316       87.715        0.093      343.736       20.053      862.510
08/10/2013  22:51:00     -424.523       -6.626      -43.702      146.952      116.257       75.128    21594.975    13515.736     5644.245       11.146        2.038      424.574       62.340        0.022      343.716       20.018      862.483
08/10/2013  22:52:00     -399.355      -63.303      -30.116      204.015      117.027       72.348    41621.963    13695.350     5234.271       11.246        3.028      404.341       83.590        0.043      343.689       19.975      862.498
08/10/2013  22:53:00     -267.574      -99.097      -18.060      154.501      148.709       71.407    23870.507    22114.220     5098.943        6.640        2.554      285.335       78.315        0.075      343.666       19.934      862.508
08/10/2013  22:54:00     -343.191      -81.356        1.431      179.707      126.546       78.856    32294.732    16013.939     6218.286        8.945        2.726      352.702       89.780        0.065      343.654       19.915      862.565
08/10/2013  22:55:00     -237.717      -70.644      -10.030      158.833      103.299       69.505    25228.038    10670.607     4830.955        5.116        2.036      247.992       78.257        0.100      343.660       19.924      862.600
08/10/2013  22:56:00     -235.173        1.024      -15.023      157.513       82.335       51.034    24810.221     6779.094     2604.501        4.486        1.710      235.176       69.272        0.087      343.625       19.865      862.589
08/10/2013  22:57:00     -318.933     -133.505       -7.834      223.318      183.363       87.488    49870.713    33622.053     7654.104       10.536        4.557      345.748      114.311        0.109      343.644       19.899      862.553
08/10/2013  22:58:00     -266.170      -68.172      -24.141      102.118       95.502       52.593    10428.085     9120.701     2766.024        4.919        1.116      274.762       45.114        0.027      343.631       19.875      862.614
08/10/2013  22:59:00     -235.537      -10.642       -2.429      160.623       90.236       59.679    25799.850     8142.520     3561.570        4.654        1.875      235.777       77.252        0.107      343.647       19.901      862.637
08/10/2013  23:00:00     -368.256       31.891      -26.646      131.667       95.885       55.864    17336.154     9193.993     3120.755        8.349        1.483      369.635       56.781        0.024      343.681       19.959      862.585
08/10/2013  23:01:00     -267.775       -5.885      -19.860      107.336       94.021       56.597    11521.035     8839.906     3203.185        4.784        1.178      267.840       62.361        0.054      343.644       19.897      862.608
08/10/2013  23:02:00     -275.723      -12.988      -18.055      173.676      135.301       63.081    30163.346    18306.341     3979.207        6.447        2.622      276.028       60.085        0.047      343.705       20.001      862.581
08/10/2013  23:03:00     -295.020      -66.460       -6.281      125.357      103.139       62.183    15714.292    10637.656     3866.670        6.085        1.511      302.413       62.007        0.042      343.656       19.918      862.590
08/10/2013  23:04:00     -280.071       -1.749      -16.162      123.124       95.752       57.174    15159.559     9168.504     3268.824        5.315        1.380      280.077       61.055        0.048      343.697       19.988      862.613
08/10/2013  23:05:00     -228.440      -67.577       -6.525      113.849       68.194       46.295    12961.675     4650.482     2143.241        3.827        0.988      238.225       54.590        0.053      343.684       19.966      862.598
08/10/2013  23:06:00     -281.198      -19.508      -15.679      150.582      100.264       58.599    22674.874    10052.872     3433.857        5.792        1.808      281.873       60.975        0.047      343.708       20.008      862.578
08/10/2013  23:07:00     -190.542      -31.591        7.067      132.495      116.942       60.413    17554.890    13675.499     3649.718        3.611        1.744      193.143       61.008        0.100      343.690       19.977      862.565
08/10/2013  23:08:00     -256.095      -64.240      -10.059       93.355       61.251       43.588     8715.091     3751.654     1899.899        4.209        0.718      264.029       37.477        0.020      343.715       20.017      862.553
08/10/2013  23:09:00     -292.497      -57.599       -0.793      138.745       99.371       53.105    19250.070     9874.663     2820.153        6.040        1.597      298.114       51.844        0.030      343.700       19.993      862.569
08/10/2013  23:10:00     -289.156      -54.317      -15.505      146.928      116.766       58.319    21587.730    13634.290     3401.152        6.271        1.931      294.214       57.304        0.038      343.775       20.121      862.542
08/10/2013  23:11:00     -359.668     -123.648      -30.025      139.582      117.440       69.094    19483.085    13792.120     4774.013        9.179        1.902      380.328       47.003        0.015      343.748       20.075      862.544
08/10/2013  23:12:00     -349.499      -70.954      -10.217      137.491      139.634       71.459    18903.815    19497.598     5106.333        8.539        2.175      356.629       71.796        0.041      343.737       20.054      862.559
08/10/2013  23:13:00     -363.810      -93.113      -21.907      151.521      110.281       60.560    22958.514    12161.790     3667.513        9.014        1.939      375.536       73.213        0.038      343.840       20.232      862.576
08/10/2013  23:14:00     -140.108       18.190      -15.210      100.218       57.357       36.740    10043.747     3289.879     1349.807        1.744        0.734      141.284       36.652        0.067      343.755       20.089      862.587
08/10/2013  23:15:00     -159.596       53.364       -4.230      113.129       63.376       51.137    12798.101     4016.530     2615.033        2.388        0.971      168.281       46.185        0.075      343.748       20.076      862.609
08/10/2013  23:16:00     -231.571        6.594       -4.788      127.791       74.377       53.534    16330.474     5531.893     2865.909        3.921        1.236      231.665       64.521        0.078      343.763       20.100      862.592
08/10/2013  23:17:00     -167.789      -57.971       -8.523       56.375       58.734       35.155     3178.119     3449.717     1235.850        1.972        0.393      177.521       25.540        0.021      343.747       20.075      862.632
08/10/2013  23:18:00     -149.383       23.153      -10.201      112.252       87.680       46.349    12600.405     7687.738     2148.259        2.269        1.122      151.167       44.372        0.086      343.735       20.054      862.627
08/10/2013  23:19:00     -107.198      -51.257        0.547      133.759       90.377       61.035    17891.409     8167.981     3725.315        2.195        1.489      118.822       62.423        0.276      343.710       20.011      862.592
08/10/2013  23:20:00     -153.329        3.890       -7.672       98.437       87.382       52.626     9689.783     7635.666     2769.452        2.184        1.005      153.378       47.331        0.095      343.754       20.086      862.615
08/10/2013  23:21:00     -140.831      -35.902       -1.211       74.865       45.899       34.738     5604.771     2106.725     1206.707        1.502        0.446      145.335       29.160        0.040      343.773       20.120      862.620
08/10/2013  23:22:00     -155.207      -47.886       -8.757       74.114       71.064       39.659     5492.857     5050.029     1572.838        1.929        0.606      162.426       45.225        0.078      343.788       20.144      862.640
08/10/2013  23:23:00     -131.146      -20.816      -18.333       98.529       59.958       41.612     9707.996     3594.959     1731.598        1.650        0.752      132.788       26.444        0.040      343.829       20.215      862.663
08/10/2013  23:24:00      -18.638      -23.880       -5.963       41.827       52.428       22.510     1749.483     2748.700      506.718        0.298        0.250       30.293       15.843        0.274      343.716       20.026      862.682
08/10/2013  23:25:00      -98.210       -8.802       -4.562       45.981       45.383       23.375     2114.220     2059.616      546.405        0.723        0.236       98.604       12.197        0.015      343.771       20.119      862.692
08/10/2013  23:26:00      -29.783      -42.025        8.403       60.099       55.283       31.571     3611.866     3056.174      996.711        0.519        0.383       51.509       24.175        0.220      343.718       20.028      862.708
08/10/2013  23:27:00      -24.123      -40.993       18.131       40.221       40.293       25.881     1617.704     1623.557      669.811        0.325        0.196       47.564       28.166        0.351      343.674       19.952      862.736
08/10/2013  23:28:00      -11.091       -8.658      -13.518       44.476       36.208       23.307     1978.100     1310.988      543.206        0.211        0.192       14.070       16.109        1.311      343.549       19.738      862.735
08/10/2013  23:29:00       -8.734       -5.383       -8.334       52.764       33.479       28.249     2784.028     1120.864      797.979        0.244        0.235       10.260       32.576       10.081      343.550       19.740      862.734
08/10/2013  23:30:00     -122.030       15.836       -2.658       69.064       50.062       37.064     4769.903     2506.227     1373.753        1.190        0.432      123.053       28.369        0.053      343.716       20.025      862.766
08/10/2013  23:31:00      -32.167      -56.198        0.460       68.419       63.806       32.828     4681.217     4071.180     1077.666        0.701        0.492       64.753       17.169        0.070      343.634       19.884      862.785
08/10/2013  23:32:00       65.078      -62.962        2.282       39.248       55.772       36.713     1540.423     3110.461     1347.880        0.710        0.300       90.550       20.098        0.049      342.984       18.775      862.791
08/10/2013  23:33:00       38.152      -34.280       29.312       50.438       32.453       22.374     2543.951     1053.204      500.579        0.379        0.205       51.291        5.244        0.010      343.429       19.534      862.818
08/10/2013  23:34:00       31.223      -94.013       25.116       56.097       41.730       32.780     3146.890     1741.363     1074.514        0.820        0.298       99.062       25.045        0.064      343.745       20.074      862.822
08/10/2013  23:35:00       -7.223      -97.661        6.388       19.569       41.725       26.696      382.947     1740.958      712.662        0.623        0.142       97.928       17.345        0.031      343.849       20.249      862.826
08/10/2013  23:36:00      -36.628     -142.197        1.780       41.975       48.867       28.423     1761.918     2387.979      807.884        1.326        0.248      146.839       18.177        0.015      343.792       20.152      862.871
08/10/2013  23:37:00       18.051      -52.916       32.705       49.590       46.842       38.256     2459.139     2194.191     1463.485        0.516        0.306       55.911       21.588        0.149      343.497       19.652      862.888
08/10/2013  23:38:00      -14.973        3.526       30.851       20.066       51.648       30.191      402.655     2667.482      911.522        0.258        0.199       15.383       30.978        4.056      343.340       19.384      862.887
08/10/2013  23:39:00        4.142       29.548       22.238       54.611       37.433       37.557     2982.320     1401.261     1410.502        0.359        0.290       29.837       23.892        0.641      342.911       18.652      862.859
08/10/2013  23:40:00       10.977      -55.694       31.437       30.921       56.575       41.476      956.124     3200.754     1720.260        0.504        0.294       56.766       33.367        0.346      342.994       18.793      862.873
08/10/2013  23:41:00       27.123      -39.155       -5.387       20.155       37.428       17.367      406.225     1400.823      301.607        0.220        0.105       47.632       11.541        0.059      343.044       18.879      862.903
08/10/2013  23:42:00       29.182       12.912       16.621       30.633       35.963       30.349      938.386     1293.315      921.059        0.222        0.158       31.911       29.606        0.861      342.957       18.730      862.902
08/10/2013  23:43:00       66.879       85.002       68.619       49.107       39.163       28.061     2411.461     1533.761      787.444        1.057        0.237      108.158        7.284        0.005      342.997       18.798      862.887
08/10/2013  23:44:00       37.437       45.380       51.326       45.587       38.183       29.877     2078.140     1457.966      892.632        0.526        0.221       58.829       18.715        0.101      342.938       18.699      862.885
08/10/2013  23:45:00      120.002       81.158       41.194       33.764       25.338       35.791     1139.995      642.021     1281.002        1.287        0.153      144.869       18.113        0.016      343.064       18.914      862.902
08/10/2013  23:46:00       87.526       47.474       47.956       53.026       37.347       31.601     2811.729     1394.815      998.643        0.871        0.260       99.572       14.652        0.022      342.993       18.791      862.916
08/10/2013  23:47:00       52.821       80.131       67.055       46.742       35.204       31.121     2184.843     1239.356      968.533        0.905        0.220       95.974       21.215        0.049      343.028       18.852      862.917
08/10/2013  23:48:00      103.653       70.884       37.413       38.538       35.473       37.068     1485.160     1258.302     1374.053        1.064        0.206      125.572       17.531        0.019      343.047       18.884      862.929
08/10/2013  23:49:00       45.146       52.753       38.324       32.801       23.229       23.106     1075.888      539.580      533.867        0.422        0.107       69.433       11.800        0.029      342.853       18.553      862.939
08/10/2013  23:50:00       57.675       39.792       34.907       41.009       35.845       28.173     1681.764     1284.898      793.720        0.494        0.188       70.071       17.328        0.061      342.957       18.731      862.962
08/10/2013  23:51:00       97.253       84.587       38.571       25.476       27.396       36.322      649.009      750.550     1319.271        1.041        0.136      128.892       16.122        0.016      342.946       18.713      862.978
08/10/2013  23:52:00      137.843       89.671       49.731       34.210       36.018       41.566     1170.290     1297.304     1727.730        1.685        0.210      164.443       21.700        0.017      342.874       18.592      862.977
08/10/2013  23:53:00      144.369       93.497       51.754       56.770       47.759       46.978     3222.886     2280.927     2206.894        1.999        0.386      172.000       32.786        0.036      343.128       19.019      862.970
08/10/2013  23:54:00      194.529      124.119       44.408       86.038       42.726       44.849     7402.573     1825.539     2011.432        3.323        0.562      230.753       15.693        0.005      343.210       19.158      862.965
08/10/2013  23:55:00      166.169       93.467       20.617       62.850       51.314       43.894     3950.104     2633.129     1926.673        2.264        0.425      190.652       28.429        0.022      343.018       18.832      862.970
08/10/2013  23:56:00      147.814      103.363       17.886       71.555       66.038       51.176     5120.172     4361.037     2619.031        2.247        0.605      180.369       39.244        0.047      343.103       18.977      862.982
08/10/2013  23:57:00      132.022       99.996       29.268       57.738       40.200       34.017     3333.639     1616.061     1157.156        1.720        0.305      165.617       22.346        0.018      343.102       18.977      863.002
08/10/2013  23:58:00       97.319       64.999       25.159       54.209       42.720       39.463     2938.634     1825.022     1557.328        1.032        0.316      117.029       25.795        0.049      343.080       18.940      863.028
08/10/2013  23:59:00       49.544       86.087       -2.321       71.110       52.362       38.041     5056.691     2741.794     1447.115        0.956        0.462       99.325       30.577        0.095      343.075       18.930      863.038
